     2              OBSERVATION DATA    GPS                 RINEX VERSION / TYPE
teqc 2000Feb29 Duncan Agnew 20000527 01:00:08UTC            PGM / RUN BY / DATE
                                                            COMMENT
L2: 1 -> 1; 5 -> 5; 60 -> 9                                 COMMENT
L2: 1 -> 1; 5 -> 5; 60 -> 9                                 COMMENT
L2: 1 -> 1; 5 -> 5; 60 -> 9                                 COMMENT
L2: 1 -> 1; 5 -> 5; 60 -> 9                                 COMMENT
L2: 1 -> 1; 5 -> 5; 60 -> 9                                 COMMENT
Original Marker Name: 7269BLAC                              COMMENT
Campaign Name: CSRC Post Hector                             COMMENT
4-Character Station Name: BLAC                              COMMENT
6-Character Antenna Code: TRMCMP                            COMMENT
Vertical Measurement Point: BPA                             COMMENT
Vertical Offset to Rinex Ref. Point: 0.0000                 COMMENT
Radial Measurement Point: RRP                               COMMENT
Radial Offset to Rinex Ref. Point: 0.0000                   COMMENT
Antenna Height from Field Measurement: 1.8000 m             COMMENT
Additional Antenna Identification Info.:                    COMMENT
Model 22020.00+GP                                           COMMENT
Original XYZ: -2306305.6110 -4787912.7158 3515737.5390      COMMENT
New XYZ position is based on association with SCEC monument COMMENT
E1D0M3T8+0011. Position of that monument is believed to be  COMMENT
valid to within 1 m horizontally; vertical accuracy         COMMENT
should be no worse than 3-times this value.                 COMMENT
                                                            COMMENT
Revised Rinex header created by UCSD GPS archive for        COMMENT
GSAC on 17-Jun-2000 (2000:169) 00:16:59 GMT                 COMMENT
For assistance contact dagnew@ucsd.edu                      COMMENT
or anderson@python.ucsd.edu                                 COMMENT
                                                            COMMENT
BLACK BUTTE 1982                                            MARKER NAME
7269                                                        MARKER NUMBER
-Unknown- RIVERSIDE COUNTY FCWCD                            OBSERVER / AGENCY
2249 TRIMBLE 4000 SSI NP 7.29; SP 3.07                      REC # / TYPE / VERS
80458 TR GEOD L1/L2 GP                                      ANT # / TYPE
 -2306307.3093 -4787914.2275  3515736.4477                  APPROX POSITION XYZ
        1.8000        0.0000        0.0000                  ANTENNA: DELTA H/E/N
     1     1     0                                          WAVELENGTH FACT L1/2
     7    C1    L1    L2    P1    P2    S1    S2            # / TYPES OF OBSERV
     0                                                      INTERVAL
  2000     5     2    15     0   15.000000                  TIME OF FIRST OBS
  2000     5     2    20    29   45.000000                  TIME OF LAST OBS
                                                            END OF HEADER
 00  5  2 15  0 15.0000000  0  7G 2G 7G 8G 4G 9G26G27
  21415730.5084    1336241.18658   1046113.14157                  21415736.8134
        30.7504         28.2504
  20616172.9304   -1229532.68858   -911811.47957                  20616179.3524
        31.2504         29.0004
  22679129.0554   11290730.51556   8797961.09356                  22679137.1454
        18.2504         16.7504
  22860982.3134   -4736202.78256  -3547905.34056                  22860990.8364
        16.2504         15.0004
  23705420.2424   -1412980.54256   -981395.14756                  23705426.8874
        13.2504         12.0004
  23080819.6484    2152738.60556   2348908.54156                  23080826.8014
        17.0004         16.2504
  23732491.1094   13079344.13155  10191677.21955                  23732502.1884
         9.2504         10.2504
 00  5  2 15  0 30.0000000  0  7G 2G 7G 8G 4G 9G26G27
  21418829.8284    1352528.01448   1058804.17347                  21418836.0984
        30.7504         27.5004
  20619249.4224   -1213366.02948   -899214.08647                  20619255.8204
        31.5004         28.7504
  22690381.9924   11349866.30346   8844040.86246                  22690390.3164
        18.2504         17.0004
  22853209.3914   -4777049.17446  -3579733.62346                  22853217.6684
        16.2504         15.2504
  23698300.2114   -1450397.61346  -1010551.32045                  23698307.3754
        13.5004         11.2504
  23086695.5554    2183617.18146   2372969.76746                  23086702.5314
        16.7504         15.7504
  23744682.1884   13143407.13245  10241596.31445                  23744694.1804
         8.7504         10.5004
 00  5  2 15  0 45.0000000  0  7G 2G 7G 8G 4G 9G26G27
  21421942.0234    1368882.59648   1071547.99047                  21421948.3984
        30.7504         27.7504
  20622348.0234   -1197083.39548   -886526.31547                  20622354.3054
        31.5004         28.5004
  22701652.6024   11409092.94346   8890191.43446                  22701660.3404
        18.2504         17.0004
  22845448.9304   -4817830.60546  -3611511.28546                  22845457.4414
        16.2504         15.0004
  23691192.7664   -1487744.36046  -1039652.65545                  23691199.9654
        13.0004         11.5004
  23092595.9224    2214622.18346   2397129.48046                  23092602.7194
        17.5004         16.0004
  23756887.5704   13207545.03745  10291573.76345                  23756899.6914
         9.2504         10.0004
 00  5  2 15  1  0.0000000  0  7G 2G 7G 8G 4G 9G26G27
  21425067.1414    1385305.51548   1084345.03947                  21425073.6334
        30.7504         28.7504
  20625468.4614   -1180684.26248   -873747.74947                  20625474.6254
        31.7504         29.7504
  22712940.6094   11468410.67246   8936412.98146                  22712948.6054
        18.0004         16.2504
  22837700.6484   -4858546.16746  -3643237.60946                  22837708.5864
        16.0004         15.0004
  23684099.7664   -1525019.97046  -1068698.56646                  23684106.5634
        13.5004         12.5004
  23098520.2034    2245753.89146   2421387.94146                  23098526.8134
        17.5004         15.7504
  23769106.5704   13271758.17845  10341609.81845                  23769118.8674
         9.0004         10.2504
 00  5  2 15  1 15.0000000  0  7G 2G 7G 8G 4G 9G26G27
  21428205.0784    1401796.44648   1097195.13247                  21428211.6054
        31.0004         28.2504
  20628611.3364   -1164169.35748   -860879.02047                  20628617.4184
        31.5004         29.2504
  22724245.5944   11527818.77946   8982704.93846                  22724253.4144
        18.0004         16.2504
  22829965.5394   -4899195.90946  -3674912.65446                  22829974.0634
        16.2504         15.0004
  23677019.6254   -1562224.64146  -1097689.19446                  23677026.6024
        13.7504         12.2504
  23104467.8594    2277011.58446   2445744.57046                  23104474.4804
        17.2504         16.0004
  23781340.6174   13336045.79745  10391703.91645                  23781352.2344
         9.0004         10.5004
 00  5  2 15  1 30.0000000  0  7G 2G 7G 8G 4G 9G26G27
  21431356.4694    1418355.57148   1110098.34547                  21431362.7034
        30.7504         28.0004
  20631776.0864   -1147538.78948   -847920.13847                  20631782.4144
        31.2504         28.7504
  22735567.6804   11587317.09346   9029067.20346                  22735575.5474
        18.0004         16.2504
  22822242.5234   -4939779.52146  -3706536.17546                  22822250.8134
        16.2504         15.0004
  23669953.9144   -1599357.92646  -1126624.22346                  23669961.3714
        14.5004         12.5004
  23110440.1254    2308395.00046   2470199.15846                  23110446.7934
        17.0004         15.5004
  23793589.1564   13400407.68745  10441855.90845                  23793600.8794
         9.5004         10.5004
 00  5  2 15  1 45.0000000  0  7G 2G 7G 8G 4G 9G26G27
  21434520.4774    1434983.37448   1123055.05947                  21434526.7584
        30.7504         27.7504
  20634962.5314   -1130792.23248   -834870.86747                  20634968.6844
        31.2504         28.7504
  22746907.2194   11646905.89846   9075499.97946                  22746915.1214
        18.0004         16.0004
  22814532.4774   -4980295.99946  -3738107.38346                  22814540.5784
        16.5004         15.0004
  23662901.2424   -1636419.10046  -1155503.03046                  23662907.9454
        14.0004         12.2504
  23116436.3674    2339904.41146   2494751.92946                  23116443.4024
        17.0004         15.7504
  23805850.5944   13464844.01745  10492065.89945                  23805863.6294
         9.5004         10.2504
 00  5  2 15  2  0.0000000  0  7G 2G 7G 8G 4G 9G26G27
  21437697.8984    1451680.91548   1136066.12247                  21437704.1914
        31.0004         27.0004
  20638171.7344   -1113929.00348   -821730.69347                  20638178.1334
        31.0004         27.5004
  22758264.1174   11706585.83246   9122003.75646                  22758272.4774
        18.2504         15.7504
  22806835.1484   -5020743.99946  -3769625.22646                  22806843.9414
        16.2504         14.7504
  23655862.6254   -1673406.95646  -1184324.73445                  23655869.2934
        13.5004         11.5004
  23122456.5474    2371540.35946   2519403.30146                  23122463.5234
        16.7504         15.2504
  23818126.2664   13529355.51745  10542334.45845                  23818137.1804
         9.2504         10.0004
 00  5  2 15  2 15.0000000  0  7G 2G 7G 8G 4G 9G26G27
  21440888.2194    1468445.81948   1149129.67747                  21440894.4654
        30.7504         26.7504
  20641402.2274   -1096951.73048   -808501.64747                  20641408.6724
        31.2504         27.2504
  22769637.3054   11766354.19446   9168576.44346                  22769645.0084
        18.0004         15.7504
  22799150.9454   -5061125.68646  -3801091.40946                  22799159.3524
        16.7504         14.5004
  23648837.5554   -1710323.69546  -1213091.01745                  23648844.3634
        12.7504         11.0004
  23128500.3754    2403300.08446   2544151.10946                  23128507.5394
        17.2504         15.2504
  23830416.9924   13593939.27645  10592659.31845                  23830428.7854
         9.7504         10.0004
 00  5  2 15  2 30.0000000  0  7G 2G 7G 8G 4G 9G26G27
  21444091.6254    1485280.24548   1162247.41147                  21444097.8834
        30.5004         26.7504
  20644655.0004   -1079858.51848   -795182.26147                  20644661.3164
        31.0004         27.2504
  22781028.4224   11826212.77346   9215219.42846                  22781036.5354
        18.0004         15.0004
  22791479.6094   -5101438.62946  -3832504.02446                  22791488.0044
        16.7504         15.0004
  23641826.2734   -1747166.92546  -1241800.01745                  23641833.5904
        13.0004         11.0004
  23134567.5554    2435185.38146   2568996.77846                  23134575.1294
        16.5004         15.2504
  23842721.2114   13658597.13945  10643041.93845                  23842733.3674
        10.0004          9.7504
 00  5  2 15  2 45.0000000  0  7G 2G 7G 8G 4G 9G26G27
  21447308.5864    1502185.04648   1175419.97447                  21447315.1954
        30.5004         26.5004
  20647929.9774   -1062648.80948   -781772.09847                  20647936.2934
        31.0004         27.2504
  22792436.0004   11886162.04346   9261933.07746                  22792444.4774
        17.5004         15.2504
  22783821.4064   -5141681.60446  -3863862.12246                  22783829.8834
        16.2504         14.2504
  23634829.7974   -1783935.57446  -1270450.89745                  23634836.7504
        13.5004         11.5004
  23140658.9534    2467196.74346   2593940.66946                  23140666.5744
        16.2504         14.7504
  23855039.3204   13723329.61445  10693482.67145                  23855051.2894
        10.0004         10.0004
 00  5  2 15  3  0.0000000  0  7G 2G 7G 8G 4G 9G26G27
  21450538.3984    1519157.74248   1188645.44347                  21450544.9844
        30.5004         26.5004
  20651226.3914   -1045325.33948   -768273.29647                  20651232.6724
        31.2504         27.0004
  22803861.0944   11946199.32746   9308715.30746                  22803868.6454
        17.5004         15.0004
  22776176.0394   -5181856.83346  -3895167.43546                  22776184.1764
        16.0004         14.5004
  23627846.3204   -1820632.01046  -1299045.51545                  23627853.1414
        13.5004         11.0004
  23146774.2274    2499331.33346   2618980.58546                  23146782.0234
        16.2504         14.7504
  23867371.7664   13788133.79445  10743979.29145                  23867383.2304
        10.7504         10.5004
 00  5  2 15  3 15.0000000  0  7G 2G 7G 8G 4G 9G26G27
  21453781.3524    1536199.27548   1201924.55747                  21453787.8444
        30.5004         26.7504
  20654544.8284   -1027887.53048   -754685.39347                  20654550.8634
        31.2504         27.5004
  22815302.9844   12006325.11346   9355566.50446                  22815311.1454
        17.0004         15.2504
  22768544.5704   -5221963.10446  -3926419.00646                  22768553.1524
        16.5004         14.7504
  23620877.7344   -1857255.07146  -1327582.96045                  23620884.7934
        13.2504         11.5004
  23152912.8674    2531589.60346   2644116.88046                  23152919.9494
        16.2504         14.7504
  23879717.1954   13853010.26245  10794532.25445                  23879729.3984
        11.2504         10.2504
 00  5  2 15  3 30.0000000  0  7G 2G 7G 8G 4G 9G26G27
  21457036.7194    1553307.48448   1215255.62547                  21457043.0594
        30.2504         26.5004
  20657884.3364   -1010337.67248   -741010.18447                  20657890.5234
        31.5004         27.2504
  22826760.3754   12066536.86746   9402484.69546                  22826768.8164
        16.7504         15.0004
  22760925.2194   -5262002.27046  -3957618.29646                  22760933.6024
        16.2504         14.2504
  23613921.4534   -1893806.70246  -1356064.72945                  23613928.6294
        12.5004         11.5004
  23159074.3674    2563969.12046   2669347.64346                  23159081.5664
        16.5004         15.0004
  23892076.1884   13917956.51445  10845139.58945                  23892088.0394
        11.2504         10.5004
 00  5  2 15  3 45.0000000  0  7G 2G 7G 8G 4G 9G26G27
  21460305.7034    1570485.36848   1228640.98447                  21460312.3484
        30.2504         26.7504
  20661245.7974    -992673.14848   -727245.62247                  20661251.8324
        31.5004         27.5004
  22838235.9304   12126837.39646   9449472.05146                  22838245.0634
        16.7504         15.0004
  22753319.1174   -5301970.98646  -3988762.69646                  22753327.5354
        16.2504         15.5004
  23606979.9774   -1930283.74345  -1384488.36345                  23606988.1134
        11.7504         11.5004
  23165259.2894    2596472.38846   2694674.84146                  23165266.8164
        16.2504         15.2504
  23904448.3204   13982975.15145  10895803.30245                  23904460.4304
        11.0004         10.5004
 00  5  2 15  4  0.0000000  0  7G 2G 7G 8G 4G 9G26G27
  21463587.3754    1587730.83748   1242079.00547                  21463593.7384
        30.2504         26.7504
  20664628.5944    -974896.21448   -713393.46747                  20664634.8634
        31.2504         27.5004
  22849726.9924   12187224.19746   9496526.63546                  22849735.2814
        16.5004         15.0004
  22745726.2194   -5341871.09546  -4019853.62646                  22745734.4024
        16.5004         15.0004
  23600052.5394   -1966688.04245  -1412855.33345                  23600060.1024
        11.7504         11.5004
  23171467.8204    2629097.01546   2720096.60646                  23171475.7704
        16.0004         15.2504
  23916835.0314   14048063.77145  10946521.55945                  23916847.3754
        10.7504         10.7504
 00  5  2 15  4 15.0000000  0  7G 2G 7G 8G 4G 9G26G27
  21466881.5394    1605042.65848   1255568.72547                  21466887.8674
        30.0004         26.7504
  20668032.7504    -957008.35648   -699454.88147                  20668038.9964
        31.2504         28.0004
  22861234.2894   12247695.76646   9543647.27046                  22861242.7544
        16.5004         15.2504
  22738146.6564   -5381703.42846  -4050891.75646                  22738154.9454
        17.0004         15.5004
  23593138.8674   -2003020.61446  -1441166.42445                  23593145.5704
        12.7504         11.7504
  23177698.9614    2661841.41946   2745611.69246                  23177706.6414
        15.7504         15.2504
  23929234.2114   14113220.72845  10997293.03445                  23929247.3284
        10.5004         11.2504
 00  5  2 15  4 30.0000000  0  7G 2G 7G 8G 4G 9G26G27
  21470189.1094    1622423.17148   1269111.97447                  21470195.4024
        30.0004         27.2504
  20671458.1254    -939007.62248   -685428.33747                  20671464.1844
        31.2504         28.0004
  22872757.8054   12308253.86846   9590835.34546                  22872766.5864
        16.5004         15.0004
  22730580.1174   -5421465.39046  -4081875.03946                  22730588.9344
        16.7504         15.2504
  23586239.1954   -2039278.87446  -1469419.61645                  23586245.7934
        12.7504         11.7504
  23183953.0784    2694707.50846   2771221.62346                  23183960.4774
        16.0004         15.7504
  23941645.9614   14178447.95745  11048119.32245                  23941657.5084
         9.7504         10.2504
 00  5  2 15  4 45.0000000  0  7G 2G 7G 8G 4G 9G26G27
  21473509.3204    1639870.76848   1282707.50347                  21473515.7774
        30.2504         28.0004
  20674904.7034    -920895.76048   -671315.20347                  20674910.8324
        31.2504         28.7504
  22884298.2194   12368896.74546   9638089.46446                  22884306.9064
        16.2504         15.7504
  22723026.9064   -5461158.23646  -4112804.46946                  22723035.0204
        16.7504         16.0004
  23579353.1484   -2075464.14446  -1497615.91446                  23579359.9574
        12.2504         12.5004
  23190229.9144    2727693.32346   2796924.82446                  23190237.0904
        16.0004         16.2504
  23954071.8834   14243743.57145  11098998.83145                  23954083.5594
        10.0004         10.5004
 00  5  2 15  5  0.0000000  0  7G 2G 7G 8G 4G 9G26G27
  21476842.1724    1657384.45248   1296354.51747                  21476848.3954
        30.2504         27.5004
  20678372.0634    -902674.09348   -657116.49947                  20678378.1454
        31.5004         28.5004
  22895853.5474   12429623.21746   9685408.72646                  22895862.2344
        16.0004         16.0004
  22715486.4224   -5500782.76146  -4143680.68246                  22715495.0164
        16.5004         16.0004
  23572481.2114   -2111577.35945  -1525756.03946                  23572488.4694
        11.7504         12.2504
  23196529.6724    2760797.38346   2822720.16646                  23196537.0124
        15.7504         15.2504
  23966509.9534   14309106.08945  11149930.51945                  23966521.1604
        10.7504         10.5004
 00  5  2 15  5 15.0000000  0  7G 2G 7G 8G 4G 9G26G27
  21480187.9304    1674966.33548   1310054.67747                  21480194.3164
        30.2504         27.7504
  20681860.7424    -884340.86048   -642830.86847                  20681866.9884
        31.5004         28.5004
  22907425.8524   12490434.83446   9732794.33346                  22907434.8914
        16.0004         15.7504
  22707959.5474   -5540336.45646  -4174501.68046                  22707968.1054
        16.7504         16.0004
  23565623.0004   -2147616.18745  -1553838.22246                  23565630.5634
        11.5004         12.0004
  23202852.1414    2794021.49246   2848609.06246                  23202859.1764
        15.7504         15.7504
  23978961.5004   14374537.28845  11200915.72045                  23978973.6564
        10.0004         10.5004
 00  5  2 15  5 30.0000000  0  7G 2G 7G 8G 4G 9G26G27
  21483546.7974    1692617.96248   1323809.18147                  21483553.1604
        30.2504         27.5004
  20685371.1414    -865894.62848   -628457.18047                  20685377.2704
        31.5004         28.5004
  22919014.8524   12551332.83446   9780247.26446                  22919023.8914
        16.2504         15.5004
  22700446.4534   -5579817.52546  -4205266.10546                  22700454.6954
        17.0004         15.7504
  23558779.7274   -2183578.82346  -1581861.02546                  23558786.8914
        13.0004         12.5004
  23209197.4774    2827366.83446   2874592.43346                  23209204.6174
        15.7504         15.5004
  23991425.9774   14440038.34545  11251955.36145                  23991437.4304
         9.5004         10.2504
 00  5  2 15  5 45.0000000  0  7G 2G 7G 8G 4G 9G26G27
  21486919.1024    1710339.76048   1337618.36947                  21486925.4774
        30.2504         27.5004
  20688902.6644    -847335.30948   -613995.37847                  20688908.6884
        31.5004         28.2504
  22930619.1334   12612317.36846   9827767.61146                  22930627.6334
        16.0004         15.7504
  22692947.3134   -5619225.22946  -4235973.36046                  22692955.7424
        17.0004         15.7504
  23551950.7504   -2219464.65946  -1609823.99846                  23551957.7624
        13.2504         13.0004
  23215565.5004    2860833.39846   2900670.24646                  23215572.6054
        15.2504         15.5004
  24003903.3914   14505609.30145  11303049.43845                  24003916.4264
        10.0004         10.0004
 00  5  2 15  6  0.0000000  0  7G 2G 7G 8G 4G 9G26G27
  21490304.9614    1728132.45448   1351482.79447                  21490311.5004
        30.0004         27.5004
  20692456.2344    -828662.55748   -599445.18747                  20692462.3284
        31.5004         28.2504
  22942240.9454   12673388.65646   9875355.56146                  22942249.6094
        15.7504         15.2504
  22685462.4064   -5658558.62046  -4266622.71046                  22685470.9064
        17.5004         15.7504
  23545137.0234   -2255272.84846  -1637726.48946                  23545144.1644
        13.7504         13.0004
  23221957.5864    2894421.46546   2926842.72846                  23221964.9964
        15.2504         15.2504
  24016395.5314   14571250.46045  11354198.24245                  24016406.4454
        10.5004          9.7504
 00  5  2 15  6 15.0000000  0  7G 2G 7G 8G 4G 9G26G27
  21493703.9224    1745994.05648   1365400.92147                  21493710.3914
        30.2504         27.5004
  20696030.5704    -809878.73248   -584808.43747                  20696036.6884
        31.2504         28.0004
  22953878.7664   12734544.44146   9923009.35946                  22953887.3954
        15.7504         15.2504
  22677991.5474   -5697819.40846  -4297215.47946                  22677999.5204
        17.7504         16.0004
  23538337.3834   -2291005.18446  -1665569.84246                  23538343.7814
        13.0004         13.2504
  23228371.6094    2928128.61646   2953108.01846                  23228379.1254
        15.2504         15.2504
  24028899.2424   14636959.43845  11405399.92245                  24028912.0314
         9.2504          9.0004
 00  5  2 15  6 30.0000000  0  7G 2G 7G 8G 4G 9G26G27
  21497115.9224    1763925.16648   1379373.20747                  21497122.4024
        30.0004         28.2504
  20699626.1884    -790983.28048   -570084.71247                  20699632.1994
        31.5004         29.0004
  22965532.3134   12795785.05146   9970729.24846                  22965540.8014
        15.7504         15.5004
  22670534.4774   -5737006.51146  -4327750.84346                  22670542.8364
        17.7504         16.5004
  23531552.2274   -2326660.75646  -1693353.38246                  23531559.3794
        13.7504         13.2504
  23234808.9454    2961955.20446   2979466.38446                  23234816.0514
        15.5004         15.7504
  24041416.0234   14702736.45045  11456654.54045                  24041428.5434
         9.5004          8.7504
 00  5  2 15  6 45.0000000  0  7G 2G 7G 8G 4G 9G26G27
  21500541.2504    1781924.77848   1393398.87647                  21500547.7074
        30.0004         28.0004
  20703242.7664    -771977.64148   -555275.12847                  20703248.9184
        31.5004         28.7504
  22977201.8524   12857109.06146  10018514.12746                  22977210.7854
        15.7504         15.7504
  22663090.7814   -5776120.87446  -4358229.52946                  22663098.8834
        17.7504         16.0004
  23524781.8204   -2362240.41946  -1721077.77946                  23524789.2664
        14.2504         13.7504
  23241268.4064    2995899.73346   3005916.63246                  23241275.5944
        15.7504         15.7504
  24053945.8594   14768580.11545  11507961.14345                  24053957.2074
         9.5004          9.0004
 00  5  2 15  7  0.0000000  0  7G 2G 7G 8G 4G 9G26G27
  21503979.4224    1799992.08548   1407477.29547                  21503985.9024
        30.0004         28.0004
  20706880.3444    -752862.80848   -540380.45047                  20706886.5664
        31.7504         29.0004
  22988887.7894   12918515.29846  10066363.07046                  22988897.4024
        16.0004         15.7504
  22655661.5084   -5815162.77546  -4388651.74746                  22655669.2464
        18.0004         16.2504
  23518025.1414   -2397744.76446  -1748743.47746                  23518032.3984
        14.2504         14.0004
  23247749.9064    3029961.04646   3032457.88946                  23247757.2234
        14.7504         15.2504
  24066487.3364   14834489.31945  11559318.85345                  24066498.1914
         8.5004          8.7504
 00  5  2 15  7 15.0000000  0  7G 2G 7G 8G 4G 9G26G27
  21507430.3524    1818127.08348   1421608.45347                  21507436.9384
        30.0004         27.7504
  20710538.4304    -733639.05748   -525400.90547                  20710544.5824
        31.5004         29.0004
  23000588.5234   12980003.50546  10114275.88746                  23000597.5044
        16.0004         15.2504
  22648245.9614   -5854131.99046  -4419017.32446                  22648253.7934
        18.2504         16.2504
  23511283.6804   -2433173.55746  -1776350.30946                  23511290.3134
        15.2504         13.5004
  23254254.0234    3064138.74746   3059089.84146                  23254260.8204
        15.7504         15.7504
  24079042.3984   14900463.68645  11610727.27545                  24079056.6764
         8.7504          9.0004
 00  5  2 15  7 30.0000000  0  7G 2G 7G 8G 4G 9G26G27
  21510894.8524    1836332.78248   1435794.70147                  21510901.3914
        30.0004         27.7504
  20714217.7974    -714303.67748   -510334.38247                  20714224.0664
        31.5004         29.0004
  23012305.1174   13041576.35246  10162254.65746                  23012314.1454
        16.2504         15.2504
  22640844.7894   -5893025.39946  -4449323.84546                  22640852.4344
        18.2504         16.2504
  23504556.5704   -2468523.62946  -1803895.81446                  23504563.5124
        14.2504         13.5004
  23260780.5004    3098435.38646   3085814.47046                  23260787.4534
        15.0004         15.2504
  24091610.2504   14966505.79045  11662188.47145                  24091621.4574
         8.5004          8.5004
 00  5  2 15  7 45.0000000  0  7G 2G 7G 8G 4G 9G26G27
  21514372.6094    1854608.31048   1450035.36447                  21514379.2194
        30.0004         27.2504
  20717918.3444    -694857.82848   -495181.77547                  20717924.4264
        31.5004         28.0004
  23024038.3134   13103232.47046  10210298.31846                  23024046.9184
        16.5004         15.0004
  22633457.6954   -5931843.32146  -4479571.54346                  22633465.7034
        18.2504         15.7504
  23497844.4304   -2503795.59446  -1831380.44046                  23497851.8754
        15.0004         13.0004
  23267328.9694    3132849.66946   3112630.76246                  23267336.6954
        15.2504         14.7504
  24104190.3834   15032614.36245  11713701.46545                  24104201.0394
         8.2504          8.0004
 00  5  2 15  8  0.0000000  0  7G 2G 7G 8G 4G 9G26G27
  21517863.6024    1872954.20448   1464330.85947                  21517870.1294
        30.2504         27.2504
  20721639.8674    -675301.25048   -479942.88747                  20721645.9734
        31.7504         28.0004
  23035786.7664   13164972.17046  10258407.11446                  23035795.5474
        16.2504         15.0004
  22626085.6954   -5970584.93846  -4509759.77946                  22626093.6564
        18.5004         15.7504
  23491147.7034   -2538988.77146  -1858803.68046                  23491155.5124
        15.0004         13.7504
  23273900.3364    3167381.86646   3139538.95746                  23273907.5474
        15.5004         14.7504
  24116783.4774   15098789.63345  11765266.47945                  24116796.2194
         8.5004          8.5004
 00  5  2 15  8 15.0000000  0  7G 2G 7G 8G 4G 9G26G27
  21521368.2344    1891371.10948   1478681.69047                  21521374.8204
        30.0004         28.0004
  20725382.4844    -655633.60348   -464617.44647                  20725388.6954
        31.7504         29.0004
  23047551.5784   13226795.82146  10306581.31046                  23047560.2774
        16.2504         15.5004
  22618727.5944   -6009249.48946  -4539887.95946                  22618735.3794
        18.5004         16.5004
  23484465.6254   -2574102.26646  -1886164.82346                  23484472.8714
        15.7504         14.5004
  23280494.1094    3202032.14146   3166539.14646                  23280501.7544
        15.5004         15.7504
  24129388.9064   15165031.78345  11816883.54145                  24129400.8874
         7.7504          8.7504
 00  5  2 15  8 30.0000000  0  7G 2G 7G 8G 4G 9G26G27
  21524886.3364    1909858.44448   1493087.40047                  21524892.8404
        30.2504         27.2504
  20729146.0554    -635855.72148   -449206.11447                  20729152.3134
        31.7504         28.5004
  23059332.5164   13288702.38846  10354820.11646                  23059341.4024
        16.5004         15.0004
  22611385.1334   -6047837.05646  -4569956.15346                  22611392.7664
        18.7504         16.2504
  23477799.1334   -2609136.48746  -1913464.20846                  23477805.3204
        16.2504         14.2504
  23287110.4454    3236799.57446   3193630.62646                  23287117.8324
        15.2504         15.0004
  24142006.8594   15231339.87145  11868552.02645                  24142018.9454
         8.0004          8.0004
 00  5  2 15  8 45.0000000  0  7G 2G 7G 8G 4G 9G26G27
  21528417.2034    1928413.05148   1507545.53047                  21528423.8954
        30.0004         27.5004
  20732929.9694    -615970.91148   -433711.45847                  20732936.1564
        31.7504         28.5004
  23071127.5704   13350688.39646  10403120.84746                  23071136.3754
        16.0004         15.2504
  22604056.0164   -6086350.51746  -4599966.60746                  22604064.0354
        18.5004         16.5004
  23471146.8204   -2644094.47546  -1940704.18446                  23471153.6414
        15.2504         14.2504
  23293747.3914    3271680.50346   3220810.54746                  23293754.6954
        14.7504         14.7504
  24154637.0944   15297710.43845  11920269.18145                  24154650.0704
         8.5004          8.5004
 00  5  2 15  9  0.0000000  0  7G 2G 7G 8G 4G 9G26G27
  21531960.6804    1947034.44048   1522055.68847                  21531967.2424
        29.5004         27.5004
  20736733.9304    -595980.05948   -418134.17047                  20736740.1764
        31.5004         28.7504
  23082938.2584   13412753.06846  10451482.86146                  23082947.2504
        16.0004         15.2504
  22596741.2664   -6124790.12446  -4629919.51146                  22596749.0394
        18.5004         16.7504
  23464508.9774   -2678976.36546  -1967884.84346                  23464515.4454
        15.2504         13.7504
  23300406.4774    3306674.16946   3248078.32046                  23300414.0394
        14.7504         15.0004
  24167279.3284   15364142.58645  11972034.33445                  24167292.6094
         8.7504          9.0004
 00  5  2 15  9 15.0000000  0  7G 2G 7G 8G 4G 9G26G27
  21535516.7274    1965721.13048   1536616.73947                  21535523.4184
        29.7504         27.7504
  20740558.1564    -575884.96548   -402475.65947                  20740564.4734
        31.5004         28.7504
  23094763.1024   13474894.53246  10499904.70646                  23094772.6334
        16.0004         15.5004
  22589440.0314   -6163157.06046  -4659815.79846                  22589448.0274
        18.0004         16.7504
  23457885.3914   -2713783.57146  -1995007.34046                  23457892.3444
        16.0004         14.0004
  23307086.9384    3341778.69346   3275432.45146                  23307094.0314
        15.0004         15.0004
  24179932.2424   15430634.43345  12023845.92745                  24179943.9884
         8.7504          9.0004
 00  5  2 15  9 30.0000000  0  7G 2G 7G 8G 4G 9G26G27
  21539086.0704    1984479.03148   1551233.28247                  21539092.6214
        29.5004         28.2504
  20744402.8524    -555680.18048   -386731.67147                  20744408.8634
        31.5004         29.2504
  23106604.2114   13537118.19346  10548390.60446                  23106612.8874
        16.2504         15.5004
  22582154.5084   -6201445.11746  -4689650.60446                  22582162.8914
        18.5004         17.2504
  23451276.9304   -2748509.94246  -2022066.84446                  23451283.5864
        15.7504         14.5004
  23313789.2504    3376999.37446   3302877.12046                  23313796.1334
        15.2504         15.2504
  24192597.2894   15497191.37345  12075708.34245                  24192611.0864
         8.5004          9.5004
 00  5  2 15  9 45.0000000  0  7G 2G 7G 8G 4G 9G26G27
  21542669.2504    2003308.08148   1565905.26047                  21542675.7664
        29.5004         28.2504
  20748268.5004    -535365.79048   -370902.28047                  20748274.5944
        31.2504         29.0004
  23118460.7034   13599423.68046  10596940.25946                  23118469.8134
        16.2504         15.2504
  22574883.2894   -6239654.24346  -4719423.90946                  22574891.0634
        18.2504         17.5004
  23444684.4304   -2783155.26846  -2049063.18546                  23444691.2034
        15.7504         14.5004
  23320513.8914    3412335.76246   3330411.93346                  23320521.3594
        15.5004         15.7504
  24205274.9844   15563813.02545  12127621.13545                  24205287.4924
         9.0004          9.5004
 00  5  2 15 10  0.0000000  0  7G 2G 7G 8G 4G 9G26G27
  21546265.7504    2022207.86248   1580632.35647                  21546272.3594
        29.5004         27.7504
  20752155.0234    -514942.64448   -354988.14147                  20752160.9884
        31.2504         28.5004
  23130332.0004   13661810.22346  10645553.07346                  23130340.3834
        15.7504         15.0004
  22567627.4534   -6277784.41346  -4749135.70246                  22567635.0274
        18.5004         17.0004
  23438106.9144   -2817719.75546  -2075996.55246                  23438113.6884
        15.0004         14.0004
  23327259.7424    3447787.08346   3358036.32346                  23327266.8834
        15.2504         15.0004
  24217964.9454   15630498.62745  12179583.76845                  24217978.4024
         8.7504          9.5004
 00  5  2 15 10 15.0000000  0  7G 2G 7G 8G 4G 9G26G27
  21549875.6174    2041177.46248   1595413.84947                  21549882.3794
        29.5004         28.0004
  20756061.8594    -494411.88848   -338990.15347                  20756067.9064
        31.2504         28.7504
  23142219.3834   13724276.60846  10694228.11146                  23142228.0354
        15.5004         14.7504
  22560386.1954   -6315836.26846  -4778786.45646                  22560394.2154
        18.5004         17.2504
  23431544.5864   -2852204.17246  -2102867.48446                  23431552.1604
        14.5004         14.0004
  23334027.7974    3483352.08446   3385749.28146                  23334035.1604
        15.2504         15.0004
  24230667.4534   15697246.86245  12231595.19245                  24230679.5044
         9.0004          9.7504
 00  5  2 15 10 30.0000000  0  7G 2G 7G 8G 4G 9G26G27
  21553498.5234    2060215.72048   1610248.84447                  21553505.0864
        29.5004         27.7504
  20759989.0164    -473775.03948   -322909.49847                  20759995.1334
        31.2504         28.5004
  23154121.1884   13786821.32246  10742964.18246                  23154129.7114
        15.5004         14.5004
  22553160.1484   -6353810.64246  -4808376.83946                  22553167.9924
        18.7504         17.2504
  23424997.4844   -2886609.47146  -2129676.79946                  23425003.6374
        15.0004         13.7504
  23340816.9384    3519029.08346   3413549.50746                  23340824.3714
        15.0004         15.0004
  24243380.3984   15764056.16845  12283654.21745                  24243394.0664
         9.0004          9.2504
 00  5  2 15 10 45.0000000  0  7G 2G 7G 8G 4G 9G26G27
  21557134.7584    2079325.12948   1625139.28247                  21557141.4384
        29.5004         28.0004
  20763936.5864    -453029.81748   -306744.39147                  20763942.6454
        31.5004         28.5004
  23166038.4384   13849446.41446  10791762.87246                  23166047.1844
        15.2504         14.0004
  22545948.7344   -6391704.76046  -4837904.68646                  22545956.7194
        18.5004         17.5004
  23418465.6174   -2920932.93546  -2156422.36346                  23418472.4264
        15.7504         14.0004
  23347627.5314    3554820.18246   3441438.66046                  23347634.9184
        15.0004         14.7504
  24256105.7894   15830928.65945  12335762.44945                  24256119.3054
         9.2504         10.0004
 00  5  2 15 11  0.0000000  0  7G 2G 7G 8G 4G 9G26G27
  21560784.2664    2098502.56748   1640082.73947                  21560790.8404
        29.5004         28.5004
  20767904.4064    -432179.59348   -290497.46747                  20767910.5594
        31.2504         29.0004
  23177970.3054   13912148.55146  10840621.61846                  23177978.8634
        15.7504         14.2504
  22538752.7894   -6429521.43746  -4867372.19546                  22538760.2584
        18.7504         17.7504
  23411949.5164   -2955177.50346  -2183106.42946                  23411955.7274
        15.2504         14.0004
  23354459.3834    3590721.94546   3469414.02946                  23354466.9574
        14.7504         14.7504
  24268842.7894   15897860.83545  12387917.22845                  24268857.1844
         9.5004          9.7504
 00  5  2 15 11 15.0000000  0  7G 2G 7G 8G 4G 9G26G27
  21564446.6024    2117748.82248   1655079.81647                  21564453.2344
        29.5004         28.5004
  20771892.0314    -411223.93648   -274168.39047                  20771898.0204
        31.2504         29.2504
  23189916.6484   13974928.11546  10889540.67546                  23189925.1954
        15.2504         14.7504
  22531571.2584   -6467259.54646  -4896778.47546                  22531579.0904
        19.2504         18.0004
  23405448.0704   -2989342.20846  -2209728.26646                  23405454.7154
        15.2504         14.2504
  23361312.3284    3626734.63746   3497475.83546                  23361319.7154
        15.2504         15.7504
  24281591.0314   15964853.11045  12440118.79845                  24281605.0744
         9.2504         10.0004
 00  5  2 15 11 30.0000000  0  7G 2G 7G 8G 4G 9G26G27
  21568122.5394    2137064.84348   1670131.25347                  21568129.1844
        29.5004         28.2504
  20775900.0314    -390162.09848   -257756.56547                  20775906.0784
        31.5004         29.0004
  23201878.8834   14037785.84346  10938520.65846                  23201887.0664
        14.7504         14.5004
  22524405.1954   -6504917.93746  -4926122.63846                  22524412.9694
        19.2504         18.2504
  23398961.7504   -3023425.88546  -2236286.96746                  23398968.7504
        14.2504         14.0004
  23368187.0234    3662858.98846   3525624.65346                  23368194.6914
        15.5004         15.5004
  24294351.3524   16031906.08845  12492367.68545                  24294363.8594
         9.7504         10.2504
 00  5  2 15 11 45.0000000  0  7G 2G 7G 8G 4G 9G26G27
  21571811.0164    2156449.07748   1685235.84047                  21571817.6484
        29.5004         27.2504
  20779927.8134    -368995.93148   -241263.45347                  20779933.8364
        31.5004         28.0004
  23213854.2194   14100719.59946  10987559.86846                  23213862.8954
        14.7504         13.7504
  22517253.8914   -6542497.70546  -4955405.54146                  22517261.7114
        19.7504         17.7504
  23392491.2034   -3057429.86446  -2262783.53646                  23392498.6724
        14.5004         14.0004
  23375081.9304    3699092.93546   3553858.86646                  23375089.5394
        15.7504         14.7504
  24307122.2504   16099017.82045  12544662.34745                  24307135.5204
         9.2504         10.0004
 00  5  2 15 12  0.0000000  0  7G 2G 7G 8G 4G 9G26G27
  21575513.1414    2175904.25448   1700395.71247                  21575519.8324
        29.2504         26.2504
  20783976.1094    -347722.99248   -224687.13847                  20783982.1214
        31.5004         27.5004
  23225845.1724   14163731.94046  11036660.32046                  23225853.9064
        15.0004         13.2504
  22510118.1564   -6579995.98046  -4984624.92946                  22510126.2584
        19.7504         17.2504
  23386036.6254   -3091351.14946  -2289215.70146                  23386043.3984
        15.5004         13.2504
  23381998.0554    3735438.79846   3582180.30446                  23382005.4534
        15.2504         14.5004
  24319905.0234   16166190.62345  12597004.58045                  24319918.4454
         9.2504          9.5004
 00  5  2 15 12 15.0000000  0  7G 2G 7G 8G 4G 9G26G27
  21579228.6094    2195427.97548   1715608.99347                  21579235.3244
        29.5004         26.5004
  20788043.6954    -326346.00548   -208029.75047                  20788049.7194
        31.7504         27.2504
  23237850.7974   14226819.98046  11085819.75746                  23237859.4264
        15.0004         13.5004
  22502997.7424   -6617414.75746  -5013782.38746                  22503006.0664
        19.5004         17.2504
  23379596.5554   -3125191.96346  -2315585.16946                  23379603.8244
        15.2504         13.7504
  23388935.3754    3771893.68346   3610586.66846                  23388943.0784
        15.2504         14.5004
  24332699.4454   16233421.70745  12649392.26145                  24332714.3204
         9.0004          8.7504
 00  5  2 15 12 30.0000000  0  7G 2G 7G 8G 4G 9G26G27
  21582956.8204    2215019.65548   1730875.22747                  21582963.4304
        29.5004         26.7504
  20792131.2344    -304865.83748   -191291.96147                  20792137.2584
        31.5004         27.5004
  23249869.7894   14289982.81146  11135037.47946                  23249878.8754
        14.7504         13.5004
  22495892.1644   -6654754.38246  -5042878.15546                  22495899.9024
        19.5004         17.2504
  23373172.1644   -3158952.69046  -2341892.20746                  23373178.9844
        15.2504         14.2504
  23395893.1024    3808456.63046   3639077.24846                  23395900.8874
        15.0004         14.5004
  24345503.0084   16300710.05345  12701824.53845                  24345516.2774
         8.0004          9.2504
 00  5  2 15 12 45.0000000  0  7G 2G 7G 8G 4G 9G26G27
  21586698.3134    2234682.60448   1746197.00147                  21586705.0744
        29.5004         26.7504
  20796239.0164    -283279.52148   -174471.45847                  20796245.1914
        31.5004         27.5004
  23261904.5864   14353223.31746  11184315.70646                  23261913.8594
        15.0004         13.2504
  22488802.3444   -6692011.19147  -5071909.38946                  22488810.2584
        20.0004         17.7504
  23366763.7194   -3192629.90846  -2368134.17346                  23366769.8834
        15.0004         13.5004
  23402872.0554    3845130.51646   3667654.27046                  23402879.8524
        15.2504         14.7504
  24358318.5554   16368058.58644  12754303.72745                  24358332.4104
         7.0004          8.7504
 00  5  2 15 13  0.0000000  0  7G 2G 7G 8G 4G 9G26G27
  21590452.9224    2254413.84748   1761571.98747                  21590459.7074
        29.5004         26.5004
  20800366.3914    -261590.26148   -157570.73647                  20800372.4844
        31.2504         27.2504
  23273953.6414   14416538.37646  11233652.05546                  23273963.0434
        15.2504         13.2504
  22481727.9064   -6729188.05547  -5100878.33646                  22481735.6454
        20.2504         17.2504
  23360370.4844   -3226226.30946  -2394313.18246                  23360377.1524
        15.0004         13.5004
  23409871.3594    3881912.09946   3696315.20746                  23409879.2274
        15.2504         14.2504
  24371146.6954   16435464.00745  12806827.23245                  24371158.3014
         7.5004          8.5004
 00  5  2 15 13 15.0000000  0  7G 2G 7G 8G 4G 9G26G27
  21594221.2814    2274215.51648   1777001.85147                  21594228.1024
        29.0004         26.5004
  20804513.6484    -239796.25748   -140588.39947                  20804519.9304
        31.2504         27.5004
  23286015.8134   14479929.46146  11283047.62346                  23286025.2504
        14.5004         13.5004
  22474668.8364   -6766282.34447  -5129782.93246                  22474676.3634
        20.0004         17.7504
  23353993.1484   -3259739.57346  -2420427.40646                  23354000.0434
        15.5004         14.2504
  23416891.5704    3918802.79746   3725061.18546                  23416899.2854
        15.2504         14.2504
  24383984.3834   16502927.95744  12859396.33245                  24383997.5234
         7.2504          8.5004
 00  5  2 15 13 30.0000000  0  7G 2G 7G 8G 4G 9G26G27
  21598002.2344    2294083.93048   1792483.72447                  21598008.9614
        29.5004         26.2504
  20808679.9694    -217901.43248   -123527.49847                  20808686.1454
        31.0004         27.2504
  23298092.6644   14543392.63146  11332499.36246                  23298101.5044
        14.5004         13.0004
  22467625.1724   -6803297.60347  -5158625.94746                  22467632.6994
        20.0004         17.2504
  23347631.1414   -3293173.16546  -2446479.53846                  23347637.8444
        15.7504         14.2504
  23423931.6174    3955798.74046   3753889.16546                  23423939.6954
        15.0004         14.7504
  24396833.5394   16570446.33245  12912007.82145                  24396846.5044
         7.7504          8.2504
 00  5  2 15 13 45.0000000  0  7G 2G 7G 8G 4G 9G26G27
  21601795.9614    2314021.32348   1808019.34547                  21601802.7344
        29.2504         26.7504
  20812866.2274    -195903.93448   -106386.59047                  20812872.3914
        31.2504         27.7504
  23310183.5554   14606929.88846  11382008.84046                  23310192.2774
        14.7504         13.5004
  22460596.6484   -6840231.27946  -5187405.40046                  22460604.6454
        19.7504         18.0004
  23341284.2424   -3326524.70346  -2472467.74346                  23341291.2424
        15.7504         14.5004
  23430992.0634    3992901.65546   3782800.48946                  23430999.3794
        15.0004         14.5004
  24409691.7974   16638021.02644  12964663.26845                  24409705.7114
         7.0004          8.2504
 00  5  2 15 14  0.0000000  0  7G 2G 7G 8G 4G 9G26G27
  21605603.3754    2334028.31348   1823609.20147                  21605610.1134
        29.5004         26.2504
  20817071.5784    -173803.42548    -89165.41647                  20817077.9654
        30.7504         27.2504
  23322288.4454   14670541.46646  11431576.21646                  23322298.0234
        14.7504         13.5004
  22453584.0704   -6877082.45947  -5216120.56846                  22453592.3484
        20.0004         17.2504
  23334953.5004   -3359793.32346  -2498391.33846                  23334959.7344
        15.5004         14.0004
  23438072.8444    4030111.70146   3811795.30046                  23438081.2504
        15.2504         14.2504
  24422562.4924   16705652.31744  13017362.72245                  24422575.7034
         7.2504          8.0004
 00  5  2 15 14 15.0000000  0  7G 2G 7G 8G 4G 9G26G27
  21609423.4614    2354103.64648   1839252.31247                  21609430.2934
        29.2504         26.0004
  20821296.4224    -151601.42248    -71865.15747                  20821302.7034
        30.5004         27.0004
  23334407.5864   14734225.60446  11481200.13646                  23334416.6374
        15.0004         13.5004
  22446587.0554   -6913852.01947  -5244772.12046                  22446594.5354
        20.2504         17.0004
  23328638.1724   -3392980.02046  -2524251.08446                  23328644.8284
        15.5004         13.7504
  23445173.8054    4067427.35746   3840872.41746                  23445182.0704
        15.0004         14.0004
  24435442.5164   16773338.53744  13070105.04345                  24435458.1644
         7.0004          8.0004
 00  5  2 15 14 30.0000000  0  7G 2G 7G 8G 4G 9G26G27
  21613257.0864    2374248.64248   1854949.71147                  21613263.7194
        29.2504         26.2504
  20825540.7274    -129296.77148    -54484.91047                  20825547.0084
        30.5004         27.2504
  23346540.4144   14797983.39546  11530881.45846                  23346549.2194
        15.0004         13.5004
  22439605.8984   -6950538.28147  -5273358.77046                  22439613.3914
        20.0004         17.5004
  23322339.0164   -3426083.20646  -2550045.77346                  23322345.6844
        15.7504         13.7504
  23452295.1174    4104849.41346   3870032.42646                  23452302.6214
        15.5004         14.0004
  24448333.3444   16841080.63745  13122890.90745                  24448348.8404
         7.5004          7.5004
 00  5  2 15 14 45.0000000  0  7G 2G 7G 8G 4G 9G26G27
  21617103.6564    2394462.34448   1870700.63347                  21617110.2894
        29.0004         26.2504
  20829804.6484    -106890.87148    -37025.76947                  20829810.8364
        30.7504         27.0004
  23358686.2664   14861813.58846  11580619.18546                  23358694.9414
        14.7504         13.5004
  22432640.4614   -6987141.99447  -5301881.10046                  22432648.2344
        20.2504         17.7504
  23316055.4304   -3459103.85946  -2575776.12846                  23316062.5594
        16.0004         14.2504
  23459436.2664    4142376.57046   3899274.33646                  23459443.6174
        15.7504         14.2504
  24461235.8754   16908877.22645  13175719.17945                  24461251.7234
         7.7504          7.7504
 00  5  2 15 15  0.0000000  0  7G 2G 7G 8G 4G 9G26G27
  21620963.3054    2414745.47448   1886505.66147                  21620970.1254
        29.0004         26.2504
  20834087.9224     -84383.17248    -19487.30347                  20834094.0164
        30.7504         27.2504
  23370847.3134   14925716.39446  11630413.51046                  23370856.7624
        14.5004         13.5004
  22425690.8834   -7023662.20047  -5330338.35746                  22425698.4454
        20.5004         17.2504
  23309787.2814   -3492040.87346  -2601441.31946                  23309794.6214
        16.0004         15.0004
  23466597.5314    4180009.08946   3928598.35346                  23466604.6604
        15.7504         14.2504
  24474146.4304   16976728.69145  13228590.24545                  24474159.7344
         7.7504          8.2504
 00  5  2 15 15 15.0000000  0  7G 2G 7G 8G 4G 9G26G27
  21624836.3754    2435098.01048   1902364.77647                  21624843.0784
        29.0004         26.2504
  20838390.2034     -61774.17848     -1869.91047                  20838396.1914
        30.7504         27.2504
  23383020.9694   14989691.45146  11680264.11546                  23383030.3134
        14.7504         13.5004
  22418757.1334   -7060098.66447  -5358730.36846                  22418765.1414
        20.5004         17.5004
  23303535.6484   -3524894.18846  -2627041.28446                  23303542.9534
        16.5004         14.7504
  23473779.0234    4217746.42446   3958004.03346                  23473786.2234
        15.2504         14.0004
  24487069.3204   17044634.51145  13281503.69345                  24487082.8484
         7.5004          8.0004
 00  5  2 15 15 30.0000000  0  7G 2G 7G 8G 4G 9G26G27
  21628722.4144    2455519.80748   1918277.86147                  21628729.2114
        29.0004         26.0004
  20842711.6954     -39064.15248     15826.21147                  20842717.8134
        31.0004         27.2504
  23395208.7274   15053738.32846  11730170.68246                  23395218.2704
        14.7504         13.5004
  22411839.6094   -7096451.18547  -5387056.96346                  22411847.2664
        20.5004         17.5004
  23297299.8204   -3557663.68446  -2652575.95446                  23297306.6804
        16.5004         14.5004
  23480979.4064    4255588.06146   3987490.99546                  23480987.0514
        15.2504         13.7504
  24500001.7504   17112594.24544  13334459.13545                  24500015.4774
         7.2504          6.7504
 00  5  2 15 15 45.0000000  0  7G 2G 7G 8G 4G 9G26G27
  21632621.6724    2476011.27748   1934245.23147                  21632628.4924
        29.2504         26.2504
  20847052.5164     -16252.93248     33601.18247                  20847058.5864
        31.2504         27.5004
  23407410.2194   15117857.21546  11780133.37946                  23407419.3874
        14.0004         13.5004
  22404937.7974   -7132718.84747  -5415317.43446                  22404945.3244
        20.0004         17.5004
  23291080.3754   -3590348.69246  -2678044.77646                  23291087.2464
        17.0004         14.5004
  23488200.7424    4293534.09146   4017059.31246                  23488208.3164
        15.2504         14.0004
  24512944.6954   17180607.99245  13387456.62145                  24512960.2034
         7.5004          7.5004
 00  5  2 15 16  0.0000000  0  7G 2G 7G 8G 4G 9G26G27
  21636534.7504    2496573.76348   1950267.94247                  21636541.4534
        29.5004         26.5004
  20851412.9064       6660.35948     51455.69647                  20851418.9884
        31.0004         27.5004
  23419626.1484   15182048.72346  11830152.64746                  23419634.9534
        14.7504         13.5004
  22398052.8834   -7168900.40047  -5443510.79446                  22398060.4344
        20.2504         17.7504
  23284876.8204   -3622947.68446  -2703446.58646                  23284883.7974
        17.0004         15.0004
  23495441.6954    4331585.34646   4046709.60346                  23495449.0234
        15.0004         13.2504
  24525897.0944   17248676.63245  13440496.94345                  24525911.6884
         7.5004          7.0004
 00  5  2 15 16 15.0000000  0  7G 2G 7G 8G 4G 9G26G27
  21640460.5944    2517204.38148   1966343.73947                  21640467.4884
        29.0004         26.7504
  20855791.8674      29672.65348     69387.35247                  20855797.9614
        30.7504         28.0004
  23431854.1724   15246309.84346  11880226.15146                  23431863.4694
        14.2504         13.5004
  22391183.5084   -7204998.15947  -5471638.87046                  22391191.0474
        20.0004         17.7504
  23278689.4384   -3655463.38646  -2728783.47546                  23278696.1174
        17.2504         15.5004
  23502702.1484    4369738.55846   4076439.34546                  23502709.7814
        15.2504         14.0004
  24538860.7974   17316796.86145  13493577.46645                  24538871.3364
         7.7504          7.0004
 00  5  2 15 16 30.0000000  0  7G 2G 7G 8G 4G 9G26G27
  21644399.6094    2537904.28748   1982473.52847                  21644406.3484
        29.2504         26.5004
  20860189.9064      52784.72948     87396.75947                  20860195.8714
        30.7504         27.5004
  23444096.2584   15310641.32946  11930354.49846                  23444105.7774
        14.2504         13.5004
  22384330.5234   -7241010.76947  -5499700.58946                  22384338.2624
        20.0004         18.0004
  23272518.0164   -3687894.43346  -2754054.40646                  23272524.7074
        16.7504         15.5004
  23509981.9454    4407994.35546   4106249.04546                  23509989.5904
        15.0004         13.7504
  24551833.5084   17384969.51144  13546698.84045                  24551846.8714
         7.2504          7.5004
 00  5  2 15 16 45.0000000  0  7G 2G 7G 8G 4G 9G26G27
  21648351.8364    2558673.06148   1998656.97847                  21648358.6094
        28.7504         26.0004
  20864606.8674      75995.91548    105483.39147                  20864612.8794
        30.5004         27.2504
  23456351.3364   15375042.29846  11980536.98546                  23456361.3484
        13.5004         13.0004
  22377493.8594   -7276938.41947  -5527696.12146                  22377501.5744
        20.2504         17.5004
  23266362.5944   -3720240.99446  -2779259.49746                  23266369.6644
        16.7504         15.0004
  23517281.5164    4446351.97746   4136138.06746                  23517289.8524
        14.5004         13.2504
  24564816.1174   17453193.62744  13599860.29945                  24564831.4734
         6.7504          7.0004
 00  5  2 15 17  0.0000000  0  7G 2G 7G 8G 4G 9G26G27
  21652317.4384    2579512.19548   2014895.25347                  21652324.1994
        28.5004         26.0004
  20869042.9844      99307.42448    123648.20247                  20869049.0784
        30.5004         27.2504
  23468620.0004   15439513.96646  12030774.55546                  23468629.9414
        13.2504         13.2504
  22370673.3054   -7312779.21647  -5555623.96046                  22370681.3714
        20.2504         17.7504
  23260223.5394   -3752501.45246  -2804397.51646                  23260230.2424
        17.0004         15.0004
  23524599.5394    4484812.41946   4166107.20846                  23524606.8554
        14.5004         13.5004
  24577809.9534   17521470.39445  13653062.71645                  24577822.9184
         8.0004          7.0004
 00  5  2 15 17 15.0000000  0  7G 2G 7G 8G 4G 9G26G27
  21656295.9384    2600419.13048   2031186.36047                  21656302.7584
        28.7504         26.0004
  20873497.5394     122716.30748    141888.89147                  20873503.5634
        30.2504         27.5004
  23480901.6644   15504053.39146  12081064.92046                  23480911.7704
        13.2504         13.0004
  22363869.2664   -7348535.54947  -5583485.98946                  22363877.0044
        20.0004         18.0004
  23254100.3834   -3784678.12546  -2829470.24746                  23254107.3484
        17.0004         15.0004
  23531937.8284    4523372.69346   4196154.16146                  23531946.0704
        14.5004         13.5004
  24590811.5944   17589796.80745  13706303.89945                  24590824.5824
         7.5004          6.7504
 00  5  2 15 17 30.0000000  0  7G 2G 7G 8G 4G 9G26G27
  21660287.7814    2621396.06048   2047532.01147                  21660294.3674
        28.7504         26.2504
  20877971.0084     146224.61648    160207.04647                  20877977.1844
        30.2504         27.2504
  23493195.7974   15568662.54446  12131409.62746                  23493204.9534
        12.7504         12.5004
  22357081.3914   -7384204.78847  -5611280.15146                  22357089.2934
        20.0004         18.2504
  23247993.7894   -3816768.57246  -2854475.78646                  23248001.4104
        16.7504         15.2504
  23539295.1644    4562034.71446   4226280.36946                  23539302.0594
        14.5004         13.2504
  24603823.1644   17658174.78845  13759585.22945                  24603837.5944
         7.5004          7.5004
 00  5  2 15 17 45.0000000  0  7G 2G 7G 8G 4G 9G26G27
  21664292.8914    2642443.74648   2063932.79347                  21664299.6054
        29.0004         26.5004
  20882463.4144     169832.71048    178602.96247                  20882469.5314
        30.5004         28.0004
  23505503.9454   15633341.61446  12181808.81046                  23505512.9384
        13.0004         13.0004
  22350310.7894   -7419786.05347  -5639005.76346                  22350318.5864
        20.5004         18.5004
  23241903.9774   -3848771.86946  -2879413.38946                  23241910.6564
        16.2504         15.7504
  23546671.6174    4600798.64546   4256485.99846                  23546679.8714
        14.2504         13.7504
  24616845.6174   17726604.67145  13812907.01545                  24616858.7584
         8.7504          7.7504
 00  5  2 15 18  0.0000000  0  7G 2G 7G 8G 4G 9G26G27
  21668311.2894    2663560.42448   2080387.34247                  21668317.7704
        29.0004         26.7504
  20886974.5944     193538.57248    197075.05547                  20886980.6524
        30.5004         28.2504
  23517824.9614   15698088.53446  12232260.84746                  23517835.1254
        12.7504         12.7504
  22343556.3364   -7455280.66547  -5666663.85246                  22343564.0164
        20.2504         18.7504
  23235830.1724   -3880689.57046  -2904284.30146                  23235836.9224
        17.5004         16.0004
  23554067.1024    4639662.29946   4286769.32846                  23554074.7704
        14.0004         13.7504
  24629876.8284   17795084.24645  13866267.55745                  24629891.2584
         8.5004          7.7504
 00  5  2 15 18 15.0000000  0  7G 2G 7G 8G 4G 9G26G27
  21672342.9454    2684747.50648   2096896.74747                  21672349.5314
        29.0004         26.7504
  20891504.4144     217343.26748    215624.16647                  20891510.6024
        30.5004         28.0004
  23530159.2664   15762904.41946  12282766.65746                  23530168.5634
        12.7504         12.5004
  22336818.2424   -7490687.01647  -5694253.16846                  22336826.1214
        20.5004         19.2504
  23229772.8984   -3912520.05046  -2929087.27446                  23229780.0274
        16.7504         15.7504
  23561481.3674    4678626.72346   4317131.21146                  23561488.9534
        14.5004         13.7504
  24642918.4224   17863614.50745  13919667.54145                  24642931.5394
         8.7504          8.0004
 00  5  2 15 18 30.0000000  0  6G 2G 7G 8G 4G 9G26
  21676388.0554    2706003.96348   2113460.21547                  21676394.5124
        29.5004         26.5004
  20896052.7734     241245.52148    234249.29547                  20896059.0554
        30.2504         28.2504
  23542506.0944   15827787.79046  12333325.04346                  23542516.0354
        12.5004         12.7504
  22330097.5474   -7526005.78947  -5721774.24346                  22330105.1804
        21.0004         19.2504
  23223732.2664   -3944264.22046  -2953822.97246                  23223738.8404
        16.7504         15.7504
  23568915.0864    4717690.47446   4347570.46046                  23568923.1174
        14.0004         13.7504
 00  5  2 15 18 45.0000000  0  6G 2G 7G 8G 4G 9G26
  21680446.3984    2727330.04348   2130077.92947                  21680452.9494
        29.5004         27.2504
  20900619.7974     265245.28148    252950.40147                  20900625.9734
        30.7504         29.0004
  23554865.1334   15892738.52346  12383935.90146                  23554874.5354
        12.2504         12.7504
  22323393.3914   -7561236.53947  -5749226.71746                  22323400.9534
        21.0004         19.7504
  23217707.9224   -3975921.53446  -2978491.00646                  23217715.2854
        16.2504         15.7504
  23576367.5084    4756853.34046   4378086.94946                  23576375.2114
        14.0004         14.2504
 00  5  2 15 19  0.0000000  0  6G 2G 7G 8G 4G 9G26
  21684518.0634    2748727.43348   2146751.20647                  21684524.4844
        29.0004         27.5004
  20905205.7114     289343.88248    271728.52847                  20905211.7934
        30.7504         29.0004
  23567238.3674   15957758.01846  12434600.33846                  23567248.9774
        12.2504         12.5004
  22316706.1724   -7596377.20647  -5776609.00946                  22316713.8054
        21.0004         19.7504
  23211700.3444   -4007490.03446  -3003089.82046                  23211707.1884
        16.2504         16.2504
  23583838.7814    4796116.52846   4408681.62246                  23583846.7894
        13.5004         13.7504
 00  5  2 15 19 15.0000000  0  6G 2G 7G 8G 4G 9G26
  21688602.8054    2770193.28748   2163477.83847                  21688609.4494
        29.0004         27.2504
  20909809.7734     313538.22248    290581.25447                  20909815.7624
        30.7504         29.0004
  23579624.9304   16022843.11846  12485315.90646                  23579634.7664
        12.2504         12.2504
  22310035.7584   -7631430.31447  -5803923.07446                  22310043.6024
        20.7504         19.7504
  23205709.6724   -4038972.37546  -3027621.50846                  23205716.5164
        17.0004         16.2504
  23591329.0864    4835476.85446   4439351.95846                  23591337.1884
        13.7504         14.2504
 00  5  2 15 19 30.0000000  0  6G 2G 7G 8G 4G 9G26
  21692700.9774    2791729.60748   2180259.38047                  21692707.7274
        28.7504         27.2504
  20914432.3364     337830.00848    309509.91347                  20914438.4414
        30.7504         29.2504
  23592022.5554   16087995.38146  12536083.81346                  23592032.5314
        12.7504         12.7504
  22303382.5394   -7666393.58147  -5831167.12646                  22303390.3014
        20.7504         20.0004
  23199735.5944   -4070366.42346  -3052084.37646                  23199742.6884
        16.7504         16.0004
  23598838.2114    4874935.79346   4470099.15746                  23598845.3874
        14.2504         13.7504
 00  5  2 15 19 45.0000000  0  6G 2G 7G 8G 4G 9G26
  21696812.9304    2813336.65548   2197096.02947                  21696819.5274
        28.7504         27.5004
  20919073.3834     362219.26648    328514.52147                  20919079.5004
        30.7504         29.5004
  23604433.2114   16153214.63746  12586903.91346                  23604443.2464
        12.7504         13.0004
  22296746.2894   -7701266.51247  -5858340.78846                  22296753.7114
        21.0004         20.0004
  23193778.2194   -4101671.75546  -3076478.13446                  23193785.1134
        16.2504         15.5004
  23606365.5084    4914493.27546   4500923.11946                  23606372.8014
        14.0004         14.2504
 00  5  2 15 20  0.0000000  0  6G 2G 7G 8G 4G 9G26
  21700938.4144    2835017.41948   2213990.12247                  21700945.0594
        29.0004         26.5004
  20923733.5164     386708.64548    347597.15047                  20923739.5744
        31.0004         28.5004
  23616857.5234   16218503.53046  12637778.26746                  23616867.1134
        13.0004         12.0004
  22290127.8984   -7736045.86847  -5885441.53646                  22290135.2274
        21.2504         19.5004
  23187838.8054   -4132885.10846  -3100800.22146                  23187845.5554
        16.5004         15.7504
  23613912.6564    4954151.75746   4531825.81446                  23613920.8754
        14.2504         14.0004
 00  5  2 15 20 15.0000000  0  6G 2G 7G 8G 4G 9G26
  21705077.9454    2856770.16448   2230940.30947                  21705084.5904
        29.2504         25.7504
  20928412.6094     411296.00048    366756.12747                  20928418.6804
        30.7504         28.0004
  23629294.0474   16283860.03746  12688705.32745                  23629304.5744
        13.0004         11.5004
  22283527.2274   -7770733.04347  -5912470.45646                  22283534.9654
        21.2504         19.2504
  23181916.3754   -4164008.00546  -3125051.82546                  23181922.9264
        17.0004         15.5004
  23621478.3674    4993909.09746   4562805.53646                  23621486.2584
        14.7504         13.5004
 00  5  2 15 20 30.0000000  0  6G 2G 7G 8G 4G 9G26
  21709231.1254    2878596.18748   2247947.59246                  21709237.6054
        29.2504         24.7504
  20933110.1334     435982.43548    385992.30447                  20933116.2274
        31.0004         27.0004
  23641744.3444   16349284.91646  12739685.65045                  23641753.5594
        13.2504         11.2504
  22276944.3834   -7805326.46147  -5939426.32646                  22276952.2154
        21.5004         18.7504
  23176010.9614   -4195039.02046  -3149231.81846                  23176018.0664
        16.7504         15.2504
  23629062.5634    5033766.19746   4593862.97846                  23629070.4184
        14.5004         13.0004
 00  5  2 15 20 45.0000000  0  6G 2G 7G 8G 4G 9G26
  21713398.2504    2900492.93648   2265009.99546                  21713404.6254
        29.5004         25.0004
  20937826.0944     460765.05948    405303.43647                  20937832.0824
        30.7504         27.2504
  23654207.4384   16414775.46846  12790717.14745                  23654216.8984
        12.5004         11.2504
  22270378.7194   -7839828.38947  -5966310.90046                  22270386.3054
        21.2504         18.7504
  23170123.2344   -4225980.45746  -3173342.01846                  23170130.4574
        16.2504         15.0004
  23636665.5314    5073719.95446   4624995.74746                  23636672.8954
        14.5004         13.2504
 00  5  2 15 21  0.0000000  0  6G 2G 7G 8G 4G 9G26
  21717578.4304    2922460.33148   2282127.42546                  21717584.8524
        29.5004         25.0004
  20942560.3834     485643.48048    424689.21847                  20942566.4774
        31.0004         27.0004
  23666681.7974   16480330.98746  12841799.26945                  23666691.2934
        12.7504         11.0004
  22263830.7114   -7874238.67447  -5993124.06546                  22263838.5314
        22.0004         19.0004
  23164252.3204   -4256832.28146  -3197382.38146                  23164258.6374
        16.7504         15.0004
  23644287.1724    5113769.93446   4656203.49146                  23644294.9344
        14.7504         13.0004
 00  5  2 15 21 15.0000000  0  6G 2G 7G 8G 4G 9G26
  21721771.8754    2944497.67648   2299299.37846                  21721778.4734
        29.5004         25.0004
  20947312.6414     510616.71048    444148.87147                  20947318.9924
        30.7504         27.2504
  23679169.0634   16545950.64946  12892931.36945                  23679179.2854
        13.0004         11.0004
  22257299.9694   -7908557.67647  -6019866.09646                  22257307.5204
        22.2504         19.0004
  23158398.2734   -4287594.97846  -3221353.30746                  23158405.2384
        17.0004         14.7504
  23651926.3984    5153914.97446   4687485.30546                  23651934.1604
        14.7504         12.7504
 00  5  2 15 21 30.0000000  0  6G 2G 7G 8G 4G 9G26
  21725978.7734    2966604.81548   2316525.70946                  21725985.1844
        29.0004         25.0004
  20952082.7974     535684.31348    463682.06347                  20952089.1374
        30.5004         27.0004
  23691667.9774   16611633.83446  12944112.98145                  23691677.3674
        13.0004         11.2504
  22250786.8284   -7942785.19847  -6046536.85446                  22250794.5434
        22.2504         19.0004
  23152561.1954   -4318268.34846  -3245254.63946                  23152567.6174
        17.5004         15.2504
  23659583.6724    5194154.47846   4718840.73746                  23659590.8014
        14.7504         13.0004
 00  5  2 15 21 45.0010000  0  6G 2G 7G 8G 4G 9G26
  21730198.8254    2988780.70048   2333805.61246                  21730205.2714
        29.0004         24.7504
  20956870.5834     560845.14848    483287.90747                  20956876.9234
        30.7504         27.2504
  23704179.5134   16677381.92946  12995345.15345                  23704188.9034
        13.2504         11.7504
  22244289.6774   -7976925.86547  -6073139.91746                  22244297.1924
        22.7504         19.2504
  23146740.6534   -4348856.79246  -3269089.76846                  23146748.0404
        17.5004         15.2504
  23667258.7634    5234488.22446   4750269.59046                  23667265.1854
        14.7504         13.0004
 00  5  2 15 22  0.0010000  0  6G 2G 7G 8G 4G 9G26
  21734431.8804    3011025.50148   2351139.21246                  21734438.1614
        29.2504         24.7504
  20961676.2784     586098.71048    502966.00347                  20961682.6064
        30.5004         27.2504
  23716702.4584   16743189.05146  13046623.32945                  23716711.3104
        12.7504         11.2504
  22237810.8254   -8010971.79247  -6099669.17546                  22237818.3534
        22.2504         19.2504
  23140937.0604   -4379352.95846  -3292853.01746                  23140944.1064
        16.7504         15.5004
  23674951.4354    5274913.49046   4781769.76846                  23674958.8684
        14.2504         13.0004
 00  5  2 15 22 15.0010000  0  6G 2G 7G 8G 4G 9G26
  21738678.4504    3033340.94948   2368527.86146                  21738684.8844
        29.2504         24.7504
  20966499.8564     611446.59348    522717.59847                  20966506.1964
        30.5004         27.2504
  23729237.0364   16809059.46946  13097950.83545                  23729247.3994
        12.7504         10.7504
  22231349.9814   -8044924.52447  -6126125.81046                  22231357.6614
        22.2504         19.5004
  23135151.5444   -4409758.41446  -3316545.56146                  23135158.4854
        17.5004         15.2504
  23682662.0524    5315432.86346   4813343.26946                  23682669.2634
        14.0004         13.0004
 00  5  2 15 22 30.0010000  0  6G 2G 7G 8G 4G 9G26
  21742937.9974    3055726.05848   2385970.80146                  21742944.4664
        29.5004         24.7504
  20971341.0834     636887.53248    542541.70047                  20971347.5524
        30.5004         27.0004
  23741784.2084   16874991.74346  13149326.52845                  23741793.4704
        13.0004         11.0004
  22224906.3024   -8078784.84347  -6152510.42046                  22224913.7944
        22.2504         19.2504
  23129382.3564   -4440073.90146  -3340168.00746                  23129389.1774
        17.7504         15.2504
  23690390.5284    5356044.76646   4844988.86546                  23690398.0094
        14.0004         12.7504
 00  5  2 15 22 45.0010000  0  6G 2G 7G 8G 4G 9G26
  21747211.0834    3078181.07648   2403468.21146                  21747217.5054
        29.5004         24.7504
  20976199.9744     662421.42447    562438.23447                  20976206.2554
        26.2504         28.0004
  23754342.1854   16940985.88746  13200750.41745                  23754350.9194
        12.2504         10.7504
  22218481.0994   -8112552.17747  -6178822.59946                  22218488.9424
        22.7504         19.5004
  23123630.8804   -4470298.96446  -3363720.00346                  23123637.4894
        17.5004         15.2504
  23698136.2244    5396749.11946   4876706.52446                  23698143.6694
        14.0004         12.5004
 00  5  2 15 23  0.0010000  0  6G 2G 7G 8G 4G 9G26
  21751497.4424    3100706.09448   2421020.16846                  21751503.8884
        29.0004         24.7504
  20981076.7634     688048.31448    582407.23147                  20981082.9274
        30.7504         27.2504
  23766911.9814   17007041.56845  13252222.28645                  23766920.5174
        11.5004         11.2504
  22212073.1384   -8146226.19747  -6205062.05046                  22212080.6884
        22.5004         19.2504
  23117896.3884   -4500433.27946  -3387201.28446                  23117902.9624
        17.2504         15.2504
  23705899.5364    5437545.46846   4908495.85946                  23705906.5834
        13.7504         12.7504
 00  5  2 15 23 15.0010000  0  6G 2G 7G 8G 4G 9G26
  21755797.2084    3123300.62048   2438626.28046                  21755803.7594
        29.2504         24.7504
  20985970.8104     713767.10748    602447.84647                  20985976.9274
        31.0004         27.0004
  23779494.4194   17073157.90745  13303741.40345                  23779503.3294
        11.7504         11.2504
  22205682.7004   -8179807.13347  -6231228.97146                  22205690.2284
        22.2504         19.5004
  23112179.3414   -4530477.29246  -3410612.18346                  23112186.3764
        18.2504         15.7504
  23713679.7314    5478432.87746   4940356.12846                  23713688.2784
        14.0004         12.2504
 00  5  2 15 23 30.0010000  0  6G 2G 7G 8G 4G 9G26
  21760109.4354    3145962.26648   2456284.70046                  21760115.9744
        29.2504         24.7504
  20990882.0054     739575.13348    622557.98347                  20990888.2514
        31.2504         27.0004
  23792086.5994   17139332.02545  13355305.54445                  23792095.1224
        11.5004         11.0004
  22199309.4894   -8213297.06447  -6257324.98646                  22199316.8064
        22.2504         19.5004
  23106478.9974   -4560433.14446  -3433954.39946                  23106486.0094
        18.5004         16.0004
  23721477.3564    5519408.68546   4972285.30146                  23721484.6734
        13.7504         12.5004
 00  5  2 15 23 45.0010000  0  6G 2G 7G 8G 4G 9G26
  21764434.8964    3168692.90848   2473996.87946                  21764441.2594
        28.7504         24.7504
  20995810.4274     765474.11948    642738.96447                  20995816.5674
        30.5004         26.5004
  23804690.4424   17205565.69345  13406916.06145                  23804699.9034
        11.5004         11.0004
  22192954.3494   -8246693.77747  -6283348.35646                  22192961.6654
        22.2504         19.2504
  23100795.5444   -4590298.65446  -3457226.21646                  23100802.5674
        18.5004         16.0004
  23729292.0284    5560474.15746   5004284.31846                  23729300.0714
        13.5004         12.2504
 00  5  2 15 24  0.0010000  0  6G 2G 7G 8G 4G 9G26
  21768773.6384    3191492.26648   2491762.60646                  21768779.9544
        28.7504         24.7504
  21000755.8254     791463.39948    662990.39547                  21000762.0244
        31.2504         27.2504
  23817306.1384   17271857.98746  13458572.28545                  23817316.3134
        12.2504         11.2504
  22186616.9114   -8279997.39447  -6309299.19146                  22186624.5444
        22.7504         19.2504
  23095129.8174   -4620073.99546  -3480427.77846                  23095136.5324
        18.0004         16.0004
  23737123.6144    5601628.61346   5036352.69846                  23737131.8804
        13.7504         13.0004
 00  5  2 15 24 15.0010000  0  6G 2G 7G 8G 4G 9G26
  21773125.6064    3214362.40748   2509583.48946                  21773132.1344
        29.0004         24.7504
  21005719.0524     817544.78048    683313.53847                  21005725.1814
        31.2504         27.2504
  23829932.3334   17338210.78245  13510275.65345                  23829943.3534
        11.7504         11.5004
  22180297.4584   -8313205.49247  -6335175.58346                  22180304.7864
        22.2504         19.7504
  23089481.0284   -4649756.81846  -3503557.23446                  23089488.3454
        18.2504         15.7504
  23744972.2394    5642873.70946   5068491.68846                  23744980.1424
        13.7504         12.2504
 00  5  2 15 24 30.0010000  0  6G 2G 7G 8G 4G 9G26
  21777490.4034    3237300.01448   2527456.94046                  21777496.7434
        29.0004         24.7504
  21010699.1774     843714.55448    703705.56547                  21010705.2004
        31.5004         27.0004
  23842569.1384   17404620.34846  13562023.23545                  23842579.7594
        12.2504         11.5004
  22173996.0994   -8346321.04447  -6360979.87346                  22174003.4974
        22.2504         19.5004
  23083849.5604   -4679350.24546  -3526617.04646                  23083856.6304
        18.7504         16.2504
  23752837.4814    5684205.68946   5100698.38946                  23752845.4894
        14.2504         13.0004
 00  5  2 15 24 45.0010000  0  6G 2G 7G 8G 4G 9G26
  21781868.8964    3260307.99648   2545385.22746                  21781875.3414
        29.0004         24.7504
  21015696.3414     869975.46248    724168.59647                  21015702.4934
        31.5004         27.2504
  23855218.2864   17471089.20746  13613817.05145                  23855228.4624
        12.2504         11.7504
  22167712.1854   -8379340.89547  -6386709.58546                  22167719.8994
        22.2504         19.5004
  23078235.9354   -4708851.03846  -3549604.66546                  23078243.0634
        18.2504         15.7504
  23760720.1144    5725627.03946   5132974.73446                  23760728.2864
        14.5004         12.7504
 00  5  2 15 25  0.0010000  0  6G 2G 7G 8G 4G 9G26
  21786260.2944    3283385.67348   2563367.81946                  21786266.7744
        29.0004         24.7504
  21020710.8254     896326.46048    744701.84147                  21020716.9544
        31.2504         27.2504
  23867877.9424   17537616.36845  13665656.28045                  23867887.8374
        11.7504         11.0004
  22161447.1694   -8412265.51647  -6412365.09546                  22161455.0484
        22.2504         19.5004
  23072639.3804   -4738259.83946  -3572520.60946                  23072646.5674
        18.5004         16.2504
  23768618.6774    5767136.52346   5165319.74746                  23768625.8994
        14.2504         13.0004
 00  5  2 15 25 15.0010000  0  6G 2G 7G 8G 4G 9G26
  21790665.0834    3306532.56548   2581404.34646                  21790671.6104
        28.7504         24.7504
  21025742.0284     922766.68548    765304.60447                  21025748.1104
        31.5004         27.2504
  23880549.0214   17604200.81345  13717540.12945                  23880558.8214
        11.5004         11.2504
  22155199.4504   -8445095.07647  -6437946.52546                  22155207.0244
        22.2504         20.0004
  23067060.6384   -4767576.91646  -3595365.06846                  23067067.8964
        18.2504         16.0004
  23776534.5524    5808733.32046   5197732.80146                  23776541.8334
        14.7504         13.0004
 00  5  2 15 25 30.0010000  0  6G 2G 7G 8G 4G 9G26
  21795082.8644    3329747.84248   2599494.16746                  21795089.3104
        28.7504         24.7504
  21030790.3964     949295.06048    785976.05847                  21030796.6064
        31.0004         27.0004
  23893230.0524   17670841.34145  13769467.71045                  23893240.4974
        11.7504         11.5004
  22148970.5834   -8477830.07047  -6463454.28046                  22148978.5564
        22.2504         19.7504
  23061499.0134   -4796802.90246  -3618138.56646                  23061505.7164
        18.2504         16.0004
  23784466.7474    5850416.09046   5230212.84546                  23784474.1104
        14.5004         13.5004
 00  5  2 15 25 45.0010000  0  6G 2G 7G 8G 4G 9G26
  21799513.7554    3353032.61948   2617638.13346                  21799520.2244
        28.5004         24.7504
  21035855.4504     975912.51748    806716.92947                  21035861.6854
        30.7504         27.2504
  23905922.4424   17737538.95145  13821439.73045                  23905934.0714
        11.5004         11.5004
  22142759.1144   -8510469.22747  -6488887.34046                  22142766.5714
        22.2504         19.7504
  23055955.3494   -4825936.46346  -3640840.04546                  23055961.9584
        18.2504         16.0004
  23792414.8804    5892185.54746   5262760.43946                  23792422.5834
        14.5004         13.2504
 00  5  2 15 26  0.0010000  0  6G 2G 7G 8G 4G 9G26
  21803957.6924    3376385.86348   2635835.45646                  21803964.3134
        28.7504         24.7504
  21040937.0134    1002617.59148    827526.07347                  21040943.0954
        30.7504         27.2504
  23918624.7244   17804292.00845  13873454.98545                  23918635.2394
        11.2504         11.2504
  22136566.5674   -8543013.24247  -6514246.28146                  22136573.9544
        23.0004         19.5004
  23050428.6614   -4854978.46746  -3663470.15046                  23050435.4584
        18.0004         15.7504
  23800379.6534    5934040.15846   5295374.38546                  23800386.8644
        14.5004         13.2504
 00  5  2 15 26 15.0010000  0  6G 2G 7G 8G 4G 9G26
  21808414.5054    3399806.83448   2654085.54946                  21808421.2204
        28.2504         24.5004
  21046035.6854    1029409.33548    848402.75047                  21046041.7904
        30.7504         27.2504
  23931338.7634   17871099.43945  13925512.59545                  23931349.7124
        11.7504         11.2504
  22130391.4814   -8575462.50647  -6539531.38446                  22130398.9744
        23.0004         20.0004
  23044919.0524   -4883929.42246  -3686029.33146                  23044926.6494
        17.7504         16.2504
  23808360.7944    5975978.79146   5328053.80046                  23808368.3924
        14.5004         13.0004
 00  5  2 15 26 30.0010000  0  6G 2G 7G 8G 4G 9G26
  21812884.1534    3423294.74448   2672387.81046                  21812890.8684
        28.7504         24.7504
  21051150.0284    1056286.57648    869346.05047                  21051156.3924
        30.7504         27.2504
  23944060.9274   17937960.09445  13977611.69045                  23944071.7594
        11.7504         11.2504
  22124234.2944   -8607817.57747  -6564743.08246                  22124241.4934
        23.0004         19.7504
  23039427.3884   -4912789.83546  -3708517.95246                  23039434.4934
        18.2504         16.5004
  23816357.1534    6018000.17746   5360797.69646                  23816364.9974
        14.5004         13.0004
 00  5  2 15 26 45.0010000  0  6G 2G 7G 8G 4G 9G26
  21817366.6224    3446849.72548   2690742.32846                  21817373.2204
        28.7504         24.7504
  21056280.9974    1083249.12048    890355.81947                  21056287.3254
        30.7504         27.5004
  23956794.5214   18004873.77045  14029752.10245                  23956805.4354
        11.7504         11.5004
  22118095.4504   -8640078.14647  -6589881.15446                  22118102.4504
        23.2504         19.7504
  23033952.6774   -4941559.38846  -3730935.78346                  23033959.9464
        18.2504         16.0004
  23824368.8334    6060104.02846   5393605.85846                  23824376.6304
        14.5004         13.2504
 00  5  2 15 27  0.0010000  0  6G 2G 7G 8G 4G 9G26
  21821861.9424    3470473.16248   2709150.18746                  21821868.5634
        28.7504         24.7504
  21061428.1464    1110298.11548    911432.95447                  21061434.4974
        30.7504         27.5004
  23969538.4974   18071841.47146  14081934.60145                  23969548.9194
        12.0004         11.0004
  22111975.0284   -8672242.35147  -6614944.13546                  22111982.4624
        23.2504         20.0004
  23028495.3804   -4970236.60646  -3753281.65546                  23028502.4274
        18.0004         16.0004
  23832397.0214    6102291.24546   5426478.98046                  23832405.0994
        14.0004         12.7504
 00  5  2 15 27 15.0010000  0  6G 2G 7G 8G 4G 9G26
  21826370.8334    3494168.27048   2727613.89846                  21826377.5484
        28.7504         24.7504
  21066592.5674    1137436.46648    932579.71147                  21066598.7904
        31.0004         27.5004
  23982292.7864   18138865.98445  14134161.36045                  23982303.4074
        11.7504         11.2504
  22105873.0754   -8704306.82547  -6639929.40146                  22105880.2864
        23.2504         20.0004
  23023056.8884   -4998818.06646  -3775552.91246                  23023063.4744
        18.2504         16.0004
  23840441.4974    6144564.52846   5459419.14546                  23840449.9274
        14.2504         13.0004
 00  5  2 15 27 30.0010000  0  6G 2G 7G 8G 4G 9G26
  21830892.9664    3517931.89648   2746130.99546                  21830899.5054
        28.5004         24.7504
  21071773.0524    1164660.67148    953793.36747                  21071779.3104
        30.7504         27.5004
  23995057.8174   18205943.76346  14186429.63245                  23995068.9784
        12.5004         11.0004
  22099789.7634   -8736274.45247  -6664839.20446                  22099796.8334
        23.5004         20.2504
  23017635.6774   -5027306.71546  -3797751.85846                  23017642.2864
        18.5004         16.2504
  23848501.4424    6186920.41646   5492423.70146                  23848509.4384
        14.2504         13.5004
 00  5  2 15 27 45.0010000  0  6G 2G 7G 8G 4G 9G26
  21835427.8254    3541762.96048   2764700.63146                  21835434.6344
        28.5004         25.5004
  21076969.6534    1191969.34848    975072.84547                  21076976.0404
        30.7504         28.2504
  24007831.5914   18273073.54946  14238738.42045                  24007842.6104
        12.0004         11.5004
  22093724.9744   -8768145.93247  -6689674.08946                  22093732.1264
        23.5004         20.7504
  23012231.8644   -5055703.24546  -3819879.01746                  23012238.6494
        18.2504         16.5004
  23856576.9974    6229357.37246   5525491.41546                  23856585.1104
        13.7504         13.5004
 00  5  2 15 28  0.0010000  0  6G 2G 7G 8G 4G 9G26
  21839976.1924    3565663.70448   2783324.57346                  21839983.1574
        29.0004         25.0004
  21082183.0134    1219364.52248    996419.72947                  21082189.2714
        31.0004         28.0004
  24020616.8174   18340257.00845  14291089.06945                  24020627.1464
        11.7504         10.7504
  22087678.7784   -8799918.87347  -6714432.18846                  22087685.7784
        24.0004         20.5004
  23006846.1774   -5084005.31446  -3841932.56946                  23006853.1304
        18.0004         16.2504
  23864668.2004    6271877.09846   5558623.62446                  23864675.7744
        14.2504         13.2504
 00  5  2 15 28 15.0010000  0  6G 2G 7G 8G 4G 9G26
  21844537.4744    3589632.93548   2802001.88046                  21844544.1424
        28.7504         24.7504
  21087412.1694    1246844.62648   1017832.78747                  21087418.3454
        31.5004         27.2504
  24033411.9814   18407492.65446  14343480.33845                  24033422.5444
        12.2504         10.5004
  22081651.3104   -8831594.08547  -6739114.13946                  22081658.7434
        24.2504         20.2504
  23001478.4114   -5112213.93346  -3863913.30146                  23001485.0794
        18.5004         16.0004
  23872774.7944    6314477.98846   5591819.09246                  23872783.2124
        13.5004         12.7504
 00  5  2 15 28 30.0010000  0  6G 2G 7G 8G 4G 9G26
  21849111.2944    3613668.88048   2820731.16946                  21849117.9974
        28.7504         24.7504
  21092657.2634    1274407.63848   1039310.45247                  21092663.3924
        31.2504         27.0004
  24046215.1064   18474778.29745  14395910.58545                  24046225.4114
        11.7504         10.5004
  22075641.7474   -8863173.15847  -6763721.17546                  22075649.1694
        24.2504         20.5004
  22996127.9354   -5140330.61846  -3885822.40446                  22996134.7314
        18.7504         16.0004
  23880896.6614    6357157.79346   5625076.02846                  23880904.8104
        13.7504         12.2504
 00  5  2 15 28 45.0010000  0  6G 2G 7G 8G 4G 9G26
  21853698.4584    3637775.09248   2839515.21346                  21853705.0324
        28.5004         24.5004
  21097918.6774    1302056.73548   1060855.19147                  21097924.7354
        31.2504         27.2504
  24059030.2944   18542117.21145  14448382.33745                  24059040.8804
        11.2504          9.7504
  22069651.5914   -8894652.20147  -6788250.26946                  22069658.4744
        24.5004         20.2504
  22990795.6464   -5168351.70946  -3907657.01946                  22990802.4664
        18.7504         16.2504
  23889033.9504    6399919.67846   5658396.95746                  23889042.6614
        13.7504         12.2504
 00  5  2 15 29  0.0010000  0  6G 2G 7G 8G 4G 9G26
  21858299.0214    3661950.63848   2858353.28546                  21858305.8534
        28.2504         24.5004
  21103196.3964    1329790.81248   1082466.15747                  21103202.4894
        31.5004         27.0004
  24071854.2164   18609507.98746  14500894.48445                  24071863.6654
        12.5004          9.7504
  22063680.1854   -8926031.93847  -6812701.97146                  22063687.3254
        24.7504         20.5004
  22985481.3644   -5196277.87946  -3929417.65746                  22985488.1264
        19.5004         16.2504
  23897186.5834    6442762.28346   5691780.75046                  23897194.5324
        13.0004         12.5004
 00  5  2 15 29 15.0010000  0  6G 2G 7G 8G 4G 9G26
  21862912.9424    3686196.73448   2877246.32846                  21862919.6574
        29.0004         25.0004
  21108490.3104    1357610.68348   1104143.96847                  21108496.5674
        31.0004         27.7504
  24084686.9974   18676951.40945  14553447.69145                  24084697.5604
        11.5004         10.5004
  22057728.1534   -8957310.81847  -6837075.09146                  22057735.2004
        24.7504         21.0004
  22980185.5834   -5224107.71046  -3951103.23246                  22980192.6534
        19.0004         16.5004
  23905355.0134    6485686.29846   5725227.98946                  23905362.3994
        13.2504         12.0004
 00  5  2 15 29 30.0010000  0  6G 2G 7G 8G 4G 9G26
  21867539.8564    3710511.74648   2896193.08146                  21867546.6424
        28.7504         24.2504
  21113800.2634    1385514.44148   1125887.14547                  21113806.4504
        31.0004         26.5004
  24097531.3964   18744445.61045  14606040.43545                  24097541.7944
        11.0004          9.5004
  22051794.5524   -8988490.27347  -6861370.74346                  22051801.5994
        24.7504         20.2504
  22974907.9034   -5251842.63346  -3972714.85146                  22974915.1264
        18.7504         16.0004
  23913538.0524    6528689.63346   5758737.04446                  23913546.0244
        13.0004         12.0004
 00  5  2 15 29 45.0010000  0  6G 2G 7G 8G 4G 9G26
  21872179.5284    3734892.92348   2915191.39446                  21872186.2554
        28.5004         24.7504
  21119125.5834    1413498.98048   1147693.27347                  21119131.8994
        30.7504         27.5004
  24110385.6224   18811987.31246  14658670.19845                  24110395.3294
        12.2504         10.0004
  22045879.6854   -9019572.72947  -6885590.80346                  22045886.8724
        25.0004         21.0004
  22969647.6464   -5279485.26446  -3994254.55846                  22969653.9744
        19.5004         16.7504
  23921735.8884    6571769.09846   5792305.42046                  23921743.7434
        12.7504         12.2504
 00  5  2 15 30  0.0010000  0  6G 2G 7G 8G 4G 9G26
  21876832.2394    3759343.51148   2934243.77546                  21876839.2744
        28.2504         24.7504
  21124467.0054    1441567.30448   1169564.68647                  21124473.5324
        30.5004         27.5004
  24123247.3024   18879579.61445  14711339.40045                  24123258.5094
        11.7504         10.0004
  22039984.2944   -9050554.66447  -6909732.53346                  22039991.3884
        25.5004         21.5004
  22964405.5754   -5307032.08646  -4015719.60446                  22964412.7164
        19.5004         17.0004
  23929948.8644    6614927.51646   5825935.30246                  23929957.3644
        13.2504         12.2504
 00  5  2 15 30 15.0010000  0  7G 2G 7G 8G 4G 9G24G26
  21881498.3564    3783863.83448   2953350.51146                  21881505.2984
        28.5004         24.7504
  21129823.8804    1469719.47748   1191501.44347                  21129830.2204
        30.5004         27.2504
  24136118.4114   18947222.32545  14764047.90445                  24136129.4894
        11.0004          9.7504
  22034107.5364   -9081435.39347  -6933795.40546                  22034114.4314
        25.5004         21.2504
  22959182.0284   -5334482.47846  -4037109.51546                  22959188.5444
        19.5004         17.2504
  24638228.5364     -19801.02554
         7.0004
  23938176.6614    6658164.80446   5859626.66446                  23938184.7394
        12.7504         12.0004
 00  5  2 15 30 30.0010000  0  7G 2G 7G 8G 4G 9G24G26
  21886177.3804    3808451.99648   2972510.08846                  21886184.2244
        28.5004         25.0004
  21135196.4894    1497953.29148   1213501.80247                  21135202.7944
        30.5004         27.5004
  24149000.2004   19014913.18645  14816793.89645                  24149011.1964
        10.7504         10.0004
  22028250.1614   -9112216.53847  -6957780.68946                  22028256.9814
        25.2504         21.2504
  22953976.2554   -5361838.19246  -4058425.64846                  22953983.2434
        19.2504         17.0004
  24630155.1384     -62227.98345
         8.0004
  23946419.0914    6701478.63746   5893377.64945                  23946426.6654
        13.0004         11.7504
 00  5  2 15 30 45.0010000  0  7G 2G 7G 8G 4G 9G24G26
  21890868.7474    3833106.84448   2991721.63946                  21890875.7714
        28.2504         24.7504
  21140584.4664    1526267.16748   1235564.55947                  21140590.7354
        30.5004         27.0004
  24161890.6064   19082650.67145  14869576.19945                  24161900.5364
        10.5004          9.5004
  22022411.4584   -9142899.17347  -6981689.20546                  22022418.3174
        25.2504         21.2504
  22948788.7004   -5389100.26747  -4079668.81446                  22948795.4384
        20.0004         17.2504
  24622082.3494    -104645.08544
         7.2504
  23954675.3334    6744867.24446   5927186.92245                  23954682.5794
        13.2504         11.7504
 00  5  2 15 31  0.0010000  0  7G 2G 7G 8G 4G 9G24G26
  21895573.6614    3857829.95248   3010986.39346                  21895580.3994
        28.5004         24.5004
  21145988.0284    1554662.35748   1257690.67047                  21145994.4274
        30.5004         27.0004
  24174790.4354   19150435.86545  14922395.71745                  24174802.6264
        10.0004          9.5004
  22016591.9194   -9173481.41647  -7005519.48946                  22016599.1534
        25.2504         21.2504
  22943619.0444   -5416267.01047  -4100837.70246                  22943625.8414
        20.0004         17.2504
  24614013.0054    -147050.56745
         7.7504
  23962946.5914    6788331.77846   5961055.34446                  23962952.8964
        12.7504         12.0004
 00  5  2 15 31 15.0010000  0  7G 2G 7G 8G 4G 9G24G26
  21900291.1304    3882620.42348   3030303.62746                  21900297.9894
        28.2504         24.7504
  21151406.5604    1583137.77748   1279879.30047                  21151413.0284
        30.5004         27.2504
  24187697.9974   19218267.50745  14975251.40445                  24187707.6694
        10.0004          9.5004
  22010791.1614   -9203963.85247  -7029272.00446                  22010798.2314
        25.0004         21.5004
  22938467.3494   -5443339.03446  -4121932.78946                  22938474.1694
        19.5004         17.5004
  24605944.7864    -189445.14745
         7.5004
  23971231.3884    6831870.94046   5994981.94646                  23971238.9854
        13.0004         12.0004
 00  5  2 15 31 30.0010000  0  7G 2G 7G 8G 4G 9G24G26
  21905021.7004    3907479.21848   3049674.09746                  21905028.3564
        28.2504         24.7504
  21156840.8494    1611694.05248   1302130.93247                  21156847.4354
        30.5004         27.5004
  24200614.5994   19286146.33145  15028143.84345                  24200624.5404
        10.0004          9.2504
  22005009.7004   -9234345.27447  -7052945.80746                  22005016.8884
        25.2504         21.7504
  22933333.9274   -5470315.09047  -4142953.05846                  22933340.3724
        20.2504         17.7504
  24597880.0914    -231827.52245    -15408.59655                  24597894.4154
         8.5004          7.0004
  23979531.7164    6875485.26246   6028967.07846                  23979539.4894
        13.5004         12.2504
 00  5  2 15 31 45.0010000  0  7G 2G 7G 8G 4G 9G24G26
  21909765.1774    3932406.69848   3069098.09046                  21909772.0604
        28.2504         24.5004
  21162290.1694    1640331.27148   1324445.63947                  21162296.5324
        30.5004         27.2504
  24213540.5284   19354072.30145  15081073.02345                  24213551.9464
         9.5004          8.7504
  21999247.5134   -9264624.98647  -7076540.36446                  21999254.7124
        25.0004         21.7504
  22928219.1304   -5497194.64747  -4163898.16346                  22928225.8334
        20.7504         18.0004
  24589817.8494    -274197.12345    -48423.68045                  24589833.5564
         9.2504          7.5004
  23987845.1304    6919174.51646   6063010.59745                  23987852.4704
        13.2504         11.7504
 00  5  2 15 32  0.0010000  0  7G 2G 7G 8G 4G 9G24G26
  21914521.8884    3957404.07148   3088576.54846                  21914528.7204
        28.0004         24.7504
  21167755.3804    1669050.30848   1346824.10447                  21167761.6034
        30.7504         27.2504
  24226474.8964   19422046.11445  15134039.47045                  24226485.9274
         8.7504          9.5004
  21993505.4424   -9294801.60147  -7100054.56946                  21993512.5954
        25.0004         21.7504
  22923122.5524   -5523976.31047  -4184766.99146                  22923128.8924
        20.7504         18.0004
  24581757.1774    -316552.50645    -81427.63845                  24581771.2554
         8.5004          7.7504
  23996173.2474    6962939.57146   6097113.21646                  23996180.8924
        13.0004         12.0004
 00  5  2 15 32 15.0010000  0  7G 2G 7G 8G 4G 9G24G26
  21919292.0524    3982470.98947   3108109.19146                  21919298.7784
        27.5004         24.5004
  21173235.8024    1697850.61048   1369265.88447                  21173242.0834
        30.7504         27.2504
  24239419.8494   19490067.27645  15187042.86045                  24239429.9544
         8.7504          9.0004
  21987782.6464   -9324874.99147  -7123488.35046                  21987789.9974
        25.0004         21.7504
  22918044.7084   -5550660.21247  -4205559.64646                  22918051.6384
        20.2504         17.7504
  24573699.3334    -358893.73145   -114420.56445                  24573712.4854
         9.2504          8.5004
  24004516.0214    7006779.62846   6131274.23046                  24004524.0404
        13.2504         12.0004
 00  5  2 15 32 30.0010000  0  7G 2G 7G 8G 4G 9G24G26
  21924075.8104    4007608.95648   3127697.20046                  21924082.5604
        28.0004         24.5004
  21178732.1304    1726733.26648   1391771.83947                  21178738.4354
        30.5004         27.0004
  24252372.7714   19558136.70945  15240083.81945                  24252383.7784
         8.0004          9.2504
  21982079.8254   -9354843.56847  -7146840.45946                  21982087.2474
        24.5004         21.7504
  22912986.0054   -5577244.72647  -4226274.83246                  22912992.7674
        20.5004         18.0004
  24565645.3884    -401219.15145   -147401.24245                  24565659.1614
         9.5004          8.5004
  24012872.9034    7050695.70146   6165494.52145                  24012880.7124
        13.0004         11.2504
 00  5  2 15 32 45.0010000  0  7G 2G 7G 8G 4G 9G24G26
  21928871.8104    4032813.41247   3147337.01246                  21928878.7744
        27.7504         24.5004
  21184243.0674    1755693.45648   1414338.21647                  21184249.1964
        30.5004         27.0004
  24265334.1854   19626249.49245  15293158.57245                  24265344.2904
         9.0004          9.2504
  21976395.6774   -9384711.60247  -7170114.21846                  21976402.8174
        24.7504         21.7504
  22907945.1384   -5603734.20847  -4246915.98246                  22907951.6534
        21.2504         18.2504
  24557592.7714    -443532.97945   -180372.87345                  24557607.2004
         9.7504          9.7504
  24021243.5834    7094682.82846   6199770.16245                  24021250.8884
        12.7504         11.7504
 00  5  2 15 33  0.0010000  0  7G 2G 7G 8G 4G 9G24G26
  21933681.6614    4058088.34548   3167031.74946                  21933688.5674
        28.2504         24.5004
  21189769.3494    1784734.93848   1436967.93147                  21189775.6534
        30.2504         27.2504
  24278305.2084   19694409.39745  15346270.03145                  24278316.8134
         9.0004          9.2504
  21970732.0754   -9414474.69747  -7193306.21446                  21970739.4384
        24.7504         22.0004
  22902923.4194   -5630124.40847  -4267479.76546                  22902930.0874
        20.5004         18.2504
  24549543.9424    -485831.01945   -213332.18845                  24549558.1144
        10.0004          9.5004
  24029627.6924    7138744.53346   6234103.90746                  24029635.6534
        12.7504         12.0004
 00  5  2 15 33 15.0010000  0  7G 2G 7G 8G 4G 9G24G26
  21938504.7864    4083433.99948   3186781.59446                  21938511.6924
        28.0004         24.5004
  21195311.2474    1813857.57648   1459660.88847                  21195317.3884
        30.2504         27.0004
  24291284.7164   19762616.20945  15399418.08545                  24291297.3884
         9.0004          9.0004
  21965088.3804   -9444132.55247  -7216416.19946                  21965095.5564
        24.7504         21.7504
  22897920.3724   -5656414.83147  -4287965.79346                  22897926.9934
        20.7504         18.0004
  24541497.6924    -528112.83545   -246278.85845                  24541510.6344
        11.0004         10.2504
  24038026.8884    7182880.65046   6268495.66145                  24038034.3564
        12.5004         11.7504
 00  5  2 15 33 30.0010000  0  7G 2G 7G 8G 4G 9G24G26
  21943341.0754    4108847.72647   3206584.48246                  21943347.8374
        27.7504         24.2504
  21200867.9424    1843058.28748   1482414.68047                  21200874.0954
        30.0004         26.7504
  24304272.2164   19830866.78545  15452600.18745                  24304285.0994
         9.2504          9.7504
  21959464.3414   -9473687.49147  -7239445.98446                  21959471.5054
        24.7504         21.5004
  22892936.1384   -5682608.03247  -4308376.08046                  22892943.1854
        21.2504         18.7504
  24533454.1144    -570380.91945   -279214.84345                  24533467.2434
        10.0004         10.2504
  24046439.4274    7227087.95345   6302942.86145                  24046446.4274
        11.7504         11.2504
 00  5  2 15 33 45.0010000  0  7G 2G 7G 8G 4G 9G24G26
  21948189.3174    4134326.83047   3226438.31246                  21948196.2824
        27.7504         24.2504
  21206438.9034    1872334.23048   1505227.09247                  21206445.0094
        29.5004         26.7504
  24317268.4894   19899158.22645  15505814.14645                  24317280.6814
         9.5004         10.2504
  21953859.2714   -9503141.92447  -7262397.46846                  21953866.7044
        24.5004         21.5004
  22887969.5754   -5708706.42247  -4328712.48246                  22887976.1034
        21.2504         18.7504
  24525412.9584    -612637.57545   -312141.94545                  24525426.7314
        10.7504         10.5004
  24054865.1614    7271363.30746   6337443.08645                  24054873.1344
        12.5004         11.7504
 00  5  2 15 34  0.0010000  0  7G 2G 7G 8G 4G 9G24G26
  21953050.1384    4159869.73147   3246341.85646                  21953057.0794
        27.7504         24.2504
  21212023.8964    1901683.56848   1528096.69147                  21212030.5054
        29.5004         26.7504
  24330271.1464   19967488.50145  15559058.37445                  24330283.0444
        10.0004         10.2504
  21948273.0994   -9532497.04847  -7285271.56246                  21948280.4154
        24.7504         22.0004
  22883020.7394   -5734711.41047  -4348976.09446                  22883027.8684
        20.5004         19.0004
  24517373.3644    -654884.32145   -345061.29645                  24517387.0324
         9.7504          9.5004
  24063302.5214    7315704.81846   6371994.85346                  24063310.7164
        12.2504         12.0004
 00  5  2 15 34 15.0010000  0  7G 2G 7G 8G 4G 9G24G26
  21957923.0914    4185477.45747   3266295.90546                  21957929.7714
        27.7504         24.2504
  21217622.9504    1931107.06648   1551024.08647                  21217629.5134
        29.5004         26.7504
  24343281.7004   20035858.31345  15612333.42545                  24343292.6144
        10.0004         10.2504
  21942706.1064   -9561751.63347  -7308067.31246                  21942713.3534
        25.5004         22.0004
  22878090.2634   -5760621.71847  -4369165.93546                  22878097.0244
        21.0004         18.7504
  24509335.9354    -697119.57445   -377971.72245                  24509349.7204
         9.7504         10.2504
  24071752.9194    7360113.02145   6406598.60045                  24071761.4784
        11.5004         11.0004
 00  5  2 15 34 30.0010000  0  7G 2G 7G 8G 4G 9G24G26
  21962808.8254    4211151.94847   3286301.98946                  21962815.6104
        27.7504         24.2504
  21223236.6144    1960606.29548   1574010.48847                  21223243.0714
        29.5004         26.7504
  24356299.3414   20104269.23445  15665640.45345                  24356310.7354
        10.2504         10.2504
  21937158.8254   -9590903.49847  -7330783.01846                  21937166.0244
        25.5004         22.0004
  22873178.1224   -5786435.28747  -4389280.40046                  22873184.4154
        21.5004         18.5004
  24501302.0134    -739341.32245   -410871.60545                  24501315.4234
         9.7504          9.5004
  24080216.8334    7404589.34745   6441255.43645                  24080225.6964
        11.7504         10.5004
 00  5  2 15 34 45.0010000  0  7G 2G 7G 8G 4G 9G24G26
  21967707.2474    4236893.10948   3306360.02046                  21967713.9384
        28.0004         24.2504
  21228864.3104    1990180.80648   1597055.55447                  21228870.6494
        29.5004         27.0004
  24369325.4584   20172720.67345  15718979.08945                  24369335.8334
        10.5004         10.2504
  21931630.6924   -9619952.44347  -7353418.53446                  21931637.7744
        25.5004         22.0004
  22868284.4504   -5812151.95647  -4409319.35446                  22868291.0834
        21.2504         18.7504
  24493268.8884    -781549.51745   -443760.92245                  24493282.8844
         9.2504          9.0004
  24088693.5284    7449133.26245   6475964.95445                  24088701.3844
        11.7504         10.7504
 00  5  2 15 35  0.0010000  0  7G 2G 7G 8G 4G 9G24G26
  21972619.4504    4262707.30747   3326474.97146                  21972626.0954
        27.7504         24.2504
  21234507.6614    2019836.72248   1620164.05047                  21234514.1884
        29.7504         26.7504
  24382360.4814   20241218.72045  15772354.06045                  24382372.3804
        10.5004          9.7504
  21926123.9274   -9648891.82147  -7375968.66946                  21926130.9034
        26.0004         22.2504
  22863410.4744   -5837765.23647  -4429277.74046                  22863417.2824
        21.0004         18.7504
  24485241.5604    -823737.53445   -476634.52045                  24485254.9584
         8.7504          9.0004
  24097183.9194    7493750.62746   6510731.65745                  24097191.2354
        12.2504         11.0004
 00  5  2 15 35 15.0010000  0  7G 2G 7G 8G 4G 9G24G26
  21977544.6534    4288589.16947   3346642.63746                  21977551.4744
        27.5004         24.0004
  21240165.4744    2049568.37448   1643331.55847                  21240171.9194
        29.7504         27.0004
  24395403.2714   20309757.62545  15825760.85545                  24395414.3374
        11.0004         10.2504
  21920636.8804   -9677726.76047  -7398437.42546                  21920644.1494
        25.7504         22.2504
  22858555.0914   -5863280.18947  -4449159.51846                  22858562.3254
        21.5004         18.5004
  24477216.1854    -865910.35545   -509496.29845                  24477230.4034
         8.5004          8.0004
  24105686.6224    7538435.66546   6545551.11145                  24105695.9424
        12.0004         11.2504
 00  5  2 15 35 30.0010000  0  7G 2G 7G 8G 4G 9G24G26
  21982483.0284    4314539.23647   3366863.44946                  21982489.9234
        27.5004         24.0004
  21245837.8334    2079375.91648   1666558.20847                  21245844.3604
        30.0004         27.0004
  24408453.2244   20378337.51945  15879199.58845                  24408464.9114
        10.0004          9.5004
  21915169.6224   -9706456.63547  -7420824.31046                  21915176.8104
        26.0004         22.7504
  22853718.6064   -5888696.10547  -4468964.11646                  22853724.9934
        21.5004         18.5004
  24469193.4274    -908067.45845   -542345.83745                  24469205.9814
         7.5004          7.7504
  24114203.3024    7583188.41246   6580423.35045                  24114211.9074
        12.0004         11.0004
 00  5  2 15 35 45.0010000  0  7G 2G 7G 8G 4G 9G24G26
  21987434.2784    4340559.33747   3387138.83446                  21987441.0994
        27.7504         24.2504
  21251524.6924    2109260.91948   1689845.21447                  21251531.1034
        29.7504         27.0004
  24421512.4504   20446959.86845  15932671.40945                  24421524.6654
        10.5004         10.5004
  21909723.1304   -9735079.16047  -7443127.54846                  21909730.2244
        26.0004         22.7504
  22848901.1224   -5914010.96947  -4488689.98846                  22848907.6264
        20.5004         18.5004
  24461175.4974    -950206.68945   -575181.38445                  24461187.6064
         8.0004          8.0004
  24122732.8884    7628010.23046   6615349.39445                  24122741.7744
        12.2504         11.2504
 00  5  2 15 36  0.0010000  0  7G 2G 7G 8G 4G 9G24G26
  21992398.5284    4366646.71347   3407466.63946                  21992405.2904
        27.5004         24.0004
  21257225.7554    2139220.36048   1713190.22247                  21257232.1774
        30.2504         27.2504
  24434578.1694   20515621.41945  15986173.75245                  24434589.6464
        10.0004          9.5004
  21904295.9504   -9763597.08647  -7465349.27946                  21904303.1734
        25.5004         22.7504
  22844102.8174   -5939227.33447  -4508339.08946                  22844109.6494
        20.5004         18.2504
  24453158.2314    -992330.48244   -608004.98445                  24453170.2714
         7.2504          7.2504
  24131274.6694    7672897.90346   6650326.75145                  24131283.0874
        12.5004         11.2504
 00  5  2 15 36 15.0010000  0  7G 2G 7G 8G 4G 9G24G26
  21997376.0054    4392803.11047   3427848.23046                  21997382.6494
        27.7504         24.0004
  21262941.3104    2169255.63748   1736594.32947                  21262947.7204
        30.5004         27.2504
  24447651.4814   20584323.54245  16039707.73345                  24447662.9814
        10.5004          9.5004
  21898889.4894   -9792008.11547  -7487487.71846                  21898896.6884
        26.0004         22.7504
  22839323.2314   -5964343.27647  -4527909.93446                  22839330.1384
        21.2504         18.7504
  24445144.7314   -1034436.93944   -640815.00945                  24445158.1534
         6.7504          7.7504
  24139829.0214    7717852.72046   6685356.44445                  24139836.5604
        13.0004         11.5004
 00  5  2 15 36 30.0010000  0  7G 2G 7G 8G 4G 9G24G26
  22002366.5914    4419029.45847   3448284.32846                  22002373.3174
        27.7504         24.2504
  21268671.4504    2199367.39948   1760058.02547                  21268677.7314
        30.7504         27.2504
  24460732.8104   20653066.95345  16093273.88145                  24460745.1424
        10.7504          9.5004
  21893503.5524   -9820311.13547  -7509541.98846                  21893510.7394
        26.2504         22.7504
  22834563.1144   -5989357.69447  -4547401.68646                  22834569.9974
        21.0004         18.5004
  24437136.3414   -1076524.79644   -673610.62945                  24437149.5994
         7.0004          7.0004
  24148396.6534    7762875.16046   6720438.82445                  24148404.0054
        13.0004         11.0004
 00  5  2 15 36 45.0010000  0  7G 2G 7G 8G 4G 9G24G26
  22007370.8174    4445326.56047   3468775.56446                  22007377.3564
        27.7504         24.0004
  21274416.0604    2229556.01348   1783581.61347                  21274422.2824
        30.7504         27.2504
  24473823.0134   20721851.91845  16146872.40845                  24473835.5674
        11.2504          9.2504
  21888138.4814   -9848505.25647  -7531511.40346                  21888145.5284
        26.0004         23.0004
  22829822.3334   -6014269.67647  -4566813.61446                  22829829.0714
        20.5004         18.0004
  24429129.9354   -1118593.12644   -706390.92845                  24429142.7004
         6.7504          7.2504
  24156977.3334    7807965.50446   6755574.10645                  24156985.0834
        13.0004         11.0004
 00  5  2 15 37  0.0010000  0  7G 2G 7G 8G 4G 9G24G26
  22012387.9744    4471691.52947   3489319.68346                  22012394.9034
        27.7504         24.2504
  21280174.9814    2259818.44748   1807162.72047                  21280181.4744
        30.2504         27.2504
  24486919.2784   20790675.37945  16200500.95345                  24486930.1464
        10.0004          9.5004
  21882793.5214   -9876592.94347  -7553397.88546                  21882800.6854
        26.2504         22.7504
  22825101.2004   -6039081.80347  -4586147.73246                  22825108.1424
        21.5004         18.2504
  24421129.1224   -1160644.54045   -739158.07545                  24421140.6224
         7.7504          7.2504
  24165569.9974    7853120.54046   6790759.82945                  24165577.8064
        12.7504         10.5004
 00  5  2 15 37 15.0010000  0  7G 2G 7G 8G 4G 9G24G26
  22017418.0444    4498125.47847   3509917.54846                  22017424.9034
        27.7504         24.2504
  21285947.9354    2290155.50048   1830801.96847                  21285954.3454
        30.2504         27.2504
  24500023.6384   20859537.83745  16254159.86645                  24500034.9274
        10.5004          9.0004
  21877469.2314   -9904572.85047  -7575200.37746                  21877476.2554
        26.5004         23.0004
  22820398.5754   -6063792.77447  -4605403.03246                  22820405.5754
        21.5004         18.7504
  24413129.6384   -1202677.71745   -771911.05245                  24413146.5634
         7.5004          6.7504
  24174175.5604    7898340.92046   6825996.40045                  24174184.8684
        12.2504         11.2504
 00  5  2 15 37 30.0010000  0  7G 2G 7G 8G 4G 9G24G26
  22022461.6694    4524628.72048   3530569.41046                  22022468.2314
        28.0004         24.2504
  21291735.1064    2320567.25248   1854499.42647                  21291741.4704
        30.0004         27.2504
  24513135.3024   20928439.33245  16307849.18145                  24513147.5634
         9.7504          8.5004
  21872165.6144   -9932444.38747  -7596918.43046                  21872172.4854
        26.2504         23.0004
  22815715.5524   -6088402.14747  -4624579.14846                  22815722.4814
        20.5004         18.5004
  24405134.2714   -1244691.96244   -804649.25845                  24405149.7314
         6.7504          6.7504
  24182792.8644    7943626.42046   6861283.78845                  24182800.7674
        12.2504         11.2504
 00  5  2 15 37 45.0010000  0  7G 2G 7G 8G 4G 9G24G26
  22027518.0914    4551200.28548   3551274.51346                  22027524.6534
        28.0004         24.2504
  21297536.3644    2351052.39048   1878254.07247                  21297542.8454
        30.2504         27.2504
  24526254.5214   20997378.65145  16361567.98645                  24526267.2044
         9.7504          9.0004
  21866882.0524   -9960208.16647  -7618552.51946                  21866889.2514
        26.2504         23.2504
  22811051.8724   -6112910.54847  -4643676.60246                  22811058.8254
        20.5004         18.2504
  24397142.4894   -1286687.99944   -837373.29745                  24397157.0484
         7.2504          7.7504
  24191422.0834    7988975.72946   6896620.84345                  24191430.9584
        12.5004         11.0004
 00  5  2 15 38  0.0010000  0  7G 2G 7G 8G 4G 9G24G26
  22032587.2864    4577839.58547   3572032.38946                  22032594.0954
        27.7504         24.2504
  21303351.0994    2381610.03448   1902065.21647                  21303357.5564
        30.0004         27.2504
  24539379.7944   21066354.82145  16415315.52545                  24539391.2714
         8.2504          8.5004
  21861619.4274   -9987864.56947  -7640102.93246                  21861626.4744
        26.5004         23.0004
  22806407.1464   -6137318.41547  -4662695.71346                  22806413.6384
        21.2504         18.5004
  24389154.9034   -1328666.26645   -870083.43145                  24389168.2434
         8.2504          7.5004
  24200064.1064    8034387.70346   6932006.73245                  24200073.8254
        12.2504         10.7504
 00  5  2 15 38 15.0010000  0  7G 2G 7G 8G 4G 9G24G26
  22037669.1924    4604544.49947   3592841.39746                  22037675.7784
        27.7504         24.2504
  21309179.3334    2412237.80348   1925931.00047                  21309185.7554
        30.0004         27.2504
  24552511.8024   21135365.19345  16469089.68845                  24552523.8884
         8.0004          7.7504
  21856376.5364  -10015415.53947  -7661571.19446                  21856383.5834
        26.2504         23.0004
  22801781.3024   -6161627.57147  -4681637.90746                  22801787.9704
        21.2504         18.7504
  24381169.8644   -1370628.67145   -902781.29545                  24381181.8924
         9.0004          7.7504
  24208717.5134    8079859.86546   6967439.55845                  24208726.3064
        12.5004         11.0004
 00  5  2 15 38 30.0010000  0  7G 2G 7G 8G 4G 9G24G26
  22042763.9894    4631318.58547   3613704.30946                  22042770.7634
        27.7504         24.2504
  21315021.4274    2442938.87248   1949853.90447                  21315027.8374
        29.7504         27.0004
  24565651.6304   21204413.08545  16522893.08345                  24565664.1854
         8.0004          7.5004
  21851154.5994  -10042857.16047  -7682954.23946                  21851161.6464
        26.5004         23.2504
  22797174.8644   -6185834.28247  -4700500.25746                  22797182.0874
        21.2504         18.5004
  24373188.2164   -1412571.37845   -935463.75845                  24373202.1654
         9.0004          8.0004
  24217382.2554    8125395.25745   7002921.63245                  24217390.0174
        11.7504         10.7504
 00  5  2 15 38 45.0010000  0  7G 2G 7G 8G 4G 9G24G26
  22047872.1304    4658162.43447   3634621.58846                  22047879.0714
        27.7504         24.2504
  21320877.7474    2473713.59648   1973834.19647                  21320884.2394
        29.7504         27.0004
  24578798.1924   21273498.57345  16576725.79045                  24578810.9704
         7.5004          7.7504
  21845953.4744  -10070188.69647  -7704251.51546                  21845960.4854
        26.7504         23.2504
  22792588.0834   -6209937.86947  -4719282.26346                  22792595.2244
        22.0004         18.7504
  24365210.1924   -1454493.51645   -968130.18745                  24365223.8844
         9.5004          8.7504
  24226059.3254    8170993.97545   7038453.04545                  24226067.8604
        11.5004         11.0004
 00  5  2 15 39  0.0010000  0  7G 2G 7G 8G 4G 9G24G26
  22052993.5914    4685074.50347   3655592.01246                  22053000.5674
        27.7504         24.2504
  21326747.7474    2504560.10848   1997870.43447                  21326754.3564
        29.7504         27.2504
  24591951.5214   21342619.89645  16630586.40045                  24591961.9664
         7.7504          7.7504
  21840773.2554  -10097411.36147  -7725463.95246                  21840780.2434
        26.7504         23.0004
  22788020.9114   -6233939.68547  -4737984.97546                  22788027.0284
        21.7504         18.5004
  24357236.3804   -1496396.43845  -1000781.67145                  24357249.4974
         9.7504          8.7504
  24234748.3174    8216654.09845   7074032.31945                  24234757.1694
        11.5004         11.0004
 00  5  2 15 39 15.0010000  0  7G 2G 7G 8G 4G 9G24G26
  22058127.8104    4712055.55148   3676616.19347                  22058134.7864
        28.0004         26.0004
  21332631.2714    2535478.87548   2021962.96947                  21332637.7634
        29.5004         28.5004
  24605112.7474   21411777.25144  16684475.12245                  24605124.6924
         7.2504          8.0004
  21835613.5754  -10124524.18647  -7746590.80246                  21835620.6464
        26.7504         24.7504
  22783473.0754   -6257838.79847  -4756607.65746                  22783479.7314
        21.5004         20.2504
  24349266.5284   -1538279.10545  -1033417.34845                  24349279.3644
        10.5004          9.7504
  24243448.7944    8262375.80945   7109659.54945                  24243457.0834
        11.7504         11.2504
 00  5  2 15 39 30.0010000  0  7G 2G 7G 8G 4G 9G24G26
  22063275.0284    4739104.88747   3697693.57947                  22063281.8134
        27.5004         26.5004
  21338528.6924    2566468.85448   2046111.00647                  21338535.2314
        30.0004         29.5004
  24618278.7864   21480969.58844  16738391.07345                  24618293.8724
         6.7504          7.5004
  21830474.7634  -10151527.62547  -7767632.41046                  21830481.6224
        26.7504         25.5004
  22778944.3104   -6281635.78647  -4775150.74346                  22778951.0954
        21.7504         21.2504
  24341300.0994   -1580142.02745  -1066037.68245                  24341312.7474
        10.7504         10.2504
  24252161.4744    8308157.99846   7145333.94546                  24252169.2944
        12.2504         12.5004
 00  5  2 15 39 45.0010000  0  7G 2G 7G 8G 4G 9G24G26
  22068435.8024    4766224.03347   3718825.36247                  22068442.7784
        27.7504         26.2504
  21344439.5754    2597531.34848   2070315.53047                  21344446.1034
        30.0004         29.7504
  24631453.2944   21550198.15145  16792335.25745                  24631465.9424
         8.0004          7.7504
  21825357.7394  -10178419.90547  -7788587.40946                  21825364.7164
        27.2504         25.2504
  22774435.7554   -6305328.78947  -4793612.81346                  22774442.6264
        22.0004         20.7504
  24333337.8564   -1621983.33645  -1098641.11345                  24333350.1884
        11.2504         10.5004
  24260884.9504    8354001.76046   7181056.30546                  24260893.0174
        12.0004         12.2504
 00  5  2 15 40  0.0010000  0  7G 2G 7G 8G 4G 9G24G26
  22073609.3254    4793410.86147   3740009.88847                  22073616.2204
        27.5004         26.7504
  21350363.8964    2628663.94648   2094574.68947                  21350370.3294
        30.0004         30.0004
  24644632.5364   21619460.49145  16846305.75845                  24644646.1464
         7.5004          8.2504
  21820260.9664  -10205202.79147  -7809457.16647                  21820267.8494
        27.2504         25.7504
  22769946.5914   -6328919.81247  -4811995.42346                  22769952.9314
        22.0004         20.5004
  24325379.5754   -1663805.02945  -1131229.29845                  24325392.4234
        11.2504         11.0004
  24269619.8414    8399904.51145   7216824.62246                  24269627.8844
        11.2504         12.0004
 00  5  2 15 40 15.0010000  0  7G 2G 7G 8G 4G 9G24G26
  22078795.7784    4820665.85448   3761247.54147                  22078802.7314
        28.0004         26.5004
  21356301.6304    2659866.77648   2118888.57347                  21356307.9934
        30.2504         30.0004
  24657820.3104   21688756.63145  16900302.61545                  24657833.6144
         8.2504          8.2504
  21815185.2394  -10231875.60947  -7830241.15146                  21815192.0134
        27.2504         25.5004
  22765476.9744   -6352408.15647  -4830298.03146                  22765483.6654
        22.0004         21.0004
  24317424.7634   -1705606.29145  -1163801.58145                  24317436.9544
        11.0004         10.7504
  24278365.8254    8445866.24445   7252638.89445                  24278373.5174
        11.0004         11.7504
 00  5  2 15 40 30.0010000  0  7G 2G 7G 8G 4G 9G24G26
  22083995.5214    4847990.60848   3782539.54147                  22084002.3804
        28.0004         26.5004
  21362253.0054    2691141.17048   2143258.22147                  21362259.3684
        30.5004         30.0004
  24671012.6774   21758087.82245  16954326.76945                  24671025.5714
         7.7504          9.2504
  21810130.9034  -10258436.56047  -7850937.96447                  21810137.7124
        27.2504         25.7504
  22761027.2004   -6375791.96547  -4848519.16246                  22761034.1884
        22.0004         21.2504
  24309474.2084   -1747385.30245  -1196356.49845                  24309484.8534
        11.0004         10.7504
  24287124.1694    8491888.21245   7288500.12646                  24287132.0014
        11.0004         12.2504
 00  5  2 15 40 45.0010000  0  7G 2G 7G 8G 4G 9G24G26
  22089209.3724    4875389.34647   3803889.18847                  22089216.0634
        27.5004         26.2504
  21368218.7084    2722490.99448   2167686.64747                  21368224.9194
        31.0004         30.0004
  24684213.9584   21827457.81545  17008381.15145                  24684226.6424
         8.7504          9.0004
  21805098.5994  -10284881.02747  -7871544.01746                  21805105.2784
        27.5004         25.5004
  22756598.0754   -6399066.87347  -4866655.44146                  22756604.8494
        22.0004         21.5004
  24301528.5994   -1789137.57845  -1228890.60945                  24301540.8024
        10.7504         11.0004
  24295893.8334    8537974.07145   7324411.11245                  24295901.5244
        11.2504         11.5004
 00  5  2 15 41  0.0010000  0  7G 2G 7G 8G 4G 9G24G26
  22094436.4354    4902857.54747   3825292.96947                  22094443.4464
        27.7504         26.2504
  21374197.7474    2753911.59148   2192170.21747                  21374203.8064
        31.2504         29.7504
  24697422.1464   21896861.78245  17062461.99945                  24697434.3494
         9.0004          9.0004
  21800087.9584  -10311213.38047  -7892062.70946                  21800094.7434
        27.2504         25.2504
  22752189.0604   -6422237.06647  -4884710.13046                  22752195.4704
        22.0004         20.7504
  24293588.2864   -1830867.37545  -1261407.16445                  24293599.7164
        11.2504         11.0004
  24304674.5994    8584118.85545   7360368.04246                  24304682.9354
        11.2504         12.0004
 00  5  2 15 41 15.0010000  0  7G 2G 7G 8G 4G 9G24G26
  22099676.3804    4930394.70247   3846750.48147                  22099683.2984
        27.2504         26.2504
  21380190.4114    2785402.05048   2216708.23147                  21380196.5994
        31.2504         30.0004
  24710634.3254   21966298.92945  17116568.75345                  24710645.7434
         9.2504          9.2504
  21795098.2164  -10337433.86247  -7912494.22446                  21795104.8254
        27.0004         25.2504
  22747799.6224   -6445302.94847  -4902683.54546                  22747805.9274
        22.2504         20.7504
  24285650.6304   -1872575.02245  -1293906.49745                  24285662.9624
        11.2504         11.5004
  24313467.0754    8630321.66845   7396370.18245                  24313474.0284
        11.5004         11.7504
 00  5  2 15 41 30.0010000  0  7G 2G 7G 8G 4G 9G24G26
  22104930.0674    4958001.30347   3868262.10347                  22104937.0444
        27.2504         26.0004
  21386196.1304    2816962.61348   2241300.86647                  21386202.3174
        31.2504         30.0004
  24723854.7784   22035769.27545  17170701.34145                  24723867.2744
         9.2504          9.2504
  21790130.1924  -10363541.71847  -7932837.98246                  21790136.8844
        27.5004         25.5004
  22743430.4034   -6468263.82047  -4920575.12646                  22743437.2004
        22.7504         21.5004
  24277718.5214   -1914259.73145  -1326387.93845                  24277729.9154
        10.7504         11.2504
  24322270.5524    8676582.45545   7432417.49546                  24322278.0564
        11.2504         12.0004
 00  5  2 15 41 45.0010000  0  7G 2G 7G 8G 4G 9G24G26
  22110196.2554    4985677.05747   3889827.61547                  22110203.0994
        27.2504         26.0004
  21392214.9974    2848592.68048   2265947.66347                  21392221.2904
        31.0004         30.2504
  24737081.0364   22105272.24445  17224859.37445                  24737094.0364
         9.5004          9.7504
  21785183.2474  -10389536.96347  -7953093.99546                  21785189.8924
        27.2504         25.5004
  22739080.9504   -6491119.72847  -4938384.91746                  22739087.5714
        22.7504         21.7504
  24269790.9744   -1955921.56545  -1358851.56345                  24269802.5794
        10.7504         11.5004
  24331084.7004    8722900.56945   7468509.47446                  24331093.0834
        11.5004         12.0004
 00  5  2 15 42  0.0010000  0  7G 2G 7G 8G 4G 9G24G26
  22115475.7554    5013419.17747   3911444.83447                  22115482.5054
        27.2504         26.0004
  21398246.7314    2880289.17948   2290646.22447                  21398253.0244
        31.5004         30.2504
  24750312.2244   22174804.61345  17279040.30045                  24750323.7474
         9.7504          9.7504
  21780257.3564  -10415422.25047  -7973264.31647                  21780264.0834
        27.0004         25.7504
  22734751.0134   -6513873.28547  -4956114.93946                  22734757.7514
        22.5004         21.7504
  24261866.3804   -1997563.13045  -1391299.38145                  24261878.5954
        10.5004         11.0004
  24339908.7314    8769272.74545   7504643.57446                  24339917.7244
        11.2504         12.2504
 00  5  2 15 42 15.0010000  0  7G 2G 7G 8G 4G 9G24G26
  22120767.6924    5041229.39347   3933115.11547                  22120774.5014
        27.2504         26.0004
  21404291.3414    2912053.51248   2315397.64247                  21404297.5994
        31.5004         30.5004
  24763550.5834   22244367.61245  17333245.07345                  24763562.6574
        10.5004         10.0004
  21775352.7394  -10441195.52847  -7993347.36047                  21775359.5134
        26.7504         25.7504
  22730441.0524   -6536522.66447  -4973763.81446                  22730447.4274
        22.7504         21.7504
  24253946.2554   -2039182.32245  -1423729.78545                  24253957.8964
        10.7504         11.2504
  24348743.7394    8815700.19545   7540820.75246                  24348751.5954
        11.2504         12.0004
 00  5  2 15 42 30.0010000  0  7G 2G 7G 8G 4G 9G24G26
  22126072.2864    5069105.33147   3954836.60847                  22126078.9784
        27.2504         25.7504
  21410348.4034    2943882.97048   2340199.80647                  21410354.7434
        31.5004         30.5004
  24776793.0524   22313958.65945  17387471.74845                  24776805.1964
        10.0004         10.5004
  21770469.1614  -10466858.79347  -8013344.68447                  21770475.8994
        27.0004         25.7504
  22726150.4974   -6559070.04747  -4991333.19946                  22726157.0484
        23.0004         22.0004
  24246030.1924   -2080781.35845  -1456144.46945                  24246042.1734
        10.2504         11.2504
  24357587.7554    8862180.02145   7577038.75045                  24357596.2084
        11.2504         11.7504
 00  5  2 15 42 45.0010000  0  7G 2G 7G 8G 4G 9G24G26
  22131390.6224    5097052.66247   3976613.73247                  22131397.4664
        27.2504         25.7504
  21416418.4584    2975782.96748   2365056.94047                  21416424.6464
        31.2504         30.2504
  24790042.5284   22383582.94045  17441724.29445                  24790055.1424
        10.5004         10.0004
  21765607.7164  -10492406.38647  -8033251.87347                  21765614.7984
        27.0004         25.7504
  22721880.4744   -6581509.53947  -5008818.50446                  22721887.0134
        23.5004         22.2504
  24238118.8174   -2122354.33745  -1488538.86045                  24238131.0794
        10.0004         11.0004
  24366444.5284    8908717.57645   7613301.70845                  24366453.2394
        10.7504         11.7504
 00  5  2 15 43  0.0010000  0  7G 2G 7G 8G 4G 9G24G26
  22136721.8964    5125069.26947   3998444.83747                  22136728.7044
        27.0004         25.7504
  21422502.0364    3007751.11648   2389967.17147                  21422508.3414
        31.2504         30.5004
  24803297.8334   22453238.08745  17496000.89445                  24803310.9504
         9.7504         10.5004
  21760767.6464  -10517840.03647  -8053070.27547                  21760774.4784
        27.0004         25.7504
  22717630.5134   -6603843.00247  -5026221.18546                  22717636.9704
        23.7504         22.2504
  24230211.8334   -2163902.97045  -1520914.27645                  24230223.9784
         9.5004         10.7504
  24375310.6774    8955310.25545   7649607.62945                  24375319.5404
        10.7504         11.5004
 00  5  2 15 43 15.0010000  0  7G 2G 7G 8G 4G 9G24G26
  22142066.5674    5153154.19247   4020329.17747                  22142073.3764
        27.2504         26.0004
  21428598.0364    3039786.14248   2414929.52447                  21428604.3064
        31.5004         31.0004
  24816557.9584   22522922.75145  17550300.47545                  24816571.1104
         9.7504         10.0004
  21755949.2784  -10543160.42847  -8072800.41947                  21755956.2434
        27.2504         26.2504
  22713400.6534   -6626071.22947  -5043541.88446                  22713407.0994
        23.2504         22.5004
  24222310.4034   -2205428.19345  -1553271.44145                  24222321.9744
         9.2504         10.7504
  24384187.4504    9001956.58145   7685955.37346                  24384196.3724
        10.7504         12.0004
 00  5  2 15 43 30.0010000  0  7G 2G 7G 8G 4G 9G24G26
  22147423.5604    5181306.95747   4042266.38247                  22147430.4424
        27.0004         25.7504
  21434706.7164    3071887.20348   2439943.32647                  21434713.0794
        31.5004         31.2504
  24829824.2944   22592635.93345  17604622.32745                  24829838.3254
         9.7504         10.7504
  21751152.5674  -10568367.94647  -8092442.61547                  21751159.3764
        27.7504         26.5004
  22709190.7004   -6648194.55347  -5060780.83146                  22709197.0994
        23.5004         22.5004
  24214412.0994   -2246930.16445  -1585610.49145                  24214424.6424
         9.0004         10.7504
  24393073.6534    9048655.61945   7722344.17745                  24393082.2244
        10.5004         11.7504
 00  5  2 15 43 45.0010000  0  7G 2G 7G 8G 4G 9G24G26
  22152793.9274    5209527.92347   4064256.72847                  22152800.7354
        27.2504         25.7504
  21440827.9114    3104054.47048   2465008.72147                  21440834.2744
        31.7504         31.0004
  24843095.5054   22662377.71345  17658966.40245                  24843107.8254
        10.0004         10.2504
  21746377.3804  -10593461.85748  -8111996.28547                  21746384.1654
        28.0004         26.5004
  22705000.8024   -6670212.40747  -5077937.59346                  22705007.5054
        23.5004         23.0004
  24206519.4504   -2288408.27645  -1617930.97945                  24206531.5364
         9.0004         10.2504
  24401970.3804    9095407.21145   7758773.92745                  24401979.7824
        10.2504         11.7504
 00  5  2 15 44  0.0010000  0  7G 2G 7G 8G 4G 9G24G26
  22158177.4744    5237818.90847   4086301.63247                  22158184.1534
        27.2504         25.7504
  21446962.1384    3136289.34948   2490126.80047                  21446968.4544
        31.7504         31.2504
  24856372.4354   22732149.54045  17713333.94945                  24856386.5484
         9.0004         10.0004
  21741624.1774  -10618440.20448  -8131459.90847                  21741630.8564
        28.2504         26.5004
  22700831.1694   -6692122.87347  -5095010.66946                  22700837.8964
        23.7504         23.0004
  24198631.0054   -2329860.45545  -1650231.24345                  24198643.7944
         9.0004         10.7504
  24410877.2164    9142212.82645   7795245.77345                  24410885.9744
        10.2504         11.7504
 00  5  2 15 44 15.0010000  0  7G 2G 7G 8G 4G 9G24G26
  22163574.2004    5266178.28747   4108399.83047                  22163580.7984
        27.2504         25.7504
  21453108.8644    3168590.13948   2515296.23647                  21453115.2284
        31.7504         31.0004
  24869655.8414   22801949.41145  17767723.31345                  24869669.5564
         9.5004         10.0004
  21736892.9274  -10643304.18048  -8150834.41047                  21736899.5954
        28.5004         26.7504
  22696682.1304   -6713927.34447  -5112001.15846                  22696688.6104
        23.7504         22.5004
  24190747.6464   -2371287.92945  -1682512.24245                  24190760.1534
         9.5004         10.2504
  24419793.9424    9189070.40645   7831758.10445                  24419803.4854
        10.0004         11.5004
 00  5  2 15 44 30.0010000  0  7G 2G 7G 8G 4G 9G24G26
  22168983.6534    5294604.82747   4130550.36747                  22168990.3804
        27.2504         25.7504
  21459267.7164    3200955.24348   2540515.78847                  21459273.9744
        32.0004         31.0004
  24882942.9974   22871775.87945  17822133.43145                  24882956.7004
         8.7504          9.7504
  21732182.7394  -10668054.90848  -8170120.66847                  21732189.5484
        28.2504         26.7504
  22692552.9894   -6735626.75847  -5128909.78946                  22692559.3884
        24.5004         22.7504
  24182868.6774   -2412691.81345  -1714774.87745                  24182880.8454
         9.7504         10.5004
  24428719.8564    9235978.27145   7868309.63246                  24428728.7904
        10.2504         12.0004
 00  5  2 15 44 45.0010000  0  7G 2G 7G 8G 4G 9G24G26
  22174405.9274    5323099.19947   4152753.75246                  22174412.5954
        27.0004         25.5004
  21465438.7004    3233384.98148   2565785.70347                  21465444.8884
        31.7504         31.0004
  24896235.7084   22941629.10745  17876564.38545                  24896249.4814
         8.7504          9.2504
  21727494.6064  -10692691.38548  -8189317.89347                  21727501.2164
        28.5004         26.5004
  22688443.7164   -6757220.21147  -5145735.85146                  22688450.2314
        24.2504         23.0004
  24174994.5754   -2454071.12845  -1747018.37345                  24175005.6774
        10.5004         10.5004
  24437656.2554    9282936.63445   7904900.49446                  24437665.1424
        10.7504         12.2504
 00  5  2 15 45  0.0010000  0  7G 2G 7G 8G 4G 9G24G26
  22179841.4894    5351663.64447   4175011.74446                  22179848.1694
        27.0004         25.5004
  21471622.6774    3265881.31548   2591107.51347                  21471628.9584
        31.7504         31.0004
  24909533.7634   23011510.87545  17931017.59345                  24909547.6774
         8.0004          8.7504
  21722828.5834  -10717211.26648  -8208424.27147                  21722835.3454
        28.5004         26.7504
  22684355.3174   -6778705.38447  -5162477.52846                  22684362.0324
        24.0004         23.0004
  24167125.5134   -2495423.35145  -1779240.75945                  24167138.1264
        10.5004         10.5004
  24446602.3104    9329947.24245   7941532.07146                  24446611.5134
        11.0004         12.0004
 00  5  2 15 45 15.0010000  0  7G 2G 7G 8G 4G 9G24G26
  22185290.1304    5380296.19847   4197322.81347                  22185296.7744
        26.7504         25.7504
  21477818.6924    3298442.02948   2616479.48447                  21477825.0794
        31.7504         30.7504
  24922836.8644   23081418.93645  17985491.24545                  24922850.9424
         8.2504          8.7504
  21718184.3494  -10741616.06048  -8227440.96547                  21718191.0634
        28.5004         27.0004
  22680287.2084   -6800084.07047  -5179136.23646                  22680293.6534
        24.0004         23.0004
  24159260.9744   -2536750.28645  -1811443.42245                  24159272.5214
        10.5004         10.2504
  24455557.5994    9377007.63845   7978202.44545                  24455566.9194
        10.7504         11.7504
 00  5  2 15 45 30.0010000  0  7G 2G 7G 8G 4G 9G24G26
  22190751.8254    5408997.55947   4219687.49346                  22190758.3764
        27.0004         25.5004
  21484027.2944    3331067.54648   2641901.95547                  21484033.7284
        31.7504         30.7504
  24936145.1304   23151353.65544  18039985.72545                  24936159.8884
         7.2504          8.7504
  21713562.3174  -10765905.06048  -8246367.43147                  21713568.9504
        28.5004         26.7504
  22676239.3564   -6821355.32247  -5195711.23046                  22676245.7084
        24.5004         23.0004
  24151401.5754   -2578051.02445  -1843625.70945                  24151413.5444
        10.7504         10.7504
  24464521.9744    9424118.11445   8014911.85745                  24464530.3564
        10.5004         11.7504
 00  5  2 15 45 45.0010000  0  7G 2G 7G 8G 4G 9G24G26
  22196226.6064    5437767.48447   4242105.59446                  22196233.2394
        26.7504         25.5004
  21490247.8174    3363757.21148   2667374.41047                  21490254.2864
        31.5004         31.0004
  24949457.9974   23221314.29144  18094500.39245                  24949472.3804
         6.7504          8.0004
  21708962.5524  -10790078.22548  -8265203.64347                  21708969.1384
        28.5004         27.0004
  22672211.9354   -6842519.24947  -5212202.59346                  22672218.3564
        24.7504         23.2504
  24143547.8494   -2619325.52145  -1875787.52745                  24143559.2904
        11.2504         11.0004
  24473496.1304    9471277.90445   8051659.66445                  24473504.5484
        10.5004         11.5004
 00  5  2 15 46  0.0010000  0  7G 2G 7G 8G 4G 9G24G26
  22201714.8254    5466608.84347   4264579.36046                  22201721.4584
        27.0004         25.5004
  21496481.1144    3396513.80948   2692899.02047                  21496487.5604
        31.5004         31.0004
  24962776.8254   23291303.38944  18149037.21245                  24962791.4544
         6.2504          6.5004
  21704385.1924  -10814132.31848  -8283947.06547                  21704391.7314
        28.5004         27.0004
  22668205.3334   -6863572.70547  -5228607.87446                  22668211.8604
        24.5004         23.2504
  24135698.9584   -2660570.49945  -1907926.33145                  24135709.9664
        11.5004         11.0004
  24482480.3254    9518489.51245   8088447.87245                  24482489.5284
        11.0004         11.7504
 00  5  2 15 46 15.0010000  0  7G 2G 7G 8G 4G 9G24G26
  22207216.5524    5495520.24547   4287107.70246                  22207223.2784
        27.0004         25.2504
  21502726.9194    3429335.49048   2718474.34547                  21502733.4354
        31.5004         31.0004
  24976100.6064   23361319.33644  18203594.95145                  24976113.4664
         6.2504          7.0004
  21699830.1384  -10838068.61748  -8302598.70247                  21699836.7244
        28.5004         27.0004
  22664220.0674   -6884516.85247  -5244927.98146                  22664226.7824
        24.7504         23.5004
  24127855.2634   -2701787.29445  -1940043.21045                  24127866.0714
        11.7504         10.2504
  24491474.1774    9565751.17545   8125275.07245                  24491483.1694
        11.0004         11.2504
 00  5  2 15 46 30.0010000  0  7G 2G 7G 8G 4G 9G24G26
  22212731.2394    5524499.83747   4309689.18446                  22212738.0484
        26.7504         25.5004
  21508984.7314    3462220.36748   2744098.91747                  21508991.2594
        31.5004         31.0004
  24989427.9114   23431359.80543  18258171.81445                  24989445.9624
         5.5004          6.2504
  21695297.3174  -10861888.47548  -8321159.60247                  21695303.9744
        28.5004         27.2504
  22660255.0214   -6905353.36847  -5261164.21946                  22660261.2904
        24.7504         23.5004
  24120016.8334   -2742977.31045  -1972139.19445                  24120028.3214
        11.5004         11.2504
  24500477.1384    9613060.42545   8162139.35345                  24500485.0994
        11.0004         11.5004
 00  5  2 15 46 45.0010000  0  7G 2G 7G 8G 4G 9G24G26
  22218258.6774    5553547.03747   4332323.34746                  22218265.6774
        26.7504         25.5004
  21515254.4034    3495167.41148   2769771.93247                  21515260.9074
        31.2504         30.7504
  25002761.1224   23501423.78543  18312767.00445                  25002774.0404
         5.5004          6.2504
  21690786.5994  -10885592.42548  -8339630.19147                  21690793.2674
        28.2504         27.0004
  22656310.4034   -6926082.61747  -5277316.87646                  22656316.8844
        24.7504         23.5004
  24112183.5914   -2784140.91045  -2004214.60145                  24112194.1654
        11.5004         11.0004
  24509488.6854    9660416.40145   8199040.06945                  24509497.4894
        11.2504         11.7504
 00  5  2 15 47  0.0010000  0  7G 2G 7G 8G 4G 9G24G26
  22223799.1144    5582662.38947   4355010.61447                  22223806.0914
        26.7504         25.7504
  21521535.7784    3528176.74548   2795493.48147                  21521542.3994
        31.2504         30.7504
  25016099.1064   23571511.63542  18367380.83145                  25016108.5674
         4.7504          6.2504
  21686297.9424  -10909179.60548  -8358009.78747                  21686304.7044
        28.0004         27.2504
  22652386.2634   -6946703.83847  -5293385.35046                  22652392.8604
        25.2504         23.5004
  24104355.3414   -2825277.37145  -2036268.86345                  24104366.7824
        11.5004         11.2504
  24518509.3254    9707819.06445   8235977.12445                  24518518.5994
        11.2504         11.0004
 00  5  2 15 47 15.0010000  0  7G 2G 7G 8G 4G 9G24G26
  22229352.2944    5611843.28747   4377748.94646                  22229359.2594
        26.7504         25.2504
  21527828.4814    3561245.65348   2821261.44747                  21527835.1494
        31.0004         30.5004
  25029441.0674   23641620.24743  18422010.75545                  25029454.9704
         5.5004          6.2504
  21681831.2784  -10932652.51848  -8376300.34047                  21681838.1384
        28.2504         27.2504
  22648482.2314   -6967219.51447  -5309371.58446                  22648488.6064
        25.5004         23.5004
  24096531.9814   -2866389.06245  -2068303.81645                  24096543.8104
        11.2504         11.5004
  24527538.3644    9755265.37745   8272948.21145                  24527546.9464
        11.2504         11.5004
 00  5  2 15 47 30.0010000  0  7G 2G 7G 8G 4G 9G24G26
  22234918.2714    5641093.49347   4400541.29346                  22234925.0674
        26.5004         25.2504
  21534133.4194    3594377.51448   2847078.47647                  21534139.8994
        31.0004         30.5004
  25042785.8254   23711752.96443  18476659.41445                  25042799.1184
         5.0004          6.5004
  21677387.0214  -10956007.16648  -8394498.74147                  21677393.7594
        28.2504         26.7504
  22644599.1774   -6987625.75547  -5325272.54346                  22644605.4704
        25.0004         23.5004
  24088714.2244   -2907471.96645  -2100316.33245                  24088725.4664
        11.5004         11.2504
  24536575.4894    9802758.52145   8309955.78745                  24536584.7394
        11.0004         11.7504
 00  5  2 15 47 45.0010000  0  7G 2G 7G 8G 4G 9G24G26
  22240497.4354    5670412.16147   4423386.98546                  22240504.3294
        26.2504         25.2504
  21540449.8564    3627571.21648   2872943.68747                  21540456.3964
        31.0004         30.5004
  25056136.2714   23781908.55744  18531326.08745                  25056149.4464
         6.5004          7.5004
  21672965.0444  -10979244.19848  -8412605.49547                  21672971.8174
        28.0004         27.0004
  22640736.6534   -7007923.15047  -5341088.69146                  22640743.2164
        25.2504         23.7504
  24080901.3564   -2948526.63645  -2132306.85845                  24080911.7904
        11.7504         11.7504
  24545622.3414    9850297.37945   8346999.01145                  24545631.4274
        11.2504         11.0004
 00  5  2 15 48  0.0010000  0  7G 2G 7G 8G 4G 9G24G26
  22246088.8884    5699795.35647   4446282.96046                  22246095.8064
        26.2504         25.0004
  21546777.3884    3660822.51548   2898853.77747                  21546783.9034
        30.7504         30.0004
  25069490.2944   23852082.77244  18586007.18645                  25069503.6924
         6.7504          6.7504
  21668564.9504  -11002367.19248  -8430623.38547                  21668571.8804
        28.2504         26.7504
  22636894.1464   -7028115.61047  -5356823.06946                  22636900.6144
        25.5004         23.7504
  24073093.4584   -2989556.83945  -2164278.33145                  24073104.3604
        11.7504         11.7504
  24554676.0834    9897877.44245   8384074.30145                  24554685.3214
        11.0004         11.2504
 00  5  2 15 48 15.0010000  0  7G 2G 7G 8G 4G 9G24G26
  22251693.9584    5729249.65247   4469234.34246                  22251700.8884
        26.0004         25.2504
  21553116.9504    3694137.71948   2924813.66647                  21553123.4424
        30.7504         30.5004
  25082848.9194   23922281.81644  18640707.57945                  25082862.9154
         7.2504          7.7504
  21664187.6144  -11025369.46348  -8448547.20547                  21664194.2004
        28.5004         27.2504
  22633072.9354   -7048196.31147  -5372470.36646                  22633079.3684
        25.0004         23.7504
  24065292.0914   -3030555.68145  -2196225.34346                  24065303.2744
        11.7504         12.0004
  24563739.3024    9945504.76545   8421186.41545                  24563748.3764
        11.2504         11.2504
 00  5  2 15 48 30.0010000  0  7G 2G 7G 8G 4G 9G24G26
  22257312.3494    5758773.93147   4492240.24846                  22257319.4314
        26.0004         25.0004
  21559468.6464    3727515.38148   2950822.22047                  21559475.1734
        30.7504         30.2504
  25096211.8644   23992504.27745  18695426.28045                  25096223.7394
         7.5004          8.2504
  21659833.3254  -11048251.84848  -8466377.61147                  21659839.9814
        28.7504         27.2504
  22629272.6464   -7068166.14447  -5388031.26346                  22629279.2554
        25.0004         23.5004
  24057496.2394   -3071524.06145  -2228148.64746                  24057506.8494
        11.5004         12.2504
  24572811.2634    9993177.89345   8458334.27345                  24572819.3764
        11.5004         11.5004
 00  5  2 15 48 45.0010000  0  7G 2G 7G 8G 4G 9G24G26
  22262943.1534    5788364.12047   4515297.51546                  22262950.1654
        26.0004         25.2504
  21565831.2784    3760951.24148   2976876.12847                  21565837.7594
        30.7504         30.2504
  25109578.1614   24062745.53845  18750159.59845                  25109590.4464
         8.2504          8.2504
  21655501.2164  -11071018.05448  -8484117.48747                  21655507.9544
        28.7504         27.5004
  22625492.7394   -7088028.86747  -5403508.71046                  22625499.2434
        25.2504         23.5004
  24049704.8414   -3112465.71945  -2260051.10545                  24049716.3994
        11.5004         11.7504
  24581891.0444   10040892.30445   8495514.26045                  24581900.8104
        11.2504         11.2504
 00  5  2 15 49  0.0010000  0  7G 2G 7G 8G 4G 9G24G26
  22268587.0214    5818022.11947   4538407.62046                  22268594.2674
        26.2504         25.2504
  21572205.3804    3794446.91048   3002976.63447                  21572211.8724
        30.7504         30.5004
  25122949.4114   24133007.30745  18804908.92345                  25122962.7044
         9.2504          8.7504
  21651191.3414  -11093666.01748  -8501765.22547                  21651197.9744
        29.0004         27.7504
  22621733.8414   -7107782.47347  -5418901.12446                  22621740.2394
        24.7504         23.7504
  24041918.6924   -3153378.55945  -2291931.09646                  24041930.0634
        11.5004         12.2504
  24590979.2784   10088649.46345   8532727.56245                  24590988.0834
        11.2504         11.5004
 00  5  2 15 49 15.0010000  0  7G 2G 7G 8G 4G 9G24G26
  22274243.3254    5847746.60447   4561569.53746                  22274250.4074
        26.2504         25.5004
  21578590.4744    3828000.65848   3029122.40247                  21578596.9784
        30.7504         30.5004
  25136323.2864   24203287.72845  18859672.75345                  25136337.2824
         9.2504          8.5004
  21646903.8104  -11116196.92448  -8519321.75047                  21646910.4074
        28.7504         27.7504
  22617995.2714   -7127428.12447  -5434209.41246                  22618001.7744
        25.0004         23.7504
  24034138.6224   -3194263.66845  -2323789.49146                  24034150.1104
        11.2504         12.0004
  24600074.6304   10136447.52145   8569972.72245                  24600083.6224
        10.7504         10.7504
 00  5  2 15 49 30.0010000  0  7G 2G 7G 8G 4G 9G24G26
  22279912.6464    5877539.89047   4584785.07146                  22279919.8924
        26.2504         25.5004
  21584987.1694    3861614.73148   3055315.17547                  21584993.8134
        30.5004         30.5004
  25149701.0834   24273588.95345  18914452.82045                  25149713.7434
        10.0004          8.7504
  21642639.1064  -11138608.09648  -8536784.97647                  21642645.6694
        29.0004         27.7504
  22614277.8964   -7146963.36347  -5449431.67746                  22614284.4114
        25.0004         23.7504
  24026364.5524   -3235118.31445  -2355624.16445                  24026374.8104
        11.2504         11.7504
  24609178.9354   10184288.43445   8607251.29945                  24609187.4464
        10.7504         11.0004
 00  5  2 15 49 45.0010000  0  7G 2G 7G 8G 4G 9G24G26
  22285594.9424    5907401.02947   4608053.46746                  22285602.2594
        25.7504         25.5004
  21591394.6854    3895287.77648   3081553.89947                  21591401.1884
        30.2504         30.5004
  25163082.8254   24343909.58445  18969248.02445                  25163095.2744
         9.0004          9.0004
  21638397.0524  -11160900.38148  -8554155.56447                  21638403.8134
        29.5004         28.0004
  22610581.4424   -7166388.89647  -5464568.44346                  22610588.0754
        25.0004         24.2504
  24018595.3494   -3275943.26545  -2387435.68146                  24018605.9934
        11.2504         12.2504
  24618290.8254   10232170.76145   8644562.11445                  24618299.8764
        10.7504         10.7504
 00  5  2 15 50  0.0010000  0  7G 2G 7G 8G 4G 9G24G26
  22291290.3024    5937330.00147   4631374.72346                  22291297.6184
        26.0004         25.2504
  21597813.8494    3929019.49048   3107838.34147                  21597820.4114
        30.5004         30.2504
  25176468.1384   24414249.08545  19024057.86745                  25176480.5874
         9.2504          9.5004
  21634177.6774  -11183073.43348  -8571433.24347                  21634184.2514
        29.5004         27.7504
  22606905.5364   -7185704.67747  -5479619.69346                  22606912.2284
        24.7504         24.0004
  24010832.6224   -3316738.40545  -2419223.97946                  24010844.6614
        11.2504         12.2504
  24627410.3644   10280093.93045   8681904.76845                  24627419.3924
        11.0004         10.2504
 00  5  2 15 50 15.0010000  0  7G 2G 7G 8G 4G 9G24G26
  22296999.3334    5967329.53047   4654750.95046                  22297006.5094
        25.5004         25.2504
  21604244.1534    3962812.31948   3134170.40047                  21604250.7164
        30.5004         30.0004
  25189857.3804   24484610.02845  19078884.44845                  25189871.9384
         9.5004          8.7504
  21629981.4814  -11205124.47048  -8588615.84347                  21629988.0094
        29.2504         27.7504
  22603251.5834   -7204907.70247  -5494583.08446                  22603258.1694
        25.2504         23.7504
  24003074.9034   -3357500.54545  -2450986.57246                  24003086.3454
        10.7504         12.5004
  24636537.8334   10328060.40045   8719281.16945                  24636546.2284
        10.7504         10.7504
 00  5  2 15 50 30.0010000  0  7G 2G 7G 8G 4G 9G24G26
  22302720.8964    5997397.01247   4678180.14246                  22302727.9784
        26.0004         25.0004
  21610685.9424    3996663.48548   3160547.92347                  21610692.4584
        30.5004         30.0004
  25203250.3804   24554989.23245  19133725.26845                  25203264.2594
         8.7504          8.7504
  21625808.0444  -11227055.70548  -8605705.09147                  21625814.3494
        29.5004         27.5004
  22599618.0914   -7224000.44847  -5509460.54446                  22599624.8884
        25.0004         23.7504
  23995323.8024   -3398232.20845  -2482725.40646                  23995334.3064
        10.7504         12.2504
  24645673.5054   10376067.02345   8756688.84345                  24645682.6144
        10.7504         10.5004
 00  5  2 15 50 45.0010000  0  7G 2G 7G 8G 4G 9G24G26
  22308455.3884    6027532.40847   4701662.25746                  22308462.6694
        26.0004         25.2504
  21617138.4814    4030572.40548   3186970.44747                  21617144.9744
        30.5004         30.2504
  25216645.9894   24625386.39045  19188580.02445                  25216661.5444
         8.7504          8.2504
  21621657.6924  -11248867.07348  -8622700.94447                  21621664.0214
        29.5004         27.5004
  22596006.1694   -7242982.71047  -5524251.90846                  22596012.8374
        25.0004         23.5004
  23987578.7244   -3438933.20745  -2514440.34046                  23987589.9194
        10.7504         12.5004
  24654815.5364   10424113.18445   8794127.36245                  24654824.2944
        10.7504         10.5004
 00  5  2 15 51  0.0010000  0  6G 2G 7G 4G 9G24G26
  22314202.3724    6057733.56047   4725195.60246                  22314209.5604
        26.0004         25.0004
  21623601.7714    4064536.82448   3213436.21647                  21623608.2984
        30.7504         30.0004
  21617529.2944  -11270560.52848  -8639604.90947                  21617535.3994
        29.7504         27.5004
  22592414.4274   -7261856.37547  -5538958.65346                  22592421.0484
        25.2504         23.7504
  23979839.4194   -3479605.28845  -2546132.76846                  23979851.0714
        11.0004         12.5004
  24663966.0604   10472196.39145   8831594.69645                  24663975.2164
        10.2504         10.0004
 00  5  2 15 51 15.0010000  0  6G 2G 7G 4G 9G24G26
  22319962.0284    6088001.04947   4748780.63846                  22319969.4624
        26.0004         25.2504
  21630075.6464    4098557.04548   3239945.46747                  21630082.1144
        30.7504         30.0004
  21613423.6774  -11292135.24848  -8656416.35747                  21613430.1924
        29.5004         27.7504
  22588843.7634   -7280620.72647  -5553580.21346                  22588850.4194
        25.5004         24.0004
  23972105.4114   -3520247.68345  -2577802.02146                  23972115.9624
        11.0004         12.2504
  24673123.7784   10520316.84245   8869091.09145                  24673133.4744
        10.5004         10.0004
 00  5  2 15 51 30.0010000  0  6G 2G 7G 4G 9G24G26
  22325734.8724    6118336.54747   4772418.66046                  22325742.1884
        26.0004         25.2504
  21636560.3104    4132634.39548   3266499.23647                  21636566.9194
        30.5004         30.2504
  21609341.1464  -11313589.21248  -8673133.71047                  21609347.7204
        29.5004         27.5004
  22585294.2244   -7299273.87647  -5568115.13046                  22585300.7634
        25.0004         23.7504
  23964377.4504   -3560858.47245  -2609446.68846                  23964388.2124
        11.5004         12.5004
  24682287.6694   10568475.68345   8906617.38845                  24682297.1424
        10.0004         10.0004
 00  5  2 15 51 45.0010000  0  6G 2G 7G 4G 9G24G26
  22331520.3414    6148739.63247   4796109.35846                  22331527.6464
        25.5004         25.0004
  21643055.9114    4166768.25548   3293097.04047                  21643062.5674
        30.5004         30.0004
  21605281.5054  -11334922.69048  -8689757.17847                  21605287.9034
        29.5004         27.2504
  22581765.8254   -7317816.04647  -5582563.56746                  22581772.1304
        25.2504         24.0004
  23956655.3254   -3601437.69846  -2641066.75146                  23956667.2354
        12.2504         12.5004
  24691459.5134   10616672.03745   8944172.92345                  24691468.4814
         9.7504         10.2504
 00  5  2 15 52  0.0010000  0  6G 2G 7G 4G 9G24G26
  22337318.5914    6179208.86947   4819851.60046                  22337325.9664
        25.5004         25.0004
  21649561.7394    4200956.87948   3319737.51547                  21649568.3134
        30.5004         30.0004
  21601244.4664  -11356136.81848  -8706287.64547                  21601250.7004
        29.7504         27.5004
  22578258.1774   -7336248.54847  -5596926.54646                  22578264.6104
        25.2504         24.0004
  23948938.9814   -3641986.74546  -2672663.29046                  23948950.7634
        12.0004         12.5004
  24700637.7634   10664904.07045   8981756.21145                  24700647.6104
         9.7504         10.2504
 00  5  2 15 52 15.0010000  0  6G 2G 7G 4G 9G24G26
  22343129.9274    6209747.41947   4843647.84946                  22343137.3494
        25.7504         25.2504
  21656078.5834    4235203.19548   3346422.94447                  21656085.2514
        30.2504         30.2504
  21597231.0444  -11377228.24248  -8722722.50047                  21597237.3494
        29.7504         27.7504
  22574772.1384   -7354568.08047  -5611201.50246                  22574778.5014
        25.5004         24.2504
  23941229.2004   -3682501.99946  -2704233.52746                  23941240.1264
        12.5004         12.7504
  24709823.0364   10713174.44345   9019369.43445                  24709832.9314
         9.7504         10.2504
 00  5  2 15 52 30.0010000  0  6G 2G 7G 4G 9G24G26
  22348954.1774    6240354.70947   4867497.66246                  22348961.4464
        25.5004         25.0004
  21662606.2314    4269506.34748   3373152.66047                  21662612.8884
        30.2504         30.2504
  21593240.7314  -11398197.40148  -8739062.08747                  21593246.9784
        29.7504         27.7504
  22571307.2314   -7372774.97747  -5625388.68646                  22571313.7244
        25.7504         24.5004
  23933525.3724   -3722983.85246  -2735777.72546                  23933535.8994
        12.2504         12.7504
  24719015.3414   10761482.16345   9057011.71245                  24719025.0954
         9.7504         10.0004
 00  5  2 15 52 45.0010000  0  6G 2G 7G 4G 9G24G26
  22354791.4974    6271028.88347   4891399.59646                  22354798.7434
        25.5004         25.0004
  21669144.3644    4303864.14148   3399924.95947                  21669151.0674
        30.5004         30.0004
  21589273.3964  -11419045.81348  -8755307.58347                  21589279.6884
        30.2504         28.0004
  22567863.9504   -7390870.89947  -5639489.39746                  22567870.2674
        26.2504         24.5004
  23925827.9424   -3763433.83046  -2767297.06546                  23925838.6104
        12.7504         12.5004
  24728214.6614   10809824.92645   9094681.32345                  24728224.0404
         9.7504          9.5004
 00  5  2 15 53  0.0020000  0  6G 2G 7G 4G 9G24G26
  22360641.9794    6301773.84247   4915356.69046                  22360649.3424
        25.2504         24.7504
  21675693.4004    4338280.47948   3426742.87747                  21675700.1394
        30.2504         30.2504
  21585329.1274  -11439773.00248  -8771458.61647                  21585335.4434
        30.0004         28.0004
  22564441.6274   -7408855.11947  -5653503.06946                  22564448.1074
        26.2504         24.5004
  23918136.4554   -3803852.68346  -2798792.19546                  23918147.0644
        12.5004         12.7504
  24737422.1434   10858207.34645   9132381.83745                  24737431.1114
         9.2504         10.0004
 00  5  2 15 53 15.0020000  0  6G 2G 7G 4G 9G24G26
  22366505.3774    6332586.88847   4939366.84246                  22366512.5064
        25.2504         24.7504
  21682253.1824    4372751.96748   3453603.76347                  21682259.8614
        30.2504         30.0004
  21581408.8544  -11460374.33648  -8787511.58747                  21581415.1234
        30.2504         28.0004
  22561041.2754   -7426723.50747  -5667426.48346                  22561047.6744
        26.0004         24.5004
  23910452.2754   -3844233.10846  -2830257.37546                  23910463.3544
        12.7504         12.7504
  24746635.6194   10906624.01945   9170109.04145                  24746645.1274
         9.2504          9.2504
 00  5  2 15 53 30.0020000  0  6G 2G 7G 4G 9G24G26
  22372381.7914    6363467.55547   4963429.66946                  22372388.8384
        25.2504         24.7504
  21688823.4794    4407278.03448   3480507.18347                  21688830.1584
        30.0004         30.0004
  21577511.7214  -11480853.59648  -8803469.43447                  21577517.9904
        30.5004         28.2504
  22557662.4004   -7444479.64347  -5681262.43046                  22557668.8114
        26.5004         24.7504
  23902774.4944   -3884580.24346  -2861696.60346                  23902785.5844
        12.7504         13.2504
  24755855.2444   10955075.06945   9207863.01445                  24755863.9324
         9.0004         10.0004
 00  5  2 15 53 45.0020000  0  6G 2G 7G 4G 9G24G26
  22378271.1114    6394416.13547   4987545.42846                  22378278.1354
        25.5004         24.7504
  21695403.8384    4441858.71048   3507453.15347                  21695410.6464
        30.0004         29.7504
  21573638.0724  -11501210.14148  -8819331.65747                  21573644.3654
        30.7504         28.2504
  22554305.0884   -7462123.10247  -5695010.57446                  22554311.2524
        26.2504         24.5004
  23895103.2684   -3924893.48846  -2893109.42546                  23895114.7564
        13.2504         13.0004
  24765082.3544   11003560.46845   9245643.75745                  24765092.1074
         9.0004         10.0004
 00  5  2 15 54  0.0020000  0  6G 2G 7G 4G 9G24G26
  22384173.5644    6425432.93947   5011714.35146                  22384180.4364
        25.5004         24.5004
  21701994.6974    4476494.00148   3534441.68447                  21702001.3074
        30.0004         29.7504
  21569787.5724  -11521443.67748  -8835098.02547                  21569793.8654
        30.7504         28.2504
  22550969.1354   -7479653.45947  -5708670.58746                  22550975.5214
        26.5004         24.5004
  23887438.0104   -3965172.29546  -2924495.42846                  23887449.0414
        13.0004         12.7504
  24774315.0884   11052079.89045   9283450.99945                  24774324.2914
         9.0004          9.7504
 00  5  2 15 54 15.0020000  0  6G 2G 7G 4G 9G24G26
  22390089.0494    6456518.72247   5035937.01446                  22390096.0614
        25.7504         24.7504
  21708596.0254    4511184.43548   3561473.18147                  21708602.6354
        30.0004         29.7504
  21565961.0644  -11541553.13048  -8850767.71447                  21565967.4044
        30.7504         28.5004
  22547654.7444   -7497069.75447  -5722241.71846                  22547661.3184
        26.5004         24.7504
  23879780.2684   -4005415.51746  -2955853.69546                  23879791.4634
        13.0004         12.5004
  24783554.4244   11100633.77345   9321285.15045                  24783563.2054
         8.0004          9.0004
 00  5  2 15 54 30.0020000  0  6G 2G 7G 4G 9G24G26
  22396017.6434    6487674.60647   5060214.30846                  22396025.0884
        25.5004         25.0004
  21715208.0644    4545930.74548   3588548.22147                  21715214.5924
        30.2504         30.0004
  21562158.0724  -11561537.11948  -8866339.63647                  21562164.4474
        30.2504         28.5004
  22544362.6194   -7514370.65547  -5735722.93646                  22544368.9364
        26.7504         25.0004
  23872128.8384   -4045622.00946  -2987183.34246                  23872139.7524
        12.5004         13.0004
  24792800.6274   11149222.69945   9359146.50945                  24792810.4394
         8.2504          9.7504
 00  5  2 15 54 45.0020000  0  6G 2G 7G 4G 9G24G26
  22401959.0884    6518896.25347   5084542.85246                  22401966.3934
        25.2504         24.5004
  21721829.9634    4580728.48348   3615663.32947                  21721836.5614
        30.2504         30.0004
  21558378.3614  -11581399.86548  -8881817.08147                  21558384.6314
        30.5004         28.7504
  22541091.4004   -7531560.24047  -5749117.41246                  22541097.8224
        26.7504         25.0004
  23864483.9634   -4085795.62746  -3018487.37046                  23864494.6314
        12.7504         13.0004
  24802052.7754   11197842.02045   9397031.63545                  24802061.9794
         8.7504         10.0004
 00  5  2 15 55  0.0020000  0  6G 2G 7G 4G 9G24G26
  22407912.6194    6550182.19247   5108921.47946                  22407919.9714
        25.2504         24.5004
  21728461.2364    4615575.85348   3642817.11347                  21728467.8814
        30.2504         29.7504
  21554621.7134  -11601142.42948  -8897200.88147                  21554628.1114
        30.7504         28.2504
  22537841.3614   -7548639.86247  -5762426.19946                  22537847.7714
        26.7504         25.0004
  23856845.0334   -4125937.61646  -3049766.76246                  23856855.8304
        12.7504         12.7504
  24811309.6744   11246489.80245   9434938.88345                  24811319.1934
         8.2504         10.2504
 00  5  2 15 55 15.0020000  0  6G 2G 7G 4G 9G24G26
  22413879.4864    6581537.74747   5133354.36046                  22413886.7444
        25.2504         24.7504
  21735102.7684    4650478.02148   3670013.60047                  21735109.3654
        30.2504         29.7504
  21550888.2994  -11620759.37348  -8912486.79147                  21550894.5334
        30.2504         28.5004
  22534613.3544   -7565603.95347  -5775644.96746                  22534619.8344
        27.0004         24.7504
  23849213.6504   -4166042.38146  -3081017.13746                  23849223.1934
        13.0004         13.2504
  24820573.8144   11295170.84245   9472872.07345                  24820581.9044
         9.0004          9.7504
 00  5  2 15 55 30.0020000  0  6G 2G 7G 4G 9G24G26
  22419858.8464    6612959.63447   5157838.92646                  22419866.0334
        25.2504         24.5004
  21741754.2604    4685431.34648   3697249.94647                  21741760.7524
        30.2504         29.7504
  21547178.6894  -11640253.83248  -8927677.26247                  21547184.9594
        30.2504         28.5004
  22531406.6044   -7582455.63147  -5788776.14046                  22531412.8964
        26.7504         25.0004
  23841588.6434   -4206112.90046  -3112240.82846                  23841599.4514
        13.0004         12.7504
  24829842.7294   11343881.48845   9510828.35945                  24829852.4244
         8.2504          9.5004
 00  5  2 15 55 45.0020000  0  6G 2G 7G 4G 9G24G26
  22425850.7214    6644447.33747   5182374.78346                  22425857.7094
        25.5004         24.5004
  21748415.2214    4720435.05548   3724525.54847                  21748421.6784
        30.5004         29.7504
  21543492.4164  -11659625.97048  -8942772.41747                  21543498.4984
        30.2504         28.2504
  22528220.9794   -7599195.16447  -5801819.92346                  22528227.2714
        27.2504         25.0004
  23833969.5804   -4246149.39546  -3143438.00846                  23833980.9514
        12.7504         12.7504
  24839117.4944   11392620.86745   9548806.98045                  24839126.8614
         7.7504          9.0004
 00  5  2 15 56  0.0020000  0  6G 2G 7G 4G 9G24G26
  22431855.7834    6676003.36147   5206963.87446                  22431862.5924
        25.5004         24.2504
  21755086.1664    4755491.21848   3751842.03347                  21755092.7054
        30.5004         30.0004
  21539829.6434  -11678873.29548  -8957770.31447                  21539835.8304
        30.5004         28.5004
  22525057.2834   -7615820.02847  -5814774.36346                  22525063.7054
        27.2504         25.2504
  23826357.3854   -4286149.30446  -3174606.68846                  23826368.6154
        12.5004         12.7504
  24848398.6664   11441390.86745   9586809.49045                  24848408.0214
         8.7504         10.0004
 00  5  2 15 56 15.0020000  0  6G 2G 7G 4G 9G24G26
  22437873.3144    6707625.86447   5231604.76946                  22437880.0764
        25.5004         24.0004
  21761766.7364    4790597.85048   3779197.84047                  21761773.4044
        30.7504         30.0004
  21536190.6274  -11697997.26548  -8972672.09847                  21536196.9434
        30.5004         28.5004
  22521915.3304   -7632331.87147  -5827640.72946                  22521921.6584
        27.2504         25.0004
  23818752.4004   -4326114.17146  -3205748.07146                  23818763.3034
        12.2504         12.7504
  24857684.8694   11490189.18945   9624834.06845                  24857694.2364
         8.7504         10.0004
 00  5  2 15 56 30.0020000  0  6G 2G 7G 4G 9G24G26
  22443902.9864    6739312.47347   5256295.61546                  22443910.0454
        25.2504         24.2504
  21768456.5964    4825752.29148   3806590.90447                  21768463.1114
        30.7504         30.0004
  21532574.1974  -11717000.13048  -8987479.50747                  21532580.5254
        30.5004         28.2504
  22518794.4244   -7648732.85647  -5840420.71346                  22518800.7174
        27.2504         25.0004
  23811153.9474   -4366046.05546  -3236863.73846                  23811164.4044
        12.5004         12.5004
  24866976.5024   11539013.06545   9662878.53945                  24866985.4944
         9.2504         10.0004
 00  5  2 15 56 45.0020000  0  6G 2G 7G 4G 9G24G26
  22449945.9634    6771067.55247   5281039.79846                  22449952.9514
        25.5004         24.2504
  21775156.1044    4860958.67048   3834024.43247                  21775162.5724
        31.0004         29.7504
  21528982.0964  -11735877.30448  -9002188.97747                  21528988.2834
        30.5004         28.5004
  22515695.2684   -7665018.44047  -5853110.77546                  22515701.6314
        27.0004         25.2504
  23803561.8144   -4405940.25346  -3267950.03446                  23803572.8224
        13.0004         12.7504
  24876272.6974   11587866.40345   9700946.00745                  24876281.2094
         9.5004         10.2504
 00  5  2 15 57  0.0020000  0  6G 2G 7G 4G 9G24G26
  22456001.3694    6802888.43947   5305835.28346                  22456008.5804
        25.2504         24.0004
  21781864.9394    4896214.09148   3861496.17847                  21781871.4324
        31.2504         30.0004
  21525413.3384  -11754631.22948  -9016802.41247                  21525419.6544
        30.5004         28.2504
  22512617.6114   -7681191.09247  -5865712.83746                  22512623.9514
        26.7504         25.2504
  23795977.0104   -4445799.13946  -3299008.83946                  23795987.7134
        13.2504         13.0004
  24885574.2134   11636746.21045   9739034.07845                  24885584.6824
         9.2504          9.7504
 00  5  2 15 57 15.0020000  0  6G 2G 7G 4G 9G24G26
  22462069.0494    6834776.55247   5330683.15646                  22462075.9554
        25.5004         24.2504
  21788583.3144    4931519.59248   3889006.94647                  21788589.8184
        31.2504         30.2504
  21521868.2524  -11773260.27548  -9031318.53447                  21521874.6974
        30.0004         28.5004
  22509561.8854   -7697249.26647  -5878225.69646                  22509568.2254
        27.2504         25.2504
  23788399.2444   -4485621.11546  -3330038.87046                  23788409.8304
        13.0004         13.5004
  24894881.3694   11685653.28245   9777143.38245                  24894891.4984
         9.5004         10.2504
 00  5  2 15 57 30.0020000  0  6G 2G 7G 4G 9G24G26
  22468150.0024    6866730.62447   5355582.41646                  22468156.7874
        25.2504         24.5004
  21795311.1584    4966873.80548   3916555.67647                  21795317.6744
        31.2504         30.2504
  21518346.8774  -11791765.48848  -9045738.16547                  21518353.2294
        30.0004         28.7504
  22506527.6824   -7713194.04547  -5890650.19746                  22506534.3034
        26.5004         25.2504
  23780827.8464   -4525407.13746  -3361040.88046                  23780838.0924
        13.0004         13.2504
  24904192.4394   11734586.06045   9815272.73045                  24904202.3114
         9.2504         10.5004
 00  5  2 15 57 45.0020000  0  6G 2G 7G 4G 9G24G26
  22474243.2754    6898751.50847   5380533.73646                  22474250.2524
        25.2504         24.0004
  21802048.2134    5002277.26448   3944142.77047                  21802054.7874
        31.2504         30.0004
  21514849.1974  -11810145.71348  -9060060.40347                  21514855.7254
        30.0004         28.7504
  22503515.4164   -7729024.31147  -5902985.45946                  22503521.9204
        27.0004         25.2504
  23773263.9794   -4565156.00346  -3392013.95746                  23773273.7564
        13.0004         13.5004
  24913509.5574   11783544.91245   9853422.40045                  24913519.6274
         9.5004         10.2504
 00  5  2 15 58  0.0020000  0  6G 2G 7G 4G 9G24G26
  22480349.9324    6930841.90347   5405539.21746                  22480357.1194
        25.2504         24.0004
  21808795.0804    5037732.41148   3971770.14847                  21808801.4204
        31.2504         30.2504
  21511375.7604  -11828398.11248  -9074283.03047                  21511382.2754
        30.0004         28.7504
  22500525.3224   -7744737.16547  -5915229.24146                  22500531.8504
        26.7504         25.2504
  23765707.6434   -4604864.76746  -3422955.76946                  23765717.6894
        13.2504         13.2504
  24922831.0884   11832532.18745   9891594.18545                  24922840.3854
         9.5004         10.0004
 00  5  2 15 58 15.0020000  0  6G 2G 7G 4G 9G24G26
  22486469.0724    6962998.61247   5430596.36646                  22486476.2484
        25.2504         24.0004
  21815551.2524    5073235.80148   3999435.11547                  21815557.7444
        31.5004         30.0004
  21507926.3694  -11846525.66448  -9088408.38047                  21507932.8964
        30.0004         29.0004
  22497556.9554   -7760335.67647  -5927383.91446                  22497563.4944
        26.7504         25.2504
  23758158.4554   -4644536.37846  -3453868.63346                  23758168.6784
        13.5004         13.7504
  24932158.0494   11881544.21645   9929785.28945                  24932166.6894
        10.0004         10.0004
 00  5  2 15 58 30.0020000  0  6G 2G 7G 4G 9G24G26
  22492600.8144    6995220.91947   5455704.63246                  22492608.2364
        25.0004         24.0004
  21822316.2834    5108786.43748   4027136.90247                  21822322.6934
        31.5004         30.0004
  21504500.1354  -11864528.96948  -9102436.91347                  21504506.6744
        30.2504         28.7504
  22494610.2214   -7775820.41947  -5939449.94346                  22494616.5844
        27.0004         25.2504
  23750616.0964   -4684171.32246  -3484752.91846                  23750626.4714
        13.5004         14.0004
  24941489.3934   11930579.72345   9967994.68345                  24941499.8264
        10.2504         10.5004
 00  5  2 15 58 45.0020000  0  6G 2G 7G 4G 9G24G26
  22498745.5724    7027512.21647   5480866.67246                  22498752.8304
        25.0004         24.0004
  21829090.7524    5144387.32748   4054877.84347                  21829097.2324
        31.0004         30.0004
  21501098.5644  -11882404.39348  -9116365.79847                  21501105.0214
        30.2504         29.2504
  22491686.0184   -7791187.96347  -5951424.65446                  22491692.3694
        27.0004         25.5004
  23743081.3544   -4723766.06646  -3515605.89846                  23743092.1974
        14.0004         14.2504
  24950825.9004   11979641.69745  10006224.73245                  24950836.1464
        10.0004         10.5004
 00  5  2 15 59  0.0020000  0  6G 2G 7G 4G 9G24G26
  22504903.0414    7059869.89547   5506080.43146                  22504910.2294
        25.0004         24.0004
  21835874.6504    5180035.65548   4082655.74547                  21835881.2714
        31.2504         30.5004
  21497721.0574  -11900154.33348  -9130196.90747                  21497727.4084
        30.2504         29.2504
  22488783.3544   -7806440.66047  -5963309.86046                  22488789.7994
        26.7504         25.5004
  23735554.0574   -4763322.89546  -3546429.31746                  23735565.0294
        14.0004         14.5004
  24960166.0884   12028727.08645  10044472.94645                  24960174.9754
        10.2504         10.5004
 00  5  2 15 59 15.0020000  0  6G 2G 7G 4G 9G24G26
  22511073.3614    7092294.35547   5531346.22846                  22511080.6784
        24.7504         23.7504
  21842667.2834    5215731.60348   4110470.76347                  21842673.8224
        31.5004         30.2504
  21494367.3074  -11917778.19348  -9143929.76647                  21494373.7174
        30.5004         29.5004
  22485902.7834   -7821577.88347  -5975105.09447                  22485909.1234
        27.0004         25.7504
  23728033.9084   -4802841.04346  -3577222.61046                  23728044.1314
        14.5004         14.5004
  24969512.2054   12077835.84145  10082739.44845                  24969521.6434
        10.2504         10.7504
 00  5  2 15 59 30.0020000  0  6G 2G 7G 4G 9G24G26
  22517256.8144    7124788.26947   5556666.13846                  22517263.8264
        24.5004         24.0004
  21849469.4164    5251477.56048   4138324.74247                  21849476.0254
        31.5004         30.2504
  21491038.1744  -11935273.07148  -9157562.12547                  21491044.5844
        30.5004         29.5004
  22483044.7834   -7836596.83247  -5986808.16946                  22483051.3814
        26.5004         25.5004
  23720521.8544   -4842317.55746  -3607983.45346                  23720532.1464
        14.7504         14.5004
  24978861.7524   12126970.22545  10121025.86845                  24978871.6234
         9.7504         10.5004
 00  5  2 15 59 45.0020000  0  6G 2G 7G 4G 9G24G26
  22523453.3144    7157350.66547   5582039.40646                  22523460.4084
        24.5004         23.7504
  21856281.0724    5287272.38048   4166216.79947                  21856287.4714
        31.5004         30.2504
  21487733.4554  -11952639.76848  -9171094.60247                  21487739.8774
        30.2504         29.5004
  22480209.2994   -7851498.21947  -5998419.62947                  22480216.0144
        26.7504         25.7504
  23713017.0414   -4881753.18246  -3638712.43846                  23713027.2754
        14.7504         15.0004
  24988216.0964   12176128.80145  10159331.15445                  24988226.4944
        10.2504         10.0004
 00  5  2 16  0  0.0020000  0  6G 2G 7G 4G 9G24G26
  22529662.2444    7189978.66247   5607463.79446                  22529669.4204
        24.7504         23.7504
  21863101.1744    5323112.85348   4194144.42847                  21863107.6664
        31.5004         30.2504
  21484452.5724  -11969881.07348  -9184529.36647                  21484459.0884
        30.5004         29.5004
  22477395.3544   -7866284.75747  -6009941.60346                  22477401.8344
        26.7504         25.5004
  23705520.4864   -4921150.46646  -3669411.54446                  23705530.8264
        14.7504         15.0004
  24997575.0334   12225308.31445  10197652.76345                  24997585.5254
        10.2504         10.5004
 00  5  2 16  0 15.0020000  0  6G 2G 7G 4G 9G24G26
  22535883.7214    7222673.79547   5632940.50846                  22535891.1664
        24.5004         24.0004
  21869930.4474    5359000.22148   4222108.59847                  21869937.0924
        31.5004         30.5004
  21481195.8774  -11986995.18348  -9197865.02247                  21481202.4164
        30.5004         29.7504
  22474603.8384   -7880954.79547  -6021372.79946                  22474610.3544
        26.5004         25.5004
  23698030.5104   -4960507.58146  -3700079.35846                  23698040.3934
        15.0004         14.7504
  25006937.2444   12274509.93545  10235991.59745                  25006947.3144
        10.0004         10.0004
 00  5  2 16  0 30.0020000  0  6G 2G 7G 4G 9G24G26
  22542118.4084    7255436.79247   5658470.09946                  22542125.6074
        24.5004         23.5004
  21876768.4714    5394935.04448   4250109.74647                  21876774.9634
        31.0004         30.2504
  21477963.5414  -12003981.03248  -9211100.73547                  21477969.8464
        30.7504         29.7504
  22471834.3304   -7895507.45447  -6032712.52846                  22471840.7644
        26.7504         25.5004
  23690548.9794   -4999823.67146  -3730715.18946                  23690558.9084
        15.0004         14.7504
  25016304.7444   12323733.82945  10274347.76845                  25016314.3464
        10.0004         10.5004
 00  5  2 16  0 45.0020000  0  6G 2G 7G 4G 9G24G26
  22548365.5414    7288265.53447   5684050.91046                  22548372.8344
        23.7504         23.5004
  21883615.2604    5430914.93148   4278146.00647                  21883621.8574
        31.0004         30.2504
  21474755.1114  -12020840.62548  -9224238.06247                  21474761.5214
        30.7504         29.5004
  22469087.1194   -7909944.64547  -6043962.28346                  22469093.7874
        26.7504         25.5004
  23683074.4864   -5039100.43246  -3761320.39346                  23683085.0494
        14.7504         14.7504
  25025675.6974   12372977.42645  10312719.31145                  25025684.8424
        10.0004         10.2504
 00  5  2 16  1  0.0020000  0  6G 2G 7G 4G 9G24G26
  22554625.2754    7321160.36247   5709683.22346                  22554632.5574
        24.5004         23.5004
  21890470.6044    5466939.90048   4306217.39947                  21890477.1784
        31.0004         30.0004
  21471571.1044  -12037573.50448  -9237276.65547                  21471577.5844
        30.5004         29.7504
  22466362.0884   -7924265.86347  -6055121.66846                  22466368.6624
        26.5004         25.5004
  23675608.2214   -5078337.34246  -3791894.52546                  23675618.9594
        15.0004         15.2504
  25035049.6894   12422240.73345  10351106.18445                  25035059.3504
         9.7504         10.2504
 00  5  2 16  1 15.0020000  0  6G 2G 7G 4G 9G24G26
  22560897.4714    7354121.50247   5735367.20346                  22560904.9984
        24.2504         23.5004
  21897334.5254    5503010.01548   4334323.97147                  21897341.0764
        30.7504         30.0004
  21468411.1114  -12054179.09748  -9250216.06247                  21468417.5574
        30.5004         29.5004
  22463658.8384   -7938470.72647  -6066190.39246                  22463665.2254
        26.5004         25.5004
  23668149.4244   -5117533.88646  -3822437.20546                  23668158.8614
        15.5004         15.0004
  25044428.1114   12471523.47545  10389508.24645                  25044438.5684
         9.7504         10.2504
 00  5  2 16  1 30.0020000  0  6G 2G 7G 4G 9G24G26
  22567183.2684    7387153.19747   5761106.16046                  22567190.5374
        24.5004         23.2504
  21904207.8614    5539129.19948   4362468.77347                  21904214.4944
        30.5004         30.0004
  21465276.2444  -12070652.98748  -9263052.84447                  21465282.6784
        31.0004         29.7504
  22460978.9474   -7952554.85147  -6077165.03147                  22460985.3114
        26.7504         25.7504
  23660699.2054   -5156685.44446  -3852944.83646                  23660708.9944
        15.2504         15.0004
  25053810.8224   12520829.43445  10427928.38045                  25053821.1044
         9.7504          9.7504
 00  5  2 16  1 45.0020000  0  6G 2G 7G 4G 9G24G26
  22573481.5964    7420250.67247   5786896.37646                  22573488.9004
        24.0004         23.5004
  21911089.3224    5575292.41948   4390647.89247                  21911096.0614
        30.2504         30.0004
  21462165.5254  -12086999.98148  -9275790.75047                  21462171.8184
        31.2504         29.7504
  22458320.6434   -7966522.80547  -6088049.14246                  22458327.1824
        26.5004         25.5004
  23653256.3614   -5195796.72746  -3883421.08746                  23653266.5144
        15.5004         14.7504
  25063196.5334   12570153.44545  10466362.57145                  25063206.3114
         9.5004          9.7504
 00  5  2 16  2  0.0020000  0  6G 2G 7G 4G 9G24G26
  22579792.3384    7453413.81847   5812737.77646                  22579799.6784
        24.2504         23.2504
  21917979.4554    5611499.32748   4418861.05647                  21917985.9594
        30.5004         30.0004
  21459078.9794  -12103219.81648  -9288429.57047                  21459085.3184
        31.2504         30.0004
  22455684.7524   -7980374.47547  -6098842.64347                  22455691.3144
        26.7504         25.7504
  23645821.6114   -5234867.36046  -3913865.66146                  23645831.7054
        15.2504         15.5004
  25072586.3384   12619494.96045  10504810.40345                  25072596.9004
         9.2504          9.2504
 00  5  2 16  2 15.0020000  0  6G 2G 7G 4G 9G24G26
  22586115.8074    7486644.14947   5838631.51046                  22586123.0644
        24.2504         23.2504
  21924877.8304    5647751.26048   4447109.30147                  21924884.5454
        30.0004         30.0004
  21456017.0574  -12119310.65248  -9300967.86747                  21456023.4204
        31.2504         30.0004
  22453071.3144   -7994108.17247  -6109544.22647                  22453077.6544
        26.5004         25.7504
  23638394.4084   -5273895.61046  -3944277.21046                  23638404.6544
        15.2504         15.0004
  25081979.4004   12668855.13345  10543272.74745                  25081989.7054
         9.2504         10.0004
 00  5  2 16  2 30.0020000  0  6G 2G 7G 4G 9G24G26
  22592451.9394    7519940.64547   5864576.80046                  22592459.0334
        24.2504         23.2504
  21931784.6354    5684046.91148   4475391.61147                  21931791.5644
        30.0004         30.0004
  21452979.2364  -12135273.60248  -9313406.51747                  21452985.6234
        31.7504         30.2504
  22450480.2754   -8007724.85647  -6120154.62247                  22450486.6744
        26.2504         25.7504
  23630975.7134   -5312882.29846  -3974656.36546                  23630984.9864
        15.2504         15.0004
  25091375.7524   12718232.40245  10581748.45745                  25091386.8894
         8.5004          9.7504
 00  5  2 16  2 45.0020000  0  6G 2G 7G 4G 9G24G26
  22598800.8074    7553304.02547   5890574.22046                  22598807.9714
        24.2504         23.5004
  21938699.9794    5720386.55148   4503708.20147                  21938706.6584
        30.0004         30.2504
  21449965.8074  -12151107.59548  -9325744.67647                  21449972.0764
        31.5004         30.2504
  22447911.5254   -8021223.76547  -6130673.24847                  22447917.8654
        27.0004         25.7504
  23623564.3854   -5351826.49946  -4005002.43046                  23623574.1044
        15.0004         15.0004
  25100775.5184   12767627.02545  10620237.64845                  25100785.6004
         9.0004          8.7504
 00  5  2 16  3  0.0020000  0  6G 2G 7G 4G 9G24G26
  22605162.5804    7586734.62747   5916624.01946                  22605169.8264
        24.2504         23.5004
  21945623.5334    5756770.40948   4532059.24347                  21945630.2254
        29.7504         30.0004
  21446977.6664  -12166812.22248  -9337982.03647                  21446984.0764
        31.7504         30.5004
  22445365.3384   -8034604.21647  -6141099.57247                  22445371.7954
        26.7504         25.7504
  23616161.8774   -5390727.54046  -4035314.83946                  23616172.0534
        15.2504         15.2504
  25110178.7684   12817038.92745  10658740.33245                  25110188.3464
         8.7504          8.5004
 00  5  2 16  3 15.0020000  0  6G 2G 7G 4G 9G24G26
  22611536.7524    7620231.94247   5942725.79846                  22611544.0214
        24.0004         23.5004
  21952555.2994    5793197.77348   4560444.19247                  21952562.0614
        29.7504         30.0004
  21444013.6664  -12182387.69948  -9350118.75847                  21444020.1004
        31.7504         30.5004
  22442841.4084   -8047866.57447  -6151433.86847                  22442847.9474
        26.5004         26.0004
  23608767.3774   -5429585.52146  -4065593.70746                  23608777.1314
        15.2504         15.5004
  25119583.8384   12866467.27445  10697255.82445                  25119594.4944
         8.0004          8.0004
 00  5  2 16  3 30.0020000  0  6G 2G 7G 4G 9G24G26
  22617924.6504    7653800.58647   5968883.16146                  22617931.9084
        24.2504         23.0004
  21959496.4324    5829673.05348   4588866.47347                  21959503.2524
        29.7504         29.7504
  21441075.3614  -12197829.19048  -9362151.07647                  21441081.8074
        32.0004         30.7504
  22440341.0414   -8061005.87347  -6161672.27847                  22440347.5334
        26.7504         26.0004
  23601382.0334   -5468395.57646  -4095835.23746                  23601391.8934
        15.2504         15.2504
  25128993.6194   12915916.25745  10735787.38345                  25129002.3074
         7.7504          8.2504
 00  5  2 16  3 45.0020000  0  6G 2G 7G 4G 9G24G26
  22624325.2754    7687435.68547   5995092.30746                  22624332.8034
        24.5004         23.2504
  21966445.6664    5866191.08148   4617322.06847                  21966452.5614
        30.0004         29.7504
  21438161.3614  -12213141.39948  -9374082.65447                  21438167.6314
        32.0004         30.5004
  22437863.1584   -8074026.98147  -6171818.58647                  22437869.7324
        26.7504         26.0004
  23594005.0574   -5507162.35246  -4126043.03846                  23594014.9284
        15.2504         15.0004
  25138406.7444   12965380.53545  10774330.86245                  25138415.9244
         7.7504          7.7504
 00  5  2 16  4  0.0020000  0  7G 2G 7G 5G 4G 9G24G26
  22630738.4004    7721135.85147   6021352.15446                  22630745.7874
        24.2504         23.2504
  21973402.5804    5902750.30048   4645809.75647                  21973409.5104
        30.0004         29.7504
  25251578.7294     -21607.41845
         9.2504
  21435272.1114  -12228325.52648  -9385914.42747                  21435278.3224
        32.2504         30.5004
  22435407.4794   -8086931.18247  -6181873.80647                  22435413.8074
        26.7504         25.7504
  23586636.0494   -5545886.87446  -4156217.91546                  23586645.7684
        15.0004         15.5004
  25147822.5884   13014858.24045  10812884.80345                  25147832.3304
         7.5004          8.2504
 00  5  2 16  4 15.0020000  0  7G 2G 7G 5G 4G 9G24G26
  22637164.0024    7754903.40547   6047664.49746                  22637171.3424
        24.0004         23.2504
  21980367.7604    5939352.63548   4674331.04647                  21980374.5454
        29.7504         29.7504
  25245970.1274     -51081.84645
         9.2504
  21432407.3934  -12243379.09648  -9397644.46647                  21432413.6504
        32.0004         30.5004
  22432974.8464   -8099715.95047  -6191835.96347                  22432981.1744
        27.0004         26.2504
  23579275.3614   -5584566.76246  -4186358.00746                  23579285.1624
        15.0004         15.5004
  25157239.6434   13064351.37844  10851450.76745                  25157249.7484
         7.2504          7.7504
 00  5  2 16  4 30.0020000  0  7G 2G 7G 5G 4G 9G24G26
  22643602.9794    7788740.63847   6074031.14346                  22643610.5414
        23.7504         23.0004
  21987341.5494    5976000.10248   4702887.50247                  21987348.4554
        29.5004         29.5004
  25240359.6894     -80563.39145
         9.7504
  21429568.1744  -12258299.75548  -9409270.94547                  21429574.4204
        32.2504         30.5004
  22430565.2834   -8112378.90847  -6201703.19747                  22430571.7054
        27.0004         26.0004
  23571923.4474   -5623199.31446  -4216461.21446                  23571932.8504
        14.7504         15.5004
  25166662.2054   13113861.65044  10890030.09945                  25166673.1314
         7.0004          7.5004
 00  5  2 16  4 45.0020000  0  7G 2G 7G 5G 4G 9G24G26
  22650054.9394    7822645.04747   6100450.13846                  22650062.0574
        23.7504         22.7504
  21994323.5494    6012690.02848   4731477.03947                  21994330.4794
        29.5004         29.5004
  25234748.1194    -110054.55945
        10.0004
  21426753.7994  -12273089.67748  -9420795.54947                  21426760.0574
        32.2504         30.5004
  22428178.3224   -8124922.31647  -6211477.27847                  22428184.7564
        27.0004         26.0004
  23564580.7754   -5661786.76946  -4246529.29746                  23564590.4124
        15.0004         15.5004
  25176087.0804   13163386.20345  10928620.51445                  25176098.7444
         7.7504          7.7504
 00  5  2 16  5  0.0020000  0  7G 2G 7G 5G 4G 9G24G26
  22656519.5804    7856616.62447   6126921.47946                  22656526.8144
        23.7504         23.0004
  22001313.3934    6049422.21248   4760099.50847                  22001320.4984
        29.2504         29.5004
  25229133.8384    -139555.27845    -19921.70355                  25229142.1154
        10.2504          9.2504
  21423964.2294  -12287748.74348  -9432218.18947                  21423970.5454
        32.2504         30.5004
  22425814.1894   -8137346.02247  -6221158.08247                  22425820.5764
        27.5004         26.0004
  23557246.2914   -5700328.88346  -4276562.03446                  23557256.1154
        15.0004         15.2504
  25185513.6504   13212924.61545  10967221.76345                  25185521.8694
         7.5004          7.7504
 00  5  2 16  5 15.0020000  0  7G 2G 7G 5G 4G 9G24G26
  22662996.5414    7890654.05347   6153444.13046                  22663003.7404
        23.5004         22.7504
  22008311.0804    6086195.06748   4788753.67047                  22008318.1974
        29.2504         29.5004
  25223518.5574    -169066.82545    -42917.66245                  25223526.2364
        10.5004          8.7504
  21421199.3934  -12302277.97548  -9443539.65447                  21421205.6394
        32.2504         30.2504
  22423472.5334   -8149651.19647  -6230746.52547                  22423478.9204
        27.7504         26.0004
  23549920.2684   -5738826.63346  -4306560.19746                  23549930.0684
        15.7504         15.2504
  25194942.3694   13262475.17444  11005832.47645                  25194952.6154
         7.0004          7.5004
 00  5  2 16  5 30.0020000  0  7G 2G 7G 5G 4G 9G24G26
  22669486.7754    7924760.63647   6180020.66546                  22669493.9864
        23.7504         22.5004
  22015316.9944    6123011.71848   4817441.95547                  22015323.8774
        29.5004         29.2504
  25217900.5804    -198585.93645    -65919.56445                  25217907.6394
        10.0004          8.7504
  21418459.9634  -12316674.00748  -9454757.33147                  21418466.0214
        32.2504         30.0004
  22421154.1044   -8161834.38647  -6240239.91147                  22421160.4794
        27.7504         26.0004
  23542603.5104   -5777276.34446  -4336520.94646                  23542612.6664
        15.5004         15.0004
  25204374.6274   13312040.71444  11044454.82745                  25204385.4714
         6.7504          7.5004
 00  5  2 16  5 45.0020000  0  7G 2G 7G 5G 4G 9G24G26
  22675989.3934    7958931.81647   6206647.53646                  22675996.7444
        23.7504         22.7504
  22022330.5024    6159867.30148   4846160.57347                  22022337.4204
        29.2504         29.5004
  25212281.3694    -228117.22645    -88930.92245                  25212288.6744
        10.5004          9.0004
  21415744.7754  -12330941.21148  -9465874.62347                  21415750.7994
        32.2504         30.0004
  22418857.9864   -8173900.01247  -6249641.69847                  22418864.5024
        27.7504         26.2504
  23535294.7684   -5815682.46046  -4366447.71746                  23535304.4514
        15.2504         15.5004
  25213808.7754   13361616.31644  11083085.04145                  25213819.7254
         6.7504          8.0004
 00  5  2 16  6  0.0020000  0  7G 2G 7G 5G 4G 9G24G26
  22682504.6434    7993169.16347   6233325.96246                  22682512.0064
        23.5004         22.5004
  22029351.3304    6196763.08348   4874910.52447                  22029358.3424
        29.5004         29.5004
  25206659.3144    -257659.05645   -111950.51045                  25206668.3304
        10.5004          9.0004
  21413054.9244  -12345077.70648  -9476890.06347                  21413060.9824
        32.5004         30.2504
  22416584.8074   -8185846.20947  -6258950.42247                  22416591.1934
        27.7504         26.5004
  23527995.1114   -5854043.10446  -4396339.05246                  23528004.9594
        15.2504         15.5004
  25223244.5494   13411203.15944  11121724.03145                  25223255.4754
         6.7504          8.0004
 00  5  2 16  6 15.0020000  0  7G 2G 7G 5G 4G 9G24G26
  22689032.6744    8027474.65047   6260057.48346                  22689039.9084
        23.2504         22.7504
  22036380.4394    6233700.94448   4903693.25847                  22036387.2834
        29.2504         29.5004
  25201036.3384    -287209.44045   -134976.77045                  25201044.9554
        10.2504          8.7504
  21410389.8774  -12359081.33148  -9487801.97047                  21410396.0064
        32.0004         30.2504
  22414334.6824   -8197670.87648  -6268164.44547                  22414340.9754
        28.0004         26.7504
  23520704.6114   -5892355.92346  -4426193.14146                  23520714.5534
        15.2504         15.7504
  25232683.1824   13460802.66044  11160372.86645                  25232690.8734
         7.2504          7.2504
 00  5  2 16  6 30.0020000  0  7G 2G 7G 5G 4G 9G24G26
  22695573.7134    8061847.58047   6286841.55846                  22695581.2174
        23.0004         22.5004
  22043417.3934    6270679.81748   4932507.94747                  22043424.2524
        29.5004         29.2504
  25195410.4794    -316769.13145   -158010.27745                  25195418.3224
         9.2504          7.7504
  21407750.2914  -12372952.78648  -9498610.88647                  21407756.4204
        32.5004         30.2504
  22412107.4794   -8209374.62047  -6277284.23947                  22412113.9364
        27.7504         26.7504
  23513422.6194   -5930621.49446  -4456010.38946                  23513432.5144
        15.5004         16.0004
  25242124.0414   13510413.69445  11199030.68945                  25242131.6504
         7.5004          8.0004
 00  5  2 16  6 45.0020000  0  7G 2G 7G 5G 4G 9G24G26
  22702127.4944    8096288.15947   6313678.35246                  22702134.9394
        23.2504         22.5004
  22050462.0414    6307699.62948   4961354.54147                  22050468.8854
        29.5004         29.2504
  25189784.3384    -346337.98945   -181050.96645                  25189790.2684
         8.7504          7.5004
  21405135.7994  -12386691.65048  -9509316.48247                  21405141.8224
        32.5004         30.2504
  22409903.4634   -8220957.09048  -6286309.54247                  22409909.8144
        28.0004         26.5004
  23506149.9004   -5968839.25246  -4485790.39346                  23506159.3734
        15.7504         15.7504
  25251567.5574   13560036.10645  11237697.32045                  25251578.3184
         7.7504          7.7504
 00  5  2 16  7  0.0020000  0  7G 2G 7G 5G 4G 9G24G26
  22708694.2684    8130796.67147   6340568.08246                  22708701.6194
        23.2504         22.5004
  22057514.5414    6344760.45948   4990233.09647                  22057521.4474
        29.2504         29.2504
  25184155.6664    -375915.63045   -204098.44745                  25184163.4394
         8.7504          7.5004
  21402546.8144  -12400297.56848  -9519918.48847                  21402552.8384
        32.2504         30.0004
  22407722.5964   -8232417.91348  -6295240.05147                  22407728.9474
        28.5004         26.7504
  23498886.8074   -6007008.73646  -4515532.77746                  23498896.7954
        16.0004         15.7504
  25261012.3304   13609669.69345  11276372.74945                  25261022.7874
         8.2504          8.2504
 00  5  2 16  7 15.0020000  0  7G 2G 7G 5G 4G 9G24G26
  22715273.0494    8165369.45547   6367507.89046                  22715280.5064
        23.0004         22.5004
  22064573.8934    6381858.45148   5019140.61247                  22064580.8464
        29.2504         29.0004
  25178524.8854    -405505.59245   -227155.52745                  25178531.3184
         8.2504          7.5004
  21399982.3144  -12413774.01548  -9530419.60747                  21399988.5024
        32.2504         30.5004
  22405564.1434   -8243760.43248  -6304078.38047                  22405570.6354
        28.7504         27.0004
  23491631.7444   -6045133.23346  -4545240.11346                  23491641.4164
        16.0004         15.7504
  25270458.4004   13659310.41545  11315053.72145                  25270468.6934
         8.7504          8.7504
 00  5  2 16  7 30.0020000  0  7G 2G 7G 5G 4G 9G24G26
  22721865.5104    8200011.79147   6394501.88946                  22721872.8384
        23.2504         22.5004
  22071641.6354    6418998.69948   5048081.05147                  22071648.6114
        29.0004         29.0004
  25172893.2914    -435102.53145   -250218.01045                  25172900.0884
         7.7504          7.5004
  21397443.4864  -12427115.19348  -9540815.31847                  21397449.7094
        32.2504         30.5004
  22403429.2214   -8254979.24148  -6312820.30747                  22403435.6544
        28.7504         27.2504
  23484386.4634   -6083207.17046  -4574908.05846                  23484396.0764
        16.2504         16.2504
  25279907.6114   13708963.26345  11353744.06445                  25279917.0614
         8.2504          8.5004
 00  5  2 16  7 45.0020000  0  7G 2G 7G 5G 4G 9G24G26
  22728470.8934    8234721.68847   6421548.53946                  22728478.0454
        23.5004         22.5004
  22078716.8144    6456178.99848   5077052.70347                  22078723.6464
        29.0004         28.7504
  25167258.9714    -464708.49345   -273287.60345                  25167267.1784
         7.7504          5.7504
  21394929.9324  -12440323.22748  -9551107.28247                  21394936.1314
        32.0004         30.5004
  22401317.6354   -8266076.20548  -6321467.29047                  22401323.9164
        28.7504         27.5004
  23477150.7294   -6121232.19646  -4604537.87746                  23477160.1664
        16.2504         16.0004
  25289357.7294   13758625.75545  11392441.98245                  25289369.3814
         8.7504          9.2504
 00  5  2 16  8  0.0020000  0  7G 2G 7G 5G 4G 9G24G26
  22735089.0414    8269501.50447   6448649.66946                  22735096.1464
        23.2504         22.5004
  22085799.7914    6493401.42548   5106057.18147                  22085806.6114
        29.0004         28.7504
  25161624.0184    -494321.19145   -296362.40745                  25161632.4824
         8.0004          7.0004
  21392442.4084  -12453395.46348  -9561293.42947                  21392448.7014
        32.0004         30.2504
  22399229.7524   -8277048.83448  -6330017.39147                  22399236.1504
        29.0004         27.2504
  23469924.4004   -6159205.74046  -4634127.59846                  23469933.9904
        16.5004         15.7504
  25298810.6744   13808299.78345  11431148.88645                  25298821.2014
         9.5004          9.0004
 00  5  2 16  8 15.0020000  0  7G 2G 7G 5G 4G 9G24G26
  22741720.4474    8304349.22147   6475803.72146                  22741727.7994
        23.2504         22.5004
  22092890.6584    6530663.58448   5135092.61947                  22092897.4204
        29.5004         28.7504
  25155986.7054    -523942.60745   -319444.04445                  25155995.1004
         8.0004          7.2504
  21389980.3544  -12466333.87448  -9571375.29847                  21389986.7294
        32.0004         30.5004
  22397165.0334   -8287898.97048  -6338472.04647                  22397171.4794
        29.2504         27.5004
  23462707.7054   -6197129.54946  -4663678.55746                  23462717.1784
        16.2504         16.2504
  25308264.8144   13857982.81845  11469862.80545                  25308276.5844
         9.2504          9.0004
 00  5  2 16  8 30.0020000  0  7G 2G 7G 5G 4G 9G24G26
  22748364.7684    8339265.31547   6503011.04346                  22748371.9674
        23.5004         22.5004
  22099989.1274    6567965.79848   5164159.26747                  22099995.9124
        29.5004         28.7504
  25150349.2604    -553572.24645   -342532.05745                  25150356.8934
         7.5004          6.2504
  21387543.7684  -12479137.77348  -9581352.34647                  21387550.0844
        32.0004         30.5004
  22395123.6434   -8298625.98548  -6346830.75547                  22395129.9714
        29.0004         27.2504
  23455500.5414   -6235002.91546  -4693190.20646                  23455510.2364
        16.0004         16.0004
  25317720.6504   13907675.06345  11508583.92145                  25317730.5574
         9.0004          9.0004
 00  5  2 16  8 45.0020000  0  7G 2G 7G 5G 4G 9G24G26
  22755021.6114    8374248.70147   6530270.79146                  22755029.0684
        23.5004         22.5004
  22107094.7294    6605306.82948   5193256.16447                  22107101.5144
        29.5004         28.7504
  25144708.6744    -583211.11944   -365627.16545                  25144716.3304
         7.2504          5.7504
  21385132.8224  -12491807.97948  -9591225.22047                  21385139.1624
        32.0004         30.2504
  22393105.7294   -8309230.78648  -6355094.23947                  22393111.7174
        29.0004         27.5004
  23448303.0024   -6272826.49446  -4722663.06146                  23448312.2054
        16.2504         16.5004
  25327178.9474   13957374.98745  11547310.97645                  25327188.7714
         9.2504          9.5004
 00  5  2 16  9  0.0020000  0  7G 2G 7G 5G 4G 9G24G26
  22761692.1434    8409300.80647   6557584.10346                  22761699.5764
        23.5004         22.2504
  22114208.1504    6642687.85848   5222384.22847                  22114214.7954
        29.2504         28.7504
  25139066.5414    -612857.78744   -388728.52245                  25139074.9944
         6.7504          5.5004
  21382747.4554  -12504342.98948  -9600992.74747                  21382753.6544
        32.0004         30.2504
  22391111.1894   -8319711.81948  -6363261.27747                  22391117.6234
        29.0004         27.5004
  23441114.8224   -6310598.75446  -4752095.93546                  23441124.1194
        16.5004         16.2504
  25336638.7054   14007083.60945  11586044.79645                  25336648.3424
         9.7504          9.2504
 00  5  2 16  9 15.0020000  0  7G 2G 7G 5G 4G 9G24G26
  22768374.0104    8444414.99447   6584945.78146                  22768381.3034
        23.5004         22.5004
  22121328.0884    6680102.01348   5251538.10447                  22121334.8144
        29.5004         28.7504
  25133422.8304    -642518.79644   -411840.94945                  25133428.7134
         6.7504          6.0004
  21380386.7214  -12516749.12848  -9610659.86147                  21380392.9554
        32.0004         30.2504
  22389139.0804   -8330075.54048  -6371336.90347                  22389145.5374
        29.0004         27.5004
  23433935.6664   -6348325.91046  -4781493.65946                  23433944.7754
        16.5004         16.2504
  25346098.3384   14056793.81845  11624779.92645                  25346109.1464
        10.5004          9.7504
 00  5  2 16  9 30.0020000  0  7G 2G 7G 5G 4G 9G24G26
  22775069.2134    8479596.94147   6612360.25846                  22775076.7754
        23.5004         22.5004
  22128454.9474    6717554.83448   5280722.11247                  22128461.8774
        29.5004         28.5004
  25127777.1194    -672188.51144   -434960.19345                  25127783.1314
         6.7504          6.2504
  21378051.3854  -12529020.67748  -9620222.09447                  21378057.5844
        32.0004         30.2504
  22387190.4634   -8340316.03048  -6379316.50747                  22387197.0964
        29.0004         27.2504
  23426766.1894   -6386001.99246  -4810851.58246                  23426775.4394
        16.5004         16.5004
  25355559.7834   14106510.96645  11663520.41345                  25355569.8074
        10.5004         10.0004
 00  5  2 16  9 45.0020000  0  7G 2G 7G 5G 4G 9G24G26
  22781776.9084    8514846.92847   6639827.75646                  22781784.1194
        23.7504         22.5004
  22135589.2604    6755046.17748   5309936.13247                  22135595.9864
        29.5004         28.0004
  25122129.0414    -701866.66244   -458086.04145                  25122140.3894
         6.5004          6.2504
  21375741.7994  -12541157.22448  -9629679.13547                  21375748.1394
        32.0004         30.2504
  22385265.0254   -8350433.01248  -6387199.86547                  22385271.6114
        29.0004         27.0004
  23419606.1274   -6423626.56546  -4840169.37746                  23419615.2604
        16.5004         16.5004
  25365021.9164   14156234.86745  11702266.13845                  25365034.0724
         9.7504         10.0004
 00  5  2 16 10  0.0020000  0  7G 2G 7G 5G 4G 9G24G26
  22788497.5254    8550163.89947   6667347.44146                  22788504.7954
        23.5004         22.5004
  22142730.9394    6792574.83148   5339179.23147                  22142737.6664
        29.2504         28.2504
  25116480.6194    -731554.30843   -481219.23945                  25116487.8894
         6.0004          7.2504
  21373457.9324  -12553159.54748  -9639031.58247                  21373464.1894
        32.0004         30.7504
  22383362.9944   -8360427.40948  -6394987.70347                  22383369.5454
        29.0004         27.5004
  23412456.5334   -6461200.24946  -4869447.51346                  23412465.8074
        16.7504         16.7504
  25374485.0414   14205964.08145  11741016.06945                  25374496.4004
         9.5004         10.0004
 00  5  2 16 10 15.0020000  0  7G 2G 7G 5G 4G 9G24G26
  22795231.1894    8585549.92547   6694920.94746                  22795238.6004
        23.7504         22.7504
  22149879.6894    6830142.60348   5368452.81047                  22149886.4514
        29.0004         28.2504
  25110828.6824    -761249.31744   -504358.10445                  25110839.2214
         6.2504          7.0004
  21371199.9864  -12565025.54748  -9648277.80647                  21371206.1274
        32.0004         30.5004
  22381484.9554   -8370296.88848  -6402678.20647                  22381491.2014
        28.7504         27.0004
  23405315.9324   -6498720.83246  -4898684.28046                  23405325.8964
        16.2504         16.7504
  25383949.2754   14255700.19645  11779771.32145                  25383959.0884
         9.7504          9.5004
 00  5  2 16 10 30.0020000  0  7G 2G 7G 5G 4G 9G24G26
  22801978.1744    8621004.46747   6722547.84446                  22801985.5374
        23.5004         22.5004
  22157036.0804    6867748.80048   5397756.33247                  22157042.7364
        29.7504         28.2504
  25105175.9084    -790952.05544   -527503.10045                  25105187.2094
         6.5004          7.0004
  21368967.7834  -12576755.46848  -9657417.99447                  21368974.0414
        32.0004         30.5004
  22379630.5494   -8380041.81248  -6410271.65047                  22379636.8304
        28.5004         27.0004
  23398186.2834   -6536188.40546  -4927879.72946                  23398195.3344
        16.2504         16.2504
  25393415.2914   14305442.34245  11818531.27145                  25393426.0294
         9.5004         10.2504
 00  5  2 16 10 45.0020000  0  7G 2G 7G 5G 4G 9G24G26
  22808737.6504    8656525.70247   6750226.70346                  22808745.1434
        23.5004         22.5004
  22164199.2994    6905391.41548   5427088.23147                  22164205.7564
        29.5004         28.0004
  25099522.4084    -820664.39744   -550655.53945                  25099532.5374
         6.2504          6.7504
  21366761.2994  -12588351.05248  -9666453.50047                  21366767.5334
        32.0004         30.2504
  22377799.6894   -8389663.83448  -6417769.32847                  22377806.0414
        28.5004         27.0004
  23391066.2054   -6573604.60546  -4957035.16646                  23391075.2914
        16.2504         16.5004
  25402881.8464   14355188.29745  11857294.23345                  25402893.1824
         9.7504         10.0004
 00  5  2 16 11  0.0020000  0  7G 2G 7G 5G 4G 9G24G26
  22815510.0414    8692114.64747   6777958.32346                  22815517.4284
        23.5004         22.5004
  22171369.2914    6943071.12448   5456449.03247                  22171375.9474
        29.7504         28.0004
  25093866.5104    -850385.40844   -573814.72745                  25093873.8734
         7.2504          7.5004
  21364580.2834  -12599811.16948  -9675383.45247                  21364586.5764
        32.0004         30.2504
  22375992.1584   -8399161.87948  -6425170.39847                  22375998.6504
        28.7504         26.7504
  23383955.9794   -6610968.13346  -4986149.55346                  23383965.1704
        16.5004         16.5004
  25412348.6044   14404938.48445  11896060.46045                  25412360.2914
         9.2504         10.2504
 00  5  2 16 11 15.0020000  0  7G 2G 7G 5G 4G 9G24G26
  22822294.4474    8727768.10347   6805740.20846                  22822301.9164
        23.5004         22.5004
  22178545.9944    6980784.63548   5485836.17447                  22178552.5104
        30.0004         28.0004
  25088209.1824    -880118.06645   -596983.04945                  25088217.5294
         7.5004          7.7504
  21362424.8544  -12611138.73548  -9684210.11347                  21362431.1234
        32.0004         30.2504
  22374207.9244   -8408538.97948  -6432477.22847                  22374214.2404
        29.0004         26.7504
  23376855.4084   -6648281.90146  -5015225.16046                  23376864.8814
        16.5004         16.5004
  25421815.9554   14454689.57045  11934827.36745                  25421826.4594
         9.0004          9.5004
 00  5  2 16 11 30.0020000  0  7G 2G 7G 5G 4G 9G24G26
  22829092.3544    8763490.74847   6833576.01246                  22829099.7754
        23.2504         22.5004
  22185729.9944    7018536.37048   5515253.10347                  22185736.3934
        30.0004         28.0004
  25082549.8614    -909857.75345   -620156.79045                  25082557.0494
         7.5004          7.7504
  21360295.3694  -12622328.93048  -9692929.73647                  21360301.5214
        32.0004         30.2504
  22372447.3144   -8417790.30148  -6439686.04347                  22372453.6194
        28.5004         26.7504
  23369765.0644   -6685540.88946  -5044258.09446                  23369774.6664
        17.0004         16.7504
  25431284.3694   14504445.77045  11973598.30145                  25431295.9044
         9.2504         10.0004
 00  5  2 16 11 45.0020000  0  7G 2G 7G 5G 4G 9G24G26
  22835903.0804    8799280.90547   6861464.41846                  22835910.5844
        23.0004         22.2504
  22192920.7214    7056324.38948   5544698.30347                  22192927.1784
        29.5004         28.0004
  25076889.2054    -939606.11545   -643337.30145                  25076897.2254
         7.7504          8.0004
  21358191.6974  -12633383.36548  -9701543.57347                  21358197.8504
        32.0004         30.5004
  22370710.3774   -8426917.38248  -6446798.04747                  22370716.7174
        28.7504         26.7504
  23362685.3694   -6722746.52746  -5073249.44046                  23362694.9004
        16.7504         17.0004
  25440753.6664   14554204.84745  12012371.43045                  25440764.9674
         9.0004          9.7504
 00  5  2 16 12  0.0020000  0  7G 2G 7G 5G 4G 9G24G26
  22842726.3304    8835138.29947   6889405.22346                  22842733.8114
        23.2504         22.5004
  22200118.3694    7094148.16948   5574171.37347                  22200124.9204
        29.5004         28.0004
  25071226.4554    -969363.35845   -666524.72545                  25071234.0294
         8.7504          8.0004
  21356113.9474  -12644302.03248  -9710051.61547                  21356120.2054
        32.0004         30.5004
  22368997.3144   -8435920.35048  -6453813.34747                  22369003.4794
        28.7504         26.7504
  23355615.3074   -6759898.86646  -5102199.26346                  23355625.0724
        16.7504         17.2504
  25450223.2684   14603966.18545  12051146.35245                  25450235.3544
         9.5004         10.2504
 00  5  2 16 12 15.0020000  0  7G 2G 7G 5G 4G 9G24G26
  22849562.8774    8871063.65547   6917398.98446                  22849570.2404
        23.2504         22.2504
  22207322.8934    7132008.25948   5603672.73247                  22207329.4204
        29.2504         27.7504
  25065561.8464    -999128.74545   -689718.55145                  25065568.5844
         8.7504          8.2504
  21354062.2754  -12655084.20048  -9718453.29547                  21354068.4754
        32.2504         30.5004
  22367307.7524   -8444798.40348  -6460731.30747                  22367313.9634
        28.7504         27.0004
  23348555.9244   -6796996.78946  -5131106.68846                  23348565.4904
        16.7504         17.2504
  25459692.6744   14653730.05545  12089923.21445                  25459704.7604
         9.2504         10.0004
 00  5  2 16 12 30.0020000  0  7G 2G 7G 5G 4G 9G24G26
  22856412.1504    8907056.58647   6945445.39446                  22856419.7714
        22.7504         22.2504
  22214534.3544    7169904.04848   5633201.91047                  22214541.0104
        29.0004         28.0004
  25059896.5414   -1028902.62245   -712918.91445                  25059903.9284
         9.2504          9.2504
  21352036.5334  -12665730.02248  -9726748.72747                  21352042.7324
        32.5004         30.7504
  22365642.0184   -8453551.83248  -6467552.15447                  22365648.3694
        28.7504         27.0004
  23341506.7294   -6834040.51646  -5159971.88246                  23341516.0964
        17.0004         17.0004
  25469162.9554   14703495.82845  12128701.58145                  25469174.2444
         8.5004          9.2504
 00  5  2 16 12 45.0020000  0  7G 2G 7G 5G 4G 9G24G26
  22863273.8854    8943115.99647   6973543.61446                  22863281.6234
        22.7504         22.0004
  22221751.9634    7207834.14248   5662757.82347                  22221758.5254
        29.5004         27.7504
  25054228.7994   -1058686.05645   -736126.78445                  25054236.4434
         9.0004          9.2504
  21350036.2214  -12676240.47548  -9734938.67947                  21350042.4324
        32.2504         30.7504
  22363999.9944   -8462181.53548  -6474276.59647                  22364006.2644
        28.5004         27.0004
  23334467.5964   -6871030.77946  -5188795.41346                  23334476.7874
        17.5004         17.2504
  25478632.4634   14753261.85245  12167480.15745                  25478644.5614
         8.2504          9.2504
 00  5  2 16 13  0.0020000  0  7G 2G 7G 5G 4G 9G24G26
  22870148.9004    8979243.78547   7001695.11446                  22870156.5924
        22.7504         22.0004
  22228976.7054    7245800.25748   5692341.80347                  22228983.3854
        29.5004         27.7504
  25048559.4794   -1088477.12945   -759340.56445                  25048568.3544
         9.0004          9.5004
  21348062.4554  -12686613.38748  -9743021.46147                  21348068.6784
        32.2504         30.7504
  22362381.7994   -8470685.34848  -6480902.93847                  22362388.1864
        28.2504         27.0004
  23327439.3304   -6907965.44646  -5217575.62946                  23327448.9084
        17.5004         17.5004
  25488103.8774   14803029.65145  12206260.06745                  25488115.8574
         8.2504          8.7504
 00  5  2 16 13 15.0020000  0  7G 2G 7G 5G 4G 9G24G26
  22877036.7364    9015439.62947   7029899.63946                  22877044.3224
        22.5004         22.2504
  22236208.2754    7283802.03148   5721953.56547                  22236214.9794
        29.5004         27.7504
  25042888.3774   -1118276.10345   -782560.52745                  25042897.1114
         8.7504          8.5004
  21346114.5724  -12696849.09948  -9750997.32847                  21346120.8894
        32.5004         30.7504
  22360787.2914   -8479063.44048  -6487431.31447                  22360793.4674
        28.5004         26.7504
  23320421.4084   -6944844.41646  -5246312.44546                  23320430.5414
        17.5004         17.2504
  25497574.0334   14852798.60245  12245040.91645                  25497585.4984
         8.0004          9.0004
 00  5  2 16 13 30.0020000  0  7G 2G 7G 5G 4G 9G24G26
  22883937.5724    9051703.83047   7058157.42746                  22883945.0884
        22.2504         22.0004
  22243446.5104    7321839.30148   5751592.99047                  22243453.1544
        29.7504         28.2504
  25037216.3544   -1148082.69145   -805786.41445                  25037223.9514
         8.7504          8.7504
  21344193.2054  -12706946.98948  -9758865.80147                  21344199.5454
        32.0004         31.2504
  22359217.0104   -8487315.39048  -6493861.40747                  22359223.3264
        28.5004         27.5004
  23313414.0804   -6981667.29246  -5275005.54246                  23313423.4124
        17.7504         17.7504
  25507045.4244   14902568.45945  12283822.46545                  25507057.5804
         7.7504          9.0004
 00  5  2 16 13 45.0020000  0  7G 2G 7G 5G 4G 9G24G26
  22890850.7214    9088031.17747   7086464.43546                  22890858.4124
        22.7504         22.2504
  22250690.6044    7359906.70648   5781255.89047                  22250697.3074
        29.5004         28.2504
  25031542.0024   -1177902.09245   -829022.29345                  25031550.8544
         8.5004          9.2504
  21342296.6744  -12716912.25048  -9766630.92847                  21342302.9324
        32.2504         31.2504
  22357669.8614   -8495446.34048  -6500197.20947                  22357676.6584
        28.2504         27.5004
  23306417.0494   -7018438.84646  -5303658.66246                  23306426.2644
        18.0004         17.7504
  25516515.7054   14952333.68144  12322600.39345                  25516527.1704
         6.7504          7.7504
 00  5  2 16 14  0.0020000  0  7G 2G 7G 5G 4G 9G24G26
  22897776.2294    9124425.55847   7114823.66546                  22897783.8964
        22.5004         22.0004
  22257941.0334    7398007.94848   5810945.16047                  22257947.6434
        29.2504         28.0004
  25025865.9634   -1207730.32545   -852265.04645                  25025873.9944
         9.2504          9.2504
  21340426.5644  -12726740.83048  -9774289.55547                  21340432.9044
        31.2504         31.5004
  22356146.4714   -8503452.10748  -6506435.46647                  22356153.1864
        28.0004         27.2504
  23299429.9864   -7055155.03046  -5332268.62446                  23299439.1664
        18.2504         17.7504
  25525985.5964   15002097.71943  12361377.37545                  25525998.5614
         6.0004          7.5004
 00  5  2 16 14 15.0020000  0  7G 2G 7G 5G 4G 9G24G26
  22904714.6974    9160886.22847   7143234.54846                  22904722.4474
        22.7504         22.2504
  22265197.8384    7436142.11948   5840660.09247                  22265204.4364
        29.5004         28.0004
  25020188.5644   -1237567.92045   -875515.07845                  25020197.3464
         9.5004          9.5004
  21338582.1044  -12736433.19548  -9781842.03647                  21338588.2564
        29.2504         31.5004
  22354646.5184   -8511333.42248  -6512576.74447                  22354653.0454
        28.2504         27.2504
  23292453.7134   -7091816.20346  -5360835.72546                  23292462.8814
        18.0004         18.0004
  25535455.5104   15051859.50544  12400152.61745                  25535467.8654
         6.5004          7.2504
 00  5  2 16 14 30.0020000  0  7G 2G 7G 5G 4G 9G24G26
  22911665.4634    9197414.29847   7171697.95046                  22911673.1894
        22.2504         22.0004
  22272460.9244    7474310.10148   5870401.36547                  22272467.6744
        29.5004         28.0004
  25014509.1114   -1267413.81545   -898771.62645                  25014518.2324
         9.7504          9.5004
  21336763.6744  -12745988.25348  -9789287.52547                  21336769.7684
        30.2504         31.5004
  22353170.6434   -8519089.00648  -6518620.05647                  22353177.2054
        28.0004         27.2504
  23285487.7684   -7128420.94246  -5389358.84646                  23285497.2404
        18.0004         18.0004
  25544924.2604   15101619.69244  12438926.61245                  25544938.4674
         6.5004          7.5004
 00  5  2 16 14 45.0020000  0  7G 2G 7G 5G 4G 9G24G26
  22918629.3144    9234009.39047   7200213.57946                  22918636.8894
        22.2504         21.7504
  22279730.3934    7512511.31148   5900168.53247                  22279737.1074
        29.0004         27.7504
  25008827.2524   -1297268.34645   -922034.88445                  25008836.2094
         9.7504         10.0004
  21334971.4864  -12755406.11748  -9796626.11547                  21334977.6864
        28.2504         31.5004
  22351718.9794   -8526719.13648  -6524565.60747                  22351725.5644
        28.2504         27.5004
  23278532.7054   -7164969.35446  -5417838.08646                  23278541.8854
        18.0004         18.0004
  25554392.9474   15151377.47545  12477698.74145                  25554404.4594
         7.5004          7.5004
 00  5  2 16 15  0.0020000  0  7G 2G 7G 5G 4G 9G24G26
  22925605.8614    9270671.98847   7228781.81246                  22925613.2254
        22.2504         21.5004
  22287006.1584    7550745.93148   5929961.73247                  22287012.7564
        29.2504         28.0004
  25003144.7604   -1327131.09945   -945304.51745                  25003153.1314
         9.7504         10.2504
  21333205.8144  -12764686.26748  -9803857.39047                  21333211.9084
        30.0004         31.7504
  22350290.7444   -8534223.17047  -6530412.90947                  22350297.2014
        27.7504         27.5004
  23271588.5574   -7201460.74546  -5446272.89046                  23271597.9364
        18.2504         17.7504
  25563861.4164   15201132.96444  12516469.08245                  25563873.6894
         7.0004          8.2504
 00  5  2 16 15 15.0020000  0  7G 2G 7G 5G 4G 9G24G26
  22932595.8854    9307403.65247   7257403.85646                  22932603.3184
        22.0004         21.5004
  22294288.5254    7589015.40348   5959782.09447                  22294295.2644
        29.0004         28.2504
  24997461.1824   -1357000.37345   -968579.24645                  24997467.8034
         9.5004          9.5004
  21331466.3544  -12773826.92248  -9810979.96647                  21331472.4824
        30.5004         31.7504
  22348887.2684   -8541599.33748  -6536160.57347                  22348893.8304
        28.0004         27.5004
  23264655.5184   -7237893.22146  -5474661.78746                  23264664.7214
        18.2504         18.0004
  25573328.9944   15250887.30844  12555238.53845                  25573340.8574
         6.7504          7.5004
 00  5  2 16 15 30.0020000  0  7G 2G 7G 5G 4G 9G24G26
  22939598.5414    9344203.17647   7286078.77946                  22939606.1274
        21.7504         21.5004
  22301577.4794    7627318.24548   5989628.45647                  22301584.2644
        29.0004         28.2504
  24991775.5254   -1386877.27645   -991859.95145                  24991783.1114
         8.7504          9.2504
  21329753.2914  -12782829.18148  -9817994.70447                  21329759.4324
        29.7504         31.7504
  22347507.6434   -8548848.78948  -6541809.48547                  22347514.2054
        28.2504         27.2504
  23257733.9394   -7274267.73346  -5503005.51646                  23257742.8504
        18.5004         18.0004
  25582796.9794   15300638.97844  12594005.90945                  25582809.5104
         7.0004          8.0004
 00  5  2 16 15 45.0020000  0  7G 2G 7G 5G 4G 9G24G26
  22946614.0574    9381069.19647   7314805.52146                  22946621.5254
        22.0004         21.2504
  22308872.1114    7665652.93348   6019499.63447                  22308878.9204
        29.0004         28.2504
  24986088.4324   -1416763.19245  -1015147.62445                  24986097.5884
         9.2504          9.7504
  21328066.1824  -12791694.31248  -9824902.58847                  21328072.2294
        31.2504         31.7504
  22346151.7834   -8555972.75348  -6547360.63047                  22346158.3934
        28.7504         27.5004
  23250822.9554   -7310585.25246  -5531304.84346                  23250832.1464
        18.2504         18.2504
  25592264.0494   15350386.11444  12632769.69345                  25592276.2174
         6.2504          7.5004
 00  5  2 16 16  0.0020000  0  7G 2G 7G 5G 4G 9G24G26
  22953642.4164    9418004.13347   7343585.96346                  22953649.9904
        22.0004         21.2504
  22316173.5254    7704021.74848   6049397.39847                  22316180.2524
        29.0004         28.0004
  24980400.0184   -1446655.63745  -1038440.43745                  24980408.3074
         9.7504          9.7504
  21326405.7834  -12800419.54548  -9831701.46347                  21326411.8074
        31.2504         31.7504
  22344820.6664   -8562968.64548  -6552811.98047                  22344826.9124
        28.7504         27.5004
  23243922.9554   -7346843.15046  -5559557.70946                  23243932.1824
        18.2504         18.5004
  25601729.8074   15400130.85943  12671531.61945                  25601743.3224
         6.0004          7.0004
 00  5  2 16 16 15.0020000  0  7G 2G 7G 5G 4G 9G24G26
  22960683.7914    9455007.63747   7372419.84146                  22960691.3894
        22.0004         21.2504
  22323481.4244    7742424.00448   6079321.22447                  22323488.3304
        28.7504         28.2504
  24974710.6974   -1476554.87045  -1061738.50345                  24974718.7754
         9.7504          9.7504
  21324772.0574  -12809005.36648  -9838391.70047                  21324778.3034
        28.7504         31.7504
  22343513.6824   -8569836.74948  -6558163.74847                  22343520.0804
        28.5004         27.2504
  23237034.6504   -7383041.52246  -5587764.18646                  23237043.9714
        18.2504         18.2504
  25611195.0184   15449872.47644  12710291.16245                  25611205.0184
         6.2504          7.0004
 00  5  2 16 16 30.0020000  0  7G 2G 7G 5G 4G 9G24G26
  22967739.0964    9492082.39247   7401309.24046                  22967746.6584
        21.7504         21.0004
  22330795.8464    7780862.27648   6109273.11647                  22330802.7754
        28.7504         28.2504
  24969020.1744   -1506458.17945  -1085039.78345                  24969026.9944
         9.2504          9.0004
  21323165.3144  -12817448.83048  -9844971.01247                  21323171.5964
        29.5004         31.7504
  22342231.6434   -8576574.16748  -6563413.68247                  22342238.1584
        28.5004         27.5004
  23230158.0884   -7419177.27346  -5615921.86946                  23230167.2444
        18.2504         18.2504
  25620661.9794   15499613.10044  12749049.92745                  25620677.2524
         6.5004          6.0004
 00  5  2 16 16 45.0020000  0  7G 2G 7G 5G 4G 9G24G26
  22974806.5884    9529222.13647   7430249.27146                  22974814.1394
        22.0004         21.0004
  22338116.0804    7819330.08248   6139248.02247                  22338123.0334
        28.7504         28.0004
  24963327.3544   -1536371.77845  -1108349.02845                  24963334.5064
         8.7504          8.5004
  21321584.3224  -12825755.91648  -9851444.05447                  21321590.4754
        30.0004         32.0004
  22340973.2604   -8583187.07948  -6568566.59347                  22340979.7874
        28.5004         27.7504
  23223292.6584   -7455256.43446  -5644035.45946                  23223302.1314
        18.2504         18.5004
  25630125.1354   15549346.23343  12787802.83445                  25630136.6004
         6.0004          6.2504
 00  5  2 16 17  0.0020000  0  7G 2G 7G 5G 4G 9G24G26
  22981886.9944    9566428.39147   7459241.13346                  22981894.2994
        21.7504         21.0004
  22345442.0254    7857828.59148   6169246.84847                  22345448.8854
        29.0004         28.0004
  24957633.1434   -1566294.22445  -1131665.22845                  24957641.4204
         8.7504          8.2504
  21320029.8544  -12833925.15048  -9857809.67547                  21320036.0294
        30.7504         32.0004
  22339738.8544   -8589673.75548  -6573621.15047                  22339745.2294
        28.5004         27.7504
  23216438.2294   -7491277.15446  -5672103.51046                  23216447.2684
        18.7504         18.5004
  25639587.4474   15599072.94343  12826550.73045                  25639596.8504
         5.5004          5.7504
 00  5  2 16 17 15.0020000  0  7G 2G 7G 5G 4G 9G24G26
  22988980.2294    9603704.30447   7488287.26446                  22988987.7444
        22.0004         21.0004
  22352774.6584    7896360.98448   6199272.07747                  22352781.7054
        28.5004         28.0004
  24951938.8934   -1596222.08045  -1154985.63445                  24951947.9674
         8.5004          9.0004
  21318502.3144  -12841953.10947  -9864065.21847                  21318508.5844
        27.7504         32.2504
  22338529.2754   -8596030.84848  -6578574.72947                  22338535.6504
        29.2504         28.0004
  23209595.3854   -7527235.99146  -5700123.34246                  23209604.2954
        18.7504         18.2504
  25649050.2684   15648796.01044  12865295.75745                  25649059.8934
         6.5004          6.0004
 00  5  2 16 17 30.0020000  0  7G 2G 7G 5G 4G 9G24G26
  22996086.1664    9641047.71747   7517385.99946                  22996093.6354
        21.7504         21.0004
  22360113.1504    7934924.80248   6229321.79947                  22360120.0104
        28.7504         28.0004
  24946241.1044   -1626157.53545  -1178311.90745                  24946249.3694
         7.7504          8.5004
  21317001.0494  -12849841.84647  -9870212.27147                  21317007.3894
        27.2504         32.0004
  22337343.6194   -8602260.50248  -6583429.00547                  22337349.9944
        28.7504         27.7504
  23202763.8224   -7563134.93046  -5728096.50046                  23202772.9324
        19.0004         18.5004
  25658510.6584   15698512.87243  12904036.10845                  25658522.9434
         6.0004          6.0004
 00  5  2 16 17 45.0020000  0  7G 2G 7G 5G 4G 9G24G26
  23003205.3464    9678457.98147   7546536.82946                  23003212.9674
        21.7504         20.7504
  22367457.3544    7973519.20748   6259395.34647                  22367464.1974
        28.7504         28.0004
  24940543.1664   -1656101.20745  -1201644.63345                  24940553.0844
         7.5004          8.7504
  21315526.2364  -12857591.95647  -9876251.30947                  21315532.3544
        27.2504         32.0004
  22336182.3854   -8608363.17148  -6588184.33347                  22336188.8074
        28.7504         27.7504
  23195943.9244   -7598974.24946  -5756023.20646                  23195952.9514
        19.2504         18.7504
  25667970.0964   15748222.49643  12942770.63345                  25667986.8934
         6.0004          6.5004
 00  5  2 16 18  0.0020000  0  7G 2G 7G 5G 4G 9G24G26
  23010337.2294    9715935.25647   7575739.86946                  23010344.7564
        22.0004         21.0004
  22374807.4084    8012144.13748   6289492.68147                  22374814.3734
        28.5004         28.0004
  24934843.5964   -1686052.88745  -1224983.57145                  24934853.3854
         7.5004          8.0004
  21314077.9714  -12865203.25347  -9882182.17847                  21314084.0644
        25.2504         32.2504
  22335045.3694   -8614338.67748  -6592840.57547                  22335051.7564
        29.0004         28.0004
  23189135.1584   -7634753.63746  -5783903.20846                  23189144.0104
        19.0004         18.7504
  25677429.1824   15797924.60943  12981499.28245                  25677442.8144
         6.0004          7.0004
 00  5  2 16 18 15.0020000  0  7G 2G 7G 5G 4G 9G24G26
  23017481.5254    9753479.24147   7604994.90546                  23017488.9244
        22.0004         20.5004
  22382163.2214    8050799.11648   6319613.44047                  22382170.1274
        28.5004         27.0004
  24929142.5644   -1716012.80445  -1248328.93545                  24929149.9394
         7.5004          8.2504
  21312655.9084  -12872675.68047  -9888004.83547                  21312662.0964
        25.2504         31.5004
  22333932.5254   -8620187.14748  -6597397.82447                  22333938.8774
        29.2504         27.2504
  23182338.2834   -7670472.85346  -5811736.32746                  23182347.4394
        19.2504         18.0004
  25686885.7054   15847618.56743  13020221.69545                  25686899.7834
         6.0004          6.0004
 00  5  2 16 18 30.0020000  0  7G 2G 7G 5G 4G 9G24G26
  23024638.8854    9791091.27847   7634302.96646                  23024646.5534
        21.7504         20.0004
  22389524.8934    8089485.20148   6349758.42947                  22389531.8114
        28.5004         26.2504
  24923439.3774   -1745979.53645  -1271679.61245                  24923447.8424
         7.5004          7.7504
  21311260.7294  -12880007.94547  -9893718.27547                  21311266.9164
        25.5004         30.5004
  22332844.0644   -8625907.05448  -6601854.90147                  22332850.4864
        29.5004         26.5004
  23175552.6894   -7706130.37946  -5839521.36646                  23175561.7404
        19.5004         18.0004
  25696339.9714   15897305.24544  13058938.38445                  25696350.5804
         6.5004          6.0004
 00  5  2 16 18 45.0020000  0  7G 2G 7G 5G 4G 9G24G26
  23031808.9554    9828771.11047   7663663.84846                  23031816.5644
        21.5004         20.2504
  22396892.5254    8128201.95948   6379927.31847                  22396899.5374
        28.2504         26.2504
  24917736.1504   -1775953.35845  -1295035.85645                  24917745.1784
         7.5004          7.2504
  21309891.9554  -12887200.07147  -9899322.51947                  21309898.0844
        26.2504         30.2504
  22331779.9634   -8631498.54048  -6606211.90747                  22331786.3504
        29.7504         26.5004
  23168779.0644   -7741726.24446  -5867258.36746                  23168787.7644
        19.5004         17.7504
  25705794.6114   15946984.06944  13097648.97045                  25705806.1354
         6.7504          6.2504
 00  5  2 16 19  0.0020000  0  7G 2G 7G 5G 4G 9G24G26
  23038992.4244    9866519.90247   7693078.45846                  23038999.9754
        21.7504         19.7504
  22404265.9794    8166950.41448   6410120.91047                  22404272.9204
        28.2504         26.2504
  24912031.5804   -1805933.01445  -1318396.55545                  24912039.5884
         8.2504          7.7504
  21308550.2834  -12894250.78248  -9904816.56847                  21308556.5294
        28.0004         30.5004
  22330740.6274   -8636960.33448  -6610467.85347                  22330746.8964
        30.0004         27.0004
  23162017.6584   -7777258.85046  -5894946.07546                  23162026.2754
        19.2504         18.2504
  25715246.4394   15996655.84444  13136354.01145                  25715259.8264
         7.0004          6.7504
 00  5  2 16 19 15.0020000  0  7G 2G 7G 5G 4G 9G24G26
  23046188.4474    9904335.06147   7722544.79046                  23046195.9284
        21.7504         20.5004
  22411645.1894    8205727.77048   6440337.02247                  22411652.2954
        28.2504         27.2504
  24906324.5964   -1835921.06145  -1341763.88645                  24906330.9594
         7.7504          7.5004
  21307234.8384  -12901162.50747  -9910202.31147                  21307241.0844
        27.7504         31.5004
  22329725.7524   -8642294.85348  -6614624.61947                  22329732.1504
        29.5004         28.0004
  23155267.4394   -7812730.67246  -5922586.42246                  23155276.1864
        19.2504         19.0004
  25724697.3384   16046317.55044  13175051.28945                  25724709.9164
         7.2504          6.0004
 00  5  2 16 19 30.0020000  0  7G 2G 7G 5G 4G 9G24G26
  23053396.5724    9942214.28947   7752061.04846                  23053404.1704
        21.2504         20.5004
  22419029.2754    8244531.49648   6470573.68247                  22419036.2404
        28.0004         27.5004
  24900615.5804   -1865919.64845  -1365139.38145                  24900625.2644
         7.5004          7.7504
  21305945.6504  -12907937.56048  -9915481.55947                  21305951.8504
        30.2504         31.5004
  22328734.4164   -8647504.25848  -6618683.90147                  22328740.7214
        29.7504         28.0004
  23148528.5494   -7848143.55746  -5950180.83346                  23148537.5064
        19.2504         18.7504
  25734145.5804   16095966.51845  13213738.63745                  25734158.1464
         7.5004          7.2504
 00  5  2 16 19 45.0020000  0  7G 2G 7G 5G 4G 9G24G26
  23060617.2754    9980160.21447   7781629.25446                  23060624.8504
        21.2504         20.0004
  22426418.8224    8283364.12648   6500832.86747                  22426425.9044
        28.0004         26.7504
  24894906.7054   -1895926.01945  -1388520.95345                  24894914.9594
         8.2504          8.2504
  21304683.0724  -12914573.10848  -9920652.10447                  21304689.2364
        28.7504         31.0004
  22327767.2524   -8652585.71748  -6622643.48047                  22327773.6744
        30.0004         27.7504
  23141801.5104   -7883494.66646  -5977727.11146                  23141810.5254
        19.2504         18.5004
  25743591.4864   16145605.00245  13252417.73845                  25743605.3074
         7.5004          7.2504
 00  5  2 16 20  0.0020000  0  6G 2G 7G 5G 4G 9G24
  23067851.0334   10018171.10447   7811248.09346                  23067858.6894
        21.5004         20.5004
  22433813.6974    8322223.69947   6531113.04247                  22433820.6624
        27.7504         27.0004
  24889193.7214   -1925941.86545  -1411909.89645                  24889202.9594
         8.2504          8.5004
  21303446.5494  -12921070.68648  -9925715.13847                  21303452.6074
        29.5004         31.2504
  22326824.1664   -8657540.96448  -6626504.71547                  22326830.6354
        30.0004         28.0004
  23135085.6824   -7918785.37346  -6005226.32646                  23135094.6154
        19.2504         18.7504
 00  5  2 16 20 15.0020000  0  6G 2G 7G 5G 4G 9G24
  23075096.5724   10056246.79647   7840917.43146                  23075104.6044
        21.5004         20.5004
  22441213.2834    8361109.78948   6561413.88847                  22441220.2254
        28.0004         27.7504
  24883480.6824   -1955967.33245  -1435306.34545                  24883490.9164
         8.5004          8.2504
  21302236.3544  -12927430.39248  -9930670.73947                  21302242.4944
        28.7504         31.5004
  22325905.4394   -8662370.00748  -6630267.60747                  22325911.8144
        29.7504         28.5004
  23128381.2754   -7954015.62446  -6032678.43646                  23128390.2214
        19.2504         19.5004
 00  5  2 16 20 30.0020000  0  6G 2G 7G 5G 4G 9G24
  23082354.9944   10094391.56047   7870640.60346                  23082362.7094
        21.2504         20.2504
  22448618.7834    8400026.50548   6591738.58947                  22448625.9124
        28.0004         27.2504
  24877766.1434   -1985998.03145  -1458706.88245                  24877775.1114
         9.2504          8.5004
  21301053.2444  -12933647.79748  -9935515.45547                  21301059.3384
        28.0004         31.2504
  22325011.2294   -8667068.48948  -6633928.76147                  22325017.5454
        30.0004         28.2504
  23121689.7754   -7989180.80846  -6060079.83646                  23121698.7564
        19.2504         19.2504
 00  5  2 16 20 45.0020000  0  6G 2G 7G 5G 4G 9G24
  23089627.2214   10132606.39247   7900418.37246                  23089634.7254
        21.0004         20.0004
  22456030.6974    8438974.77447   6622087.88147                  22456037.7094
        27.7504         27.2504
  24872050.3934   -2016032.89945  -1482110.63645                  24872059.9824
         9.2504          9.0004
  21299897.4944  -12939721.78548  -9940248.41947                  21299903.4594
        28.7504         31.2504
  22324142.3934   -8671635.27748  -6637487.30147                  22324148.7914
        30.5004         29.0004
  23115010.4244   -8024279.64246  -6087429.53846                  23115019.4044
        19.2504         19.5004
 00  5  2 16 21  0.0020000  0  6G 2G 7G 5G 4G 9G24
  23096912.0724   10170887.70347   7930247.93046                  23096919.6704
        21.0004         20.2504
  22463447.4634    8477950.64347   6652458.67747                  22463454.4984
        27.7504         27.5004
  24866334.2604   -2046075.44845  -1505520.43145                  24866342.8074
         9.2504          8.2504
  21298768.0574  -12945655.86047  -9944872.36147                  21298774.1504
        27.7504         31.5004
  22323297.6274   -8676073.80048  -6640945.89447                  22323303.9794
        30.7504         28.7504
  23108343.4944   -8059315.48746  -6114730.15546                  23108352.6044
        19.5004         19.2504
 00  5  2 16 21 15.0020000  0  6G 2G 7G 5G 4G 9G24
  23104209.1274   10209235.16947   7960129.03646                  23104216.9594
        21.0004         20.5004
  22470869.4004    8516953.61248   6682850.59047                  22470876.3894
        28.2504         27.2504
  24860615.5024   -2076125.95345  -1528936.38245                  24860623.4634
         9.5004          8.2504
  21297665.5104  -12951450.16748  -9949387.39547                  21297671.4754
        28.7504         31.2504
  22322477.3934   -8680384.22148  -6644304.66747                  22322483.9324
        30.5004         29.0004
  23101688.3224   -8094288.24646  -6141981.61746                  23101697.3614
        19.5004         19.5004
 00  5  2 16 21 30.0020000  0  6G 2G 7G 5G 4G 9G24
  23111519.3614   10247649.86947   7990062.53646                  23111527.2754
        21.2504         20.5004
  22478296.7684    8555984.61747   6713264.35447                  22478303.8964
        27.7504         27.2504
  24854895.9864   -2106183.27245  -1552357.64445                  24854904.1824
         9.7504          8.7504
  21296589.7444  -12957103.62248  -9953792.67247                  21296595.9204
        29.5004         31.2504
  22321681.8074   -8684565.45648  -6647562.77247                  22321688.2174
        30.2504         29.0004
  23095045.4944   -8129196.73746  -6169183.01046                  23095054.4634
        19.7504         19.7504
 00  5  2 16 21 45.0020000  0  6G 2G 7G 5G 4G 9G24
  23118842.6044   10286133.59347   8020049.82746                  23118850.5534
        21.2504         20.2504
  22485729.9084    8595045.32748   6743701.26047                  22485736.9324
        28.0004         27.2504
  24849175.4944   -2136245.47245  -1575782.74645                  24849183.1864
        10.5004          8.7504
  21295540.8304  -12962614.17348  -9958086.59047                  21295546.9364
        29.0004         31.2504
  22320911.1194   -8688615.50648  -6650718.65547                  22320917.4944
        30.5004         29.0004
  23088415.2134   -8164038.78847  -6196332.61346                  23088423.9824
        20.2504         20.0004
 00  5  2 16 22  0.0020000  0  6G 2G 7G 5G 4G 9G24
  23126178.3224   10324684.02847   8050089.10346                  23126185.8854
        21.0004         20.0004
  22493168.0334    8634133.21947   6774159.34747                  22493175.1274
        27.7504         27.2504
  24843452.9324   -2166314.88845  -1599213.44945                  24843461.0104
        11.0004          9.0004
  21294518.9794  -12967984.18348  -9962271.00447                  21294525.0724
        30.0004         31.2504
  22320164.8464   -8692536.59148  -6653774.05347                  22320171.2914
        30.7504         29.0004
  23081797.0574   -8198816.33247  -6223431.96346                  23081805.8614
        20.2504         19.7504
 00  5  2 16 22 15.0020000  0  6G 2G 7G 5G 4G 9G24
  23133527.0024   10363301.30147   8080180.45846                  23133534.7054
        20.5004         20.0004
  22500611.4084    8673248.22847   6804638.56347                  22500618.5254
        27.7504         27.2504
  24837729.4004   -2196391.31445  -1622649.61445                  24837737.2324
        10.5004          9.5004
  21293524.0414  -12973213.35148  -9966345.66547                  21293530.1234
        31.2504         31.2504
  22319443.4474   -8696328.47148  -6656728.76347                  22319449.7644
        30.7504         29.0004
  23075191.9164   -8233529.07847  -6250480.81746                  23075200.9794
        20.2504         20.0004
 00  5  2 16 22 30.0020000  0  6G 2G 7G 5G 4G 9G24
  23140888.2754   10401985.23247   8110323.76046                  23140896.0614
        21.0004         20.0004
  22508059.9394    8712389.87347   6835138.53847                  22508066.9864
        27.7504         27.2504
  24832004.8384   -2226474.87845  -1646091.32945                  24832013.5964
        10.7504          9.5004
  21292555.6894  -12978301.67848  -9970310.58247                  21292561.8304
        32.0004         31.2504
  22318746.4474   -8699991.16648  -6659582.81447                  22318752.7174
        31.0004         29.2504
  23068598.4164   -8268176.80247  -6277479.01346                  23068607.0924
        20.5004         20.5004
 00  5  2 16 22 45.0020000  0  6G 2G 7G 5G 4G 9G24
  23148262.5254   10440736.10247   8140519.20846                  23148270.4164
        21.2504         20.2504
  22515513.3384    8751558.39447   6865659.45047                  22515520.4904
        27.5004         27.0004
  24826279.1434   -2256565.14745  -1669538.32945                  24826286.8344
        10.7504         10.0004
  21291614.2604  -12983248.80348  -9974165.47447                  21291620.4714
        31.5004         31.5004
  22318074.1894   -8703524.22648  -6662335.85047                  22318080.3774
        30.7504         29.2504
  23062017.4634   -8302758.96847  -6304426.11746                  23062026.2324
        20.7504         20.5004
 00  5  2 16 23  0.0020000  0  6G 2G 7G 5G 4G 9G24
  23155649.3224   10479554.51747   8170767.29546                  23155656.7914
        21.2504         20.2504
  22522971.9394    8790754.25647   6896201.67747                  22522978.7834
        27.2504         27.0004
  24820551.5104   -2286661.42745  -1692989.89645                  24820559.1194
        10.0004         10.0004
  21290699.7754  -12988053.94948  -9977909.72747                  21290705.9164
        31.7504         31.2504
  22317426.5494   -8706926.97048  -6664987.33747                  22317432.9714
        31.0004         29.5004
  23055449.5414   -8337274.60247  -6331321.37346                  23055458.5334
        20.7504         20.7504
 00  5  2 16 23 15.0030000  0  6G 2G 7G 5G 4G 9G24
  23163049.9374   10518443.93247   8201070.69846                  23163057.6404
        20.7504         19.7504
  22530436.4914    8829980.66747   6926767.69947                  22530443.5624
        27.5004         27.0004
  24814823.2804   -2316764.81645  -1716447.07245                  24814831.4294
        10.0004          9.7504
  21289812.7724  -12992716.47048  -9981542.84647                  21289818.8544
        30.7504         31.2504
  22316803.8584   -8710198.68148  -6667536.72947                  22316810.3864
        30.7504         29.5004
  23048893.6474   -8371725.02847  -6358165.83046                  23048902.4054
        21.0004         21.0004
 00  5  2 16 23 30.0030000  0  6G 2G 7G 5G 4G 9G24
  23170462.6014   10557398.32747   8231424.74646                  23170470.4214
        20.5004         20.2504
  22537905.6634    8869231.37747   6957352.66247                  22537912.7104
        27.2504         26.7504
  24809093.7964   -2346871.97945  -1739907.16445                  24809101.2654
        10.5004         10.2504
  21288952.5304  -12997236.59948  -9985065.01247                  21288958.7414
        30.5004         31.2504
  22316206.1244   -8713339.60048  -6669984.19747                  22316212.6164
        30.7504         29.5004
  23042351.4604   -8406105.96047  -6384956.12246                  23042360.2184
        21.5004         21.0004
 00  5  2 16 23 45.0030000  0  6G 2G 7G 5G 4G 9G24
  23177888.2724   10596419.76947   8261831.03046                  23177895.8944
        20.5004         20.0004
  22545379.9134    8908508.28847   6987958.03847                  22545386.8194
        27.7504         26.7504
  24803363.7104   -2376985.42645  -1763372.20545                  24803371.3314
        10.7504          9.5004
  21288119.2804  -13001614.92448  -9988476.67747                  21288125.5734
        31.7504         31.5004
  22315633.3514   -8716350.40948  -6672330.28647                  22315639.7724
        30.7504         29.2504
  23035821.4214   -8440420.10347  -6411694.37846                  23035830.0504
        21.5004         21.2504
 00  5  2 16 24  0.0030000  0  6G 2G 7G 5G 4G 9G24
  23185327.0774   10635511.30847   8292291.94346                  23185334.6164
        20.5004         20.0004
  22552859.5934    8947814.20347   7018586.01447                  22552866.3904
        27.7504         26.7504
  24797632.7964   -2407102.09145  -1786839.71645                  24797640.9334
        11.0004         10.2504
  21287313.4914  -13005848.37948  -9991775.45947                  21287319.6204
        32.2504         31.2504
  22315086.0224   -8719228.00948  -6674572.57347                  22315092.3274
        30.7504         29.2504
  23029305.1324   -8474664.12347  -6438377.99346                  23029313.7024
        21.7504         21.2504
 00  5  2 16 24 15.0030000  0  6G 2G 7G 5G 4G 9G24
  23192778.8974   10674671.77447   8322806.56046                  23192786.7764
        20.5004         20.2504
  22560344.5934    8987147.92947   7049235.66047                  22560351.5344
        27.2504         26.7504
  24791900.5154   -2437222.97145  -1810310.50345                  24791908.3124
        10.7504         10.7504
  21286535.2024  -13009938.10448  -9994962.24647                  21286541.2964
        32.2504         31.0004
  22314563.2024   -8721973.34848  -6676711.80547                  22314569.3544
        31.0004         29.0004
  23022801.7264   -8508838.91547  -6465007.67046                  23022810.5074
        21.5004         21.5004
 00  5  2 16 24 30.0030000  0  6G 2G 7G 5G 4G 9G24
  23200244.4604   10713902.28547   8353375.75846                  23200252.3864
        20.7504         20.2504
  22567835.1474    9026510.31647   7079907.64147                  22567842.2654
        27.2504         26.5004
  24786168.7334   -2467346.93045  -1833783.70745                  24786176.6834
        10.7504         10.2504
  21285784.6474  -13013882.69348  -9998035.93747                  21285790.8124
        32.2504         30.7504
  22314066.3274   -8724585.28948  -6678747.08447                  22314072.5384
        31.0004         29.2504
  23016312.1084   -8542942.97747  -6491582.22446                  23016320.9134
        21.7504         21.5004
 00  5  2 16 24 45.0030000  0  6G 2G 7G 5G 4G 9G24
  23207722.7264   10753199.96847   8383997.30346                  23207730.8624
        20.7504         20.0004
  22575330.3584    9065898.42947   7110599.66747                  22575337.3584
        27.2504         26.7504
  24780434.4374   -2497476.70945  -1857261.42345                  24780442.3864
        10.2504         10.0004
  21285061.0304  -13017684.95648 -10000998.72547                  21285067.0894
        32.2504         30.7504
  22313594.0384   -8727066.53448  -6680680.52447                  22313600.3314
        30.7504         29.0004
  23009835.1324   -8576978.82847  -6518103.63046                  23009843.6554
        22.0004         21.5004
 00  5  2 16 25  0.0030000  0  6G 2G 7G 5G 4G 9G24
  23215213.1244   10792564.56347   8414670.99046                  23215220.8514
        20.2504         19.0004
  22582830.4294    9105311.68647   7141311.29047                  22582837.4294
        27.2504         26.0004
  24774700.2574   -2527612.43545  -1880743.76945                  24774707.9374
        10.5004         10.5004
  21284364.7654  -13021345.12248 -10003850.79147                  21284370.8944
        32.2504         31.0004
  22313146.7964   -8729417.16048  -6682512.18447                  22313153.0654
        30.7504         29.0004
  23003371.2804   -8610946.55347  -6544571.95346                  23003379.7804
        22.2504         21.5004
 00  5  2 16 25 15.0030000  0  6G 2G 7G 5G 4G 9G24
  23222717.2574   10831997.47547
        20.0004
  22590335.4054    9144751.34947   7172043.44746                  22590342.4294
        27.2504         24.7504
  24768964.7104   -2557752.60045  -1904229.58645                  24768973.4094
        10.5004         10.5004
  21283695.4524  -13024861.62848 -10006590.91347                  21283701.5694
        32.2504         30.7504
  22312724.6084   -8731635.71948  -6684240.93547                  22312730.9254
        30.7504         28.7504
  22996920.7804   -8644844.35847  -6570985.79346                  22996929.6904
        22.2504         21.5004
 00  5  2 16 25 30.0030000  0  6G 2G 7G 5G 4G 9G24
  23230234.3274   10871499.40247
        20.0004
  22597845.9134    9184218.11747   7202796.79847                  22597852.9604
        27.5004         26.5004
  24763228.5934   -2587896.38245  -1927718.23545                  24763235.6984
        10.7504         10.2504
  21283053.6164  -13028233.62148 -10009218.42847                  21283059.5584
        31.5004         30.7504
  22312327.6794   -8733721.29448  -6685866.06147                  22312334.0544
        30.2504         29.0004
  22990483.5074   -8678671.26947  -6597344.38846                  22990492.0194
        22.2504         21.5004
 00  5  2 16 25 45.0030000  0  6G 2G 7G 5G 4G 9G24
  23237764.6944   10911070.82447
        20.0004
  22605361.2184    9223712.23547   7233571.42247                  22605368.1594
        27.5004         26.5004
  24757491.6554   -2618043.18445  -1951209.24645                  24757500.1084
        10.7504         10.7504
  21282439.5934  -13031460.58948 -10011732.94147                  21282445.6514
        32.0004         30.7504
  22311956.2104   -8735673.33448  -6687387.13647                  22311962.5384
        30.2504         29.0004
  22984060.2414   -8712426.47847  -6623647.12046                  22984068.8234
        22.0004         21.5004
 00  5  2 16 26  0.0030000  0  6G 2G 7G 5G 4G 9G24
  23245307.4684   10950708.59047     16476.99456                  23245315.6044
        20.2504         19.7504
  22612881.4604    9263230.18847   7264364.62247                  22612888.3784
        27.2504         26.5004
  24751753.9294   -2648196.17845  -1974705.06245                  24751762.2884
        10.5004         10.5004
  21281852.5384  -13034545.58548 -10014136.82147                  21281858.5854
        32.5004         31.0004
  22311609.4684   -8737494.89748  -6688806.53847                  22311615.7264
        30.2504         28.7504
  22977649.8124   -8746112.86847  -6649896.21546                  22977658.4764
        21.7504         21.5004
 00  5  2 16 26 15.0030000  0  6G 2G 7G 5G 4G 9G24
  23252862.0384   10990410.14747     47413.23246                  23252869.8354
        20.0004         19.7504
  22620405.4994    9302769.49247   7295174.45947                  22620412.4644
        27.5004         26.2504
  24746014.2184   -2678357.81845  -1998207.62945                  24746021.7104
        10.2504         10.2504
  21281292.1634  -13037491.06248 -10016431.98247                  21281298.2104
        32.2504         31.0004
  22311287.3514   -8739188.42248  -6690126.16847                  22311293.6324
        30.5004         29.0004
  22971251.9834   -8779732.74647  -6676093.49446                  22971260.8944
        21.7504         21.5004
 00  5  2 16 26 30.0030000  0  6G 2G 7G 5G 4G 9G24
  23260430.9214   11030182.91546     78404.97546                  23260438.5194
        19.7504         19.7504
  22627934.9294    9342337.37947   7326006.56647                  22627941.8474
        27.7504         26.2504
  24740274.6944   -2708520.52645  -2021711.02845                  24740283.0544
        10.2504         10.0004
  21280759.4834  -13040289.41548 -10018612.50847                  21280765.6474
        32.0004         30.7504
  22310990.9834   -8740746.35748  -6691340.15047                  22310997.1714
        30.5004         28.7504
  22964868.6084   -8813278.34847  -6702232.88946                  22964877.3784
        21.5004         21.5004
 00  5  2 16 26 45.0030000  0  6G 2G 7G 5G 4G 9G24
  23268012.7264   11070025.75846    109451.31746                  23268020.6754
        19.7504         19.2504
  22635469.6944    9381932.45947   7356859.86647                  22635476.5894
        27.5004         25.7504
  24734534.7104   -2738685.42145  -2045216.11045                  24734542.9054
        10.2504         10.2504
  21280254.8434  -13042941.75748 -10020679.25547                  21280261.0194
        31.2504         30.2504
  22310720.0224   -8742169.70848  -6692449.25747                  22310726.3394
        30.5004         28.2504
  22958498.8974   -8846750.52047  -6728315.06846                  22958507.5034
        21.7504         21.2504
 00  5  2 16 27  0.0030000  0  6G 2G 7G 5G 4G 9G24
  23275607.0074   11109935.64046    140549.89146                  23275615.2724
        19.5004         19.7504
  22643008.9994    9421551.58147   7387731.90047                  22643015.8314
        27.2504         26.0004
  24728793.0624   -2768855.39545  -2068725.17145                  24728801.9834
         9.7504         10.2504
  21279777.3124  -13045451.04148 -10022634.53047                  21279783.5464
        32.5004         30.5004
  22310474.2884   -8743461.36248  -6693455.74547                  22310480.5464
        30.5004         28.7504
  22952142.9684   -8880151.88647  -6754342.07646                  22952151.6674
        21.7504         21.2504
 00  5  2 16 27 15.0030000  0  6G 2G 7G 5G 4G 9G24
  23283214.9294   11149913.69046    171701.58246                  23283223.1474
        19.7504         19.5004
  22650552.7334    9461195.69447   7418623.40147                  22650559.6284
        27.5004         26.0004
  24723051.2414   -2799029.25345  -2092237.21445                  24723059.0154
        10.0004         10.0004
  21279327.1874  -13047815.96048 -10024477.31547                  21279333.2574
        32.2504         30.7504
  22310253.7024   -8744620.15448  -6694358.70547                  22310259.9834
        30.5004         29.0004
  22945800.5154   -8913481.16347  -6780312.91046                  22945809.1554
        21.7504         21.2504
 00  5  2 16 27 30.0030000  0  6G 2G 7G 5G 4G 9G24
  23290835.2024   11189960.00246    202906.46446                  23290843.0694
        19.5004         19.5004
  22658101.6634    9500864.59447   7449534.22547                  22658108.6754
        27.2504         26.2504
  24717308.8124   -2829206.87945  -2115752.25645                  24717315.3864
        10.0004         10.0004
  21278904.7184  -13050036.61048 -10026207.67747                  21278910.9174
        32.2504         30.7504
  22310058.4294   -8745646.07748  -6695158.12847                  22310064.7694
        30.5004         29.2504
  22939471.8274   -8946738.02947  -6806227.31746                  22939480.4794
        21.7504         21.5004
 00  5  2 16 27 45.0030000  0  6G 2G 7G 5G 4G 9G24
  23298468.6874   11230072.15146    234162.66246                  23298476.4484
        19.7504         19.5004
  22665654.8044    9540555.81647   7480462.43747                  22665661.9214
        27.2504         26.2504
  24711565.1404   -2859390.55645  -2139271.97345                  24711573.2414
         9.7504         10.0004
  21278509.2494  -13052114.97748 -10027827.17547                  21278515.4484
        32.2504         30.7504
  22309888.1014   -8746541.42348  -6695855.80547                  22309894.6044
        30.7504         29.2504
  22933156.8274   -8979924.57247  -6832086.93146                  22933165.4444
        22.0004         21.7504
 00  5  2 16 28  0.0030000  0  6G 2G 7G 5G 4G 9G24
  23306114.5694   11270251.32046    265471.08746                  23306122.2264
        19.7504         19.2504
  22673212.2264    9580270.36547   7511408.82947                  22673219.2494
        27.2504         26.2504
  24705819.8434   -2889578.94245  -2162795.34545                  24705827.0774
         9.7504         10.5004
  21278140.8824  -13054050.06148 -10029335.01847                  21278147.0114
        32.0004         31.0004
  22309742.7884   -8747304.75248  -6696450.60947                  22309749.1754
        30.7504         29.5004
  22926855.1634   -9013039.22247  -6857890.52346                  22926863.7804
        21.7504         21.7504
 00  5  2 16 28 15.0030000  0  6G 2G 7G 5G 4G 9G24
  23313772.7494   11310496.29347    296830.77346                  23313780.7334
        20.0004         19.5004
  22680773.9914    9620006.97047   7542372.39847                  22680780.9914
        27.5004         26.0004
  24700074.0464   -2919773.10345  -2186323.26545                  24700082.1944
        10.0004          9.7504
  21277799.8824  -13055842.68148 -10030731.85447                  21277806.1164
        32.0004         31.0004
  22309622.5074   -8747937.06148  -6696943.32447                  22309628.9524
        30.7504         29.2504
  22920567.3514   -9046082.91747  -6883638.82846                  22920576.0974
        22.0004         21.7504
 00  5  2 16 28 30.0030000  0  6G 2G 7G 5G 4G 9G24
  23321444.5224   11350810.34646    328244.29046                  23321452.3544
        19.5004         19.2504
  22688340.1944    9659768.69247   7573355.54947                  22688347.1834
        27.0004         26.2504
  24694328.3824   -2949969.62345  -2209853.00045                  24694336.0154
        10.2504         10.0004
  21277486.3434  -13057489.67648 -10032015.21847                  21277492.6364
        32.2504         30.7504
  22309527.7494   -8748435.06048  -6697331.38047                  22309534.2184
        30.7504         29.2504
  22914293.2964   -9079052.02647  -6909329.00546                  22914301.7374
        22.0004         22.0004
 00  5  2 16 28 45.0030000  0  6G 2G 7G 5G 4G 9G24
  23329129.2184   11391193.78046    359711.85546                  23329137.1324
        19.5004         19.5004
  22695911.4684    9699555.67747   7604358.38247                  22695918.2184
        27.0004         25.7504
  24688581.6164   -2980168.23345  -2233384.36245                  24688589.7064
        10.7504         10.2504
  21277200.7654  -13058990.53948 -10033184.71147                  21277206.9994
        32.2504         31.0004
  22309458.6634   -8748798.36348  -6697614.47747                  22309465.1554
        31.2504         29.5004
  22908033.8974   -9111946.10847  -6934960.73046                  22908042.3624
        22.2504         22.0004
 00  5  2 16 29  0.0030000  0  6G 2G 7G 5G 4G 9G24
  23336826.5544   11431644.84946    391232.14046                  23336834.4094
        19.7504         19.5004
  22703487.2724    9739366.07047   7635379.45546                  22703493.9764
        27.0004         25.5004
  24682833.7264   -3010370.49745  -2256918.57745                  24682842.5894
        10.0004         10.5004
  21276942.7414  -13060347.01248 -10034241.69447                  21276948.8704
        32.2504         30.7504
  22309415.1714   -8749028.58648  -6697793.87647                  22309421.5694
        31.0004         29.5004
  22901788.1404   -9144766.46547  -6960535.00646                  22901796.8154
        22.7504         22.2504
 00  5  2 16 29 15.0030000  0  6G 2G 7G 5G 4G 9G24
  23344536.9524   11472163.00946    422804.68946                  23344544.7614
        19.5004         19.5004
  22711067.0074    9779199.01947   7666418.10347                  22711074.0424
        26.5004         25.7504
  24677085.8274   -3040576.86745  -2280455.97745                  24677094.5384
        10.2504         10.0004
  21276712.0154  -13061559.52648 -10035186.50147                  21276718.0974
        32.2504         30.7504
  22309396.2184   -8749126.25048  -6697869.98547                  22309402.5224
        31.0004         29.5004
  22895556.6244   -9177513.35247  -6986052.03346                  22895565.3474
        22.7504         22.0004
 00  5  2 16 29 30.0030000  0  6G 2G 7G 5G 4G 9G24
  23352259.9214   11512746.21546    454427.94146                  23352267.8234
        19.5004         19.5004
  22718650.9444    9819052.44047   7697472.70746                  22718657.9094
        26.5004         25.2504
  24671336.9994   -3070789.19845  -2303998.01145                  24671344.5154
        10.7504         10.5004
  21276508.2024  -13062630.07048 -10036020.67647                  21276514.1794
        32.2504         30.5004
  22309402.6404   -8749093.25548  -6697844.27647                  22309409.0384
        31.0004         29.2504
  22889338.8124   -9210188.60947  -7011513.24046                  22889347.5584
        22.7504         22.2504
 00  5  2 16 29 45.0030000  0  6G 2G 7G 5G 4G 9G24
  23359995.6474   11553399.18846    486105.53646                  23360003.8194
        19.5004         19.2504
  22726239.6084    9858930.82347   7728546.75846                  22726246.5504
        26.5004         25.5004
  24665587.9374   -3101002.76745  -2327541.07845                  24665595.9564
         9.7504         10.0004
  21276332.3974  -13063553.85848 -10036740.50947                  21276338.5154
        32.2504         30.5004
  22309434.6874   -8748924.93848  -6697713.12547                  22309440.9794
        31.0004         29.2504
  22883135.6554   -9242787.31947  -7036914.80946                  22883144.3664
        23.2504         22.5004
 00  5  2 16 30  0.0030000  0  6G 2G 7G 5G 4G 9G24
  23367744.6794   11594119.18046    517835.37946                  23367752.7924
        19.7504         19.2504
  22733832.4524    9898831.23447   7759637.97646                  22733839.6404
        27.0004         25.2504
  24659837.2804   -3131220.11645  -2351087.01945                  24659846.1554
        10.0004          9.7504
  21276183.9294  -13064333.59348 -10037348.07947                  21276189.9054
        30.5004         30.5004
  22309491.7334   -8748623.76848  -6697478.44647                  22309498.0504
        30.7504         29.2504
  22876946.1244   -9275311.71447  -7062258.46146                  22876954.8004
        23.2504         22.7504
 00  5  2 16 30 15.0030000  0  6G 2G 7G 5G 4G 9G24
  23375506.6714   11634908.50546    549619.23146                  23375514.6444
        19.5004         19.2504
  22741429.8824    9938755.91347   7790748.10246                  22741436.9764
        26.5004         25.5004
  24654086.4834   -3161438.85445  -2374634.08345                  24654094.9834
        10.5004         10.2504
  21276063.4604  -13064966.81648 -10037841.48847                  21276069.6364
        32.2504         30.5004
  22309574.9604   -8748187.42748  -6697138.44447                  22309581.2654
        30.7504         29.2504
  22870771.7414   -9307759.27047  -7087542.23946                  22870780.5694
        23.5004         23.0004
 00  5  2 16 30 30.0030000  0  6G 2G 7G 5G 4G 9G24
  23383281.8354   11675765.82946    581456.07146                  23383289.8084
        19.5004         18.7504
  22749031.7414    9978703.37347   7821875.98046                  22749038.6944
        26.7504         25.2504
  24648336.0384   -3191660.27445  -2398183.20745                  24648344.6904
        10.7504         10.0004
  21275970.7494  -13065454.84148 -10038221.75747                  21275976.8434
        32.2504         30.2504
  22309683.5154   -8747617.09848  -6696694.03747                  22309689.7494
        30.7504         28.7504
  22864611.5074   -9340131.07147  -7112766.99346                  22864620.0074
        24.0004         22.5004
 00  5  2 16 30 45.0030000  0  6G 2G 7G 5G 4G 9G24
  23391069.9764   11716694.15346    613348.23746                  23391077.9724
        19.2504         18.7504
  22756638.2494   10018676.45447   7853023.82046                  22756645.3194
        26.5004         25.2504
  24642585.1944   -3221881.08845  -2421731.86545                  24642592.8744
        11.5004         11.0004
  21275905.9994  -13065794.50448 -10038486.42347                  21275912.0584
        32.5004         30.0004
  22309818.0854   -8746909.68448  -6696142.81247                  22309824.3084
        30.7504         28.7504
  22858466.3514   -9372423.78947  -7137930.12246                  22858474.8154
        23.7504         22.7504
 00  5  2 16 31  0.0030000  0  6G 2G 7G 5G 4G 9G24
  23398871.2724   11757689.43846    645292.58746                  23398879.1634
        19.7504         18.5004
  22764248.8584   10058670.97447   7884188.37046                  22764256.0114
        26.5004         25.5004
  24636833.8194   -3252105.34145  -2445283.22045                  24636840.8314
        11.5004         11.0004
  21275868.7574  -13065989.81148 -10038638.59947                  21275874.8274
        32.2504         30.0004
  22309978.1014   -8746069.10948  -6695487.81847                  22309984.4404
        30.7504         28.7504
  22852335.5074   -9404641.07047  -7163034.46746                  22852343.9374
        23.5004         23.0004
 00  5  2 16 31 15.0030000  0  6G 2G 7G 5G 4G 9G24
  23406684.9604   11798751.00346    677288.58146                  23406693.2724
        19.7504         18.7504
  22771863.6404   10098686.19547   7915369.04546                  22771870.7574
        26.7504         25.2504
  24631080.8274   -3282333.56845  -2468837.67245                  24631090.8044
        11.0004         10.7504
  21275858.9764  -13066041.28948 -10038678.70347                  21275864.9874
        32.0004         30.0004
  22310163.2264   -8745095.88448  -6694729.46547                  22310169.5304
        31.0004         28.5004
  22846219.0774   -9436783.27047  -7188080.31046                  22846227.8004
        23.7504         22.5004
 00  5  2 16 31 30.0030000  0  6G 2G 7G 5G 4G 9G24
  23414511.1794   11839878.85846    709336.23146                  23414518.9994
        19.7504         18.7504
  22779482.0854   10138721.79947   7946565.60646                  22779489.2264
        26.5004         25.2504
  24625328.1714   -3312565.64745  -2492395.09445                  24625335.7104
        11.2504         10.2504
  21275876.5384  -13065948.86948 -10038606.67947                  21275882.5384
        30.0004         30.0004
  22310373.6324   -8743990.02348  -6693867.76547                  22310380.0194
        30.2504         28.5004
  22840117.0544   -9468850.35447  -7213067.61846                  22840125.3664
        23.7504         23.0004
 00  5  2 16 31 45.0030000  0  6G 2G 7G 5G 4G 9G24
  23422349.9834   11881072.17746    741434.88546                  23422357.8044
        19.5004         18.5004
  22787104.2184   10178776.95047   7977777.40246                  22787111.2654
        27.0004         25.5004
  24619574.4054   -3342802.28445  -2515956.09045                  24619581.8864
        11.0004         10.2504
  21275921.4914  -13065713.40148 -10038423.18747                  21275927.5034
        32.2504         30.5004
  22310609.1874   -8742752.28348  -6692903.29447                  22310615.5974
        30.2504         29.0004
  22834029.1874   -9500842.58847  -7237996.60246                  22834037.7574
        23.5004         23.2504
 00  5  2 16 32  0.0030000  0  6G 2G 7G 5G 4G 9G24
  23430201.8124   11922332.68746    773585.88946                  23430209.6204
        19.5004         19.0004
  22794730.8744   10218853.25447   8009005.67646                  22794737.7804
        26.7504         25.5004
  24613819.5544   -3373041.58745  -2539519.18145                  24613827.8544
        11.0004         10.2504
  21275993.7964  -13065333.08848 -10038126.83347                  21275999.8664
        32.5004         30.5004
  22310870.1404   -8741380.76048  -6691834.58247                  22310876.4094
        30.2504         28.7504
  22827955.6634   -9532758.05347  -7262865.76846                  22827964.2104
        23.7504         23.0004
 00  5  2 16 32 15.0030000  0  6G 2G 7G 5G 4G 9G24
  23438066.5154   11963662.34246    805790.78046                  23438074.5934
        19.5004         18.7504
  22802361.3974   10258952.51847   8040251.84646                  22802368.3514
        26.5004         25.2504
  24608065.6474   -3403281.45846  -2563082.68445                  24608074.3354
        12.2504         10.7504
  21276094.0464  -13064805.72048 -10037715.88747                  21276100.1514
        32.5004         30.5004
  22311157.1244   -8739873.35148  -6690659.98447                  22311163.4294
        30.5004         28.7504
  22821897.3974   -9564594.39747  -7287673.27846                  22821906.1204
        23.7504         23.2504
 00  5  2 16 32 30.0030000  0  6G 2G 7G 5G 4G 9G24
  23445944.2964   12005058.75946    838047.69046                  23445952.4214
        19.5004         18.7504
  22809995.8974   10299072.14647   8071513.88146                  22810002.8274
        26.5004         25.2504
  24602310.6474   -3433524.20746  -2586648.44845                  24602317.4214
        12.5004         10.7504
  21276221.9684  -13064133.67748 -10037192.21147                  21276228.0154
        32.2504         30.5004
  22311469.1714   -8738232.39848  -6689381.32647                  22311475.4994
        30.2504         28.7504
  22815853.8124   -9596353.75147  -7312420.79846                  22815862.4874
        23.7504         23.0004
 00  5  2 16 32 45.0030000  0  6G 2G 7G 5G 4G 9G24
  23453834.8514   12046524.17046    870358.37646                  23453842.7534
        19.7504         18.5004
  22817634.6244   10339214.32947   8102793.49046                  22817641.5774
        27.0004         25.5004
  24596555.5934   -3463767.41346  -2610214.57945                  24596563.6944
        12.0004         11.2504
  21276377.8514  -13063314.66848 -10036554.01147                  21276383.9794
        32.2504         30.5004
  22311807.3434   -8736455.65448  -6687996.85447                  22311813.8124
        30.5004         28.7504
  22809825.2964   -9628033.55847  -7337106.34046                  22809833.5034
        24.0004         23.0004
 00  5  2 16 33  0.0030000  0  6G 2G 7G 5G 4G 9G24
  23461738.2024   12088056.24546    902720.99446                  23461746.3274
        19.5004         18.7504
  22825277.1164   10379376.64147   8134088.78446                  22825284.1404
        26.7504         25.5004
  24590799.4444   -3494013.28545  -2633782.74645                  24590807.4994
        11.5004         11.2504
  21276561.1944  -13062351.05648 -10035803.13047                  21276567.2184
        31.0004         30.7504
  22312170.9684   -8734545.32248  -6686508.28947                  22312177.2724
        30.2504         29.0004
  22803811.2724   -9659635.92247  -7361731.52946                  22803819.7614
        23.7504         23.5004
 00  5  2 16 33 15.0030000  0  6G 2G 7G 5G 4G 9G24
  23469654.4684   12129657.12746    935137.22746                  23469662.6514
        19.2504         18.7504
  22832924.1084   10419560.88447   8165401.16846                  22832931.0504
        26.7504         25.2504
  24585043.7104   -3524259.70045  -2657351.36545                  24585051.6594
        11.5004         11.0004
  21276772.4684  -13061240.48648 -10034937.74447                  21276778.4564
        32.0004         30.7504
  22312560.2024   -8732499.20548  -6684913.91747                  22312566.5194
        30.5004         29.5004
  22797812.9834   -9691158.40447  -7386294.47646                  22797821.4134
        24.2504         23.2504
 00  5  2 16 33 30.0030000  0  6G 2G 7G 5G 4G 9G24
  23477583.8274   12171325.39846    967605.96846                  23477591.8944
        19.0004         18.7504
  22840574.8584   10459765.56247   8196729.47946                  22840581.8234
        26.2504         25.2504
  24579288.3194   -3554507.86945  -2680921.33745                  24579295.9874
        11.7504         10.7504
  21277011.4684  -13059984.40548 -10033958.96947                  21277017.5624
        32.5004         30.2504
  22312975.3514   -8730318.62348  -6683214.76547                  22312981.7614
        30.7504         29.0004
  22791829.4524   -9722602.12547  -7410796.04546                  22791837.9404
        24.2504         23.2504
 00  5  2 16 33 45.0030000  0  6G 2G 7G 5G 4G 9G24
  23485525.6324   12213059.83646   1000126.27346                  23485533.6404
        19.2504         18.5004
  22848229.2334   10499989.33647   8228072.66446                  22848236.2104
        26.7504         25.2504
  24573531.9294   -3584758.92946  -2704493.57145                  24573539.1754
        12.2504         11.2504
  21277277.9054  -13058584.05848 -10032867.77647                  21277283.9644
        32.2504         30.5004
  22313415.7024   -8728004.71248  -6681411.72447                  22313422.1124
        31.5004         29.5004
  22785860.8974   -9753967.98947  -7435236.94946                  22785869.3154
        24.5004         23.5004
 00  5  2 16 34  0.0030000  0  6G 2G 7G 5G 4G 9G24
  23493480.5934   12254864.40746   1032701.22846                  23493488.8824
        18.7504         18.2504
  22855887.9684   10540236.03747   8259433.71346                  22855894.9214
        26.2504         25.0004
  24567774.6944   -3615008.82545  -2728064.91245                  24567783.5344
        11.2504         10.2504
  21277572.6944  -13057035.25648 -10031660.90647                  21277578.7764
        32.5004         30.2504
  22313882.0304   -8725553.48048  -6679501.67447                  22313888.2534
        31.7504         29.0004
  22779907.4684   -9785251.83847  -7459613.94646                  22779915.9914
        24.5004         23.2504
